Wetterdaten: Montag, 03.07.2017
Datum Zeit Temp. A. Pool Temp. Feuchte A. Luftdruck Regen Wind Richtung Richtung Sonnenschein ET UV Solar Taupunkt Windchill Windben Empfang
03.07.2017 00:00 15,8 C 21,1 C 90 % 1018,3 hPa 0,0 l/m 7,8 km/h (2 Bft) SW 215 0 min 0,000 mm 0,0 UV-I 0 W/m 14,2 C 15,0 C 11,3 km/h (2 Bft) 94,34 %
03.07.2017 00:02 15,8 C 21,1 C 90 % 1018,3 hPa 0,0 l/m 7,9 km/h (2 Bft) SW 215 0 min 0,000 mm 0,0 UV-I 0 W/m 14,2 C 15,0 C 14,5 km/h (3 Bft) 97,06 %
03.07.2017 00:04 15,8 C 21,1 C 90 % 1018,4 hPa 0,0 l/m 7,9 km/h (2 Bft) W-SW 257 0 min 0,000 mm 0,0 UV-I 0 W/m 14,2 C 15,0 C 12,9 km/h (3 Bft) 100,00 %
03.07.2017 00:06 15,9 C 21,1 C 90 % 1018,4 hPa 0,0 l/m 7,6 km/h (2 Bft) S-SW 209 0 min 0,000 mm 0,0 UV-I 0 W/m 14,3 C 15,3 C 11,3 km/h (2 Bft) 98,00 %
03.07.2017 00:08 15,9 C 21,1 C 90 % 1018,4 hPa 0,0 l/m 6,2 km/h (2 Bft) SW 225 0 min 0,000 mm 0,0 UV-I 0 W/m 14,3 C 15,9 C 11,3 km/h (2 Bft) 92,11 %
03.07.2017 00:10 15,8 C 21,1 C 90 % 1018,4 hPa 0,0 l/m 5,2 km/h (1 Bft) SW 227 0 min 0,000 mm 0,0 UV-I 0 W/m 14,2 C 15,8 C 9,7 km/h (2 Bft) 98,00 %
03.07.2017 00:12 15,8 C 21,1 C 90 % 1018,4 hPa 0,0 l/m 7,0 km/h (2 Bft) W-SW 241 0 min 0,000 mm 0,0 UV-I 0 W/m 14,2 C 15,5 C 14,5 km/h (3 Bft) 98,11 %
03.07.2017 00:14 15,9 C 21,1 C 90 % 1018,4 hPa 0,0 l/m 5,6 km/h (1 Bft) W-SW 243 0 min 0,000 mm 0,0 UV-I 0 W/m 14,3 C 15,9 C 9,7 km/h (2 Bft) 98,00 %
03.07.2017 00:16 15,9 C 21,1 C 90 % 1018,5 hPa 0,0 l/m 7,8 km/h (2 Bft) W-SW 247 0 min 0,000 mm 0,0 UV-I 0 W/m 14,3 C 15,1 C 12,9 km/h (3 Bft) 97,56 %
03.07.2017 00:18 15,9 C 21,1 C 90 % 1018,4 hPa 0,0 l/m 6,6 km/h (2 Bft) W-SW 252 0 min 0,000 mm 0,0 UV-I 0 W/m 14,3 C 15,8 C 12,9 km/h (3 Bft) 97,87 %
03.07.2017 00:20 15,9 C 21,1 C 90 % 1018,4 hPa 0,0 l/m 11,4 km/h (2 Bft) W 262 0 min 0,000 mm 0,0 UV-I 0 W/m 14,3 C 13,5 C 16,1 km/h (3 Bft) 100,00 %
03.07.2017 00:22 15,9 C 21,1 C 90 % 1018,4 hPa 0,0 l/m 7,4 km/h (2 Bft) W-SW 250 0 min 0,000 mm 0,0 UV-I 0 W/m 14,3 C 15,4 C 12,9 km/h (3 Bft) 100,00 %
03.07.2017 00:24 15,9 C 21,1 C 89 % 1018,4 hPa 0,0 l/m 8,5 km/h (2 Bft) W 267 0 min 0,000 mm 0,0 UV-I 0 W/m 14,1 C 14,8 C 14,5 km/h (3 Bft) 100,00 %
03.07.2017 00:26 16,0 C 21,1 C 89 % 1018,4 hPa 0,0 l/m 12,5 km/h (3 Bft) SW 235 0 min 0,000 mm 0,0 UV-I 0 W/m 14,2 C 13,2 C 19,3 km/h (3 Bft) 100,00 %
03.07.2017 00:28 16,1 C 21,1 C 89 % 1018,4 hPa 0,0 l/m 11,0 km/h (2 Bft) W-SW 248 0 min 0,000 mm 0,0 UV-I 0 W/m 14,3 C 13,9 C 16,1 km/h (3 Bft) 100,00 %
03.07.2017 00:30 16,1 C 21,1 C 89 % 1018,4 hPa 0,0 l/m 8,3 km/h (2 Bft) W 261 0 min 0,000 mm 0,0 UV-I 0 W/m 14,3 C 15,1 C 16,1 km/h (3 Bft) 98,11 %
03.07.2017 00:32 16,1 C 21,1 C 89 % 1018,4 hPa 0,0 l/m 11,6 km/h (2 Bft) W-SW 257 0 min 0,000 mm 0,0 UV-I 0 W/m 14,3 C 13,7 C 20,9 km/h (4 Bft) 100,00 %
03.07.2017 00:34 16,1 C 21,1 C 89 % 1018,5 hPa 0,0 l/m 11,8 km/h (2 Bft) W-SW 252 0 min 0,000 mm 0,0 UV-I 0 W/m 14,3 C 13,6 C 16,1 km/h (3 Bft) 97,73 %
03.07.2017 00:36 16,1 C 21,1 C 89 % 1018,4 hPa 0,0 l/m 11,8 km/h (2 Bft) W 259 0 min 0,000 mm 0,0 UV-I 0 W/m 14,3 C 13,6 C 19,3 km/h (3 Bft) 100,00 %
03.07.2017 00:38 16,1 C 21,1 C 89 % 1018,5 hPa 0,0 l/m 10,6 km/h (2 Bft) W-SW 256 0 min 0,000 mm 0,0 UV-I 0 W/m 14,3 C 14,1 C 17,7 km/h (3 Bft) 97,87 %
03.07.2017 00:40 16,2 C 21,1 C 88 % 1018,6 hPa 0,0 l/m 10,2 km/h (2 Bft) W-SW 254 0 min 0,000 mm 0,0 UV-I 0 W/m 14,2 C 14,4 C 19,3 km/h (3 Bft) 97,73 %
03.07.2017 00:42 16,2 C 21,1 C 88 % 1018,6 hPa 0,0 l/m 12,2 km/h (2 Bft) W-SW 247 0 min 0,000 mm 0,0 UV-I 0 W/m 14,2 C 13,6 C 17,7 km/h (3 Bft) 98,11 %
03.07.2017 00:44 16,2 C 21,1 C 88 % 1018,6 hPa 0,0 l/m 12,7 km/h (3 Bft) W-SW 241 0 min 0,000 mm 0,0 UV-I 0 W/m 14,2 C 13,4 C 17,7 km/h (3 Bft) 100,00 %
03.07.2017 00:46 16,2 C 21,1 C 88 % 1018,7 hPa 0,0 l/m 12,1 km/h (2 Bft) W-SW 250 0 min 0,000 mm 0,0 UV-I 0 W/m 14,2 C 13,6 C 17,7 km/h (3 Bft) 100,00 %
03.07.2017 00:48 16,2 C 21,1 C 88 % 1018,7 hPa 0,0 l/m 13,0 km/h (3 Bft) W-SW 237 0 min 0,000 mm 0,0 UV-I 0 W/m 14,2 C 13,3 C 20,9 km/h (4 Bft) 100,00 %
03.07.2017 00:50 16,2 C 21,1 C 88 % 1018,7 hPa 0,0 l/m 13,4 km/h (3 Bft) W 259 0 min 0,000 mm 0,0 UV-I 0 W/m 14,2 C 13,2 C 22,5 km/h (4 Bft) 100,00 %
03.07.2017 00:52 16,2 C 21,1 C 87 % 1018,7 hPa 0,0 l/m 13,1 km/h (3 Bft) W-SW 247 0 min 0,000 mm 0,0 UV-I 0 W/m 14,0 C 13,3 C 17,7 km/h (3 Bft) 96,00 %
03.07.2017 00:54 16,2 C 21,1 C 87 % 1018,7 hPa 0,0 l/m 12,8 km/h (3 Bft) W-SW 245 0 min 0,000 mm 0,0 UV-I 0 W/m 14,0 C 13,4 C 17,7 km/h (3 Bft) 100,00 %
03.07.2017 00:56 16,2 C 21,1 C 87 % 1018,6 hPa 0,0 l/m 13,3 km/h (3 Bft) W 261 0 min 0,000 mm 0,0 UV-I 0 W/m 14,0 C 13,2 C 22,5 km/h (4 Bft) 97,73 %
03.07.2017 00:58 16,3 C 21,1 C 87 % 1018,7 hPa 0,0 l/m 13,2 km/h (3 Bft) W-SW 257 0 min 0,000 mm 0,0 UV-I 0 W/m 14,1 C 13,3 C 17,7 km/h (3 Bft) 98,21 %
03.07.2017 01:00 16,3 C 21,1 C 87 % 1018,7 hPa 0,0 l/m 12,3 km/h (3 Bft) W-SW 251 0 min 0,025 mm 0,0 UV-I 0 W/m 14,1 C 13,7 C 17,7 km/h (3 Bft) 97,87 %
03.07.2017 01:02 16,3 C 21,1 C 87 % 1018,7 hPa 0,0 l/m 12,6 km/h (3 Bft) W-SW 242 0 min 0,000 mm 0,0 UV-I 0 W/m 14,1 C 13,6 C 19,3 km/h (3 Bft) 95,74 %
03.07.2017 01:04 16,3 C 21,1 C 87 % 1018,7 hPa 0,0 l/m 11,4 km/h (2 Bft) W 276 0 min 0,000 mm 0,0 UV-I 0 W/m 14,1 C 14,0 C 19,3 km/h (3 Bft) 100,00 %
03.07.2017 01:06 16,3 C 21,1 C 87 % 1018,8 hPa 0,0 l/m 9,5 km/h (2 Bft) W-SW 252 0 min 0,000 mm 0,0 UV-I 0 W/m 14,1 C 14,8 C 14,5 km/h (3 Bft) 95,12 %
03.07.2017 01:08 16,3 C 21,1 C 87 % 1018,8 hPa 0,0 l/m 12,3 km/h (3 Bft) W 262 0 min 0,000 mm 0,0 UV-I 0 W/m 14,1 C 13,7 C 17,7 km/h (3 Bft) 98,11 %
03.07.2017 01:10 16,2 C 21,1 C 87 % 1018,8 hPa 0,0 l/m 10,5 km/h (2 Bft) W-SW 256 0 min 0,000 mm 0,0 UV-I 0 W/m 14,0 C 14,2 C 19,3 km/h (3 Bft) 100,00 %
03.07.2017 01:12 16,2 C 21,1 C 87 % 1018,9 hPa 0,0 l/m 11,1 km/h (2 Bft) SW 231 0 min 0,000 mm 0,0 UV-I 0 W/m 14,0 C 14,0 C 17,7 km/h (3 Bft) 96,23 %
03.07.2017 01:14 16,2 C 21,1 C 87 % 1018,9 hPa 0,0 l/m 12,8 km/h (3 Bft) W-SW 237 0 min 0,000 mm 0,0 UV-I 0 W/m 14,0 C 13,4 C 19,3 km/h (3 Bft) 97,37 %
03.07.2017 01:16 16,2 C 21,1 C 87 % 1018,9 hPa 0,0 l/m 13,0 km/h (3 Bft) W-SW 242 0 min 0,000 mm 0,0 UV-I 0 W/m 14,0 C 13,3 C 17,7 km/h (3 Bft) 94,64 %
03.07.2017 01:18 16,2 C 21,1 C 87 % 1018,9 hPa 0,0 l/m 14,3 km/h (3 Bft) W 267 0 min 0,000 mm 0,0 UV-I 0 W/m 14,0 C 12,9 C 20,9 km/h (4 Bft) 91,67 %
03.07.2017 01:20 16,2 C 21,1 C 87 % 1018,9 hPa 0,0 l/m 12,1 km/h (2 Bft) W-SW 247 0 min 0,000 mm 0,0 UV-I 0 W/m 14,0 C 13,6 C 17,7 km/h (3 Bft) 95,31 %
03.07.2017 01:22 16,2 C 21,1 C 87 % 1018,9 hPa 0,0 l/m 12,7 km/h (3 Bft) S-SW 211 0 min 0,000 mm 0,0 UV-I 0 W/m 14,0 C 13,4 C 17,7 km/h (3 Bft) 93,62 %
03.07.2017 01:24 16,2 C 21,1 C 86 % 1018,9 hPa 0,0 l/m 12,9 km/h (3 Bft) W-SW 249 0 min 0,000 mm 0,0 UV-I 0 W/m 13,9 C 13,3 C 17,7 km/h (3 Bft) 94,87 %
03.07.2017 01:26 16,2 C 21,1 C 86 % 1018,9 hPa 0,0 l/m 10,7 km/h (2 Bft) SW 232 0 min 0,000 mm 0,0 UV-I 0 W/m 13,9 C 14,2 C 16,1 km/h (3 Bft) 94,34 %
03.07.2017 01:28 16,1 C 21,1 C 86 % 1019,0 hPa 0,0 l/m 13,6 km/h (3 Bft) SW 235 0 min 0,000 mm 0,0 UV-I 0 W/m 13,8 C 13,0 C 19,3 km/h (3 Bft) 95,12 %
03.07.2017 01:30 16,1 C 21,1 C 86 % 1019,0 hPa 0,0 l/m 11,5 km/h (2 Bft) W 265 0 min 0,000 mm 0,0 UV-I 0 W/m 13,8 C 13,7 C 14,5 km/h (3 Bft) 90,57 %
03.07.2017 01:32 16,1 C 21,1 C 86 % 1019,0 hPa 0,0 l/m 11,5 km/h (2 Bft) W-SW 252 0 min 0,000 mm 0,0 UV-I 0 W/m 13,8 C 13,7 C 17,7 km/h (3 Bft) 98,04 %
03.07.2017 01:34 16,1 C 21,1 C 85 % 1018,9 hPa 0,0 l/m 10,6 km/h (2 Bft) W-SW 250 0 min 0,000 mm 0,0 UV-I 0 W/m 13,6 C 14,1 C 17,7 km/h (3 Bft) 94,74 %
03.07.2017 01:36 16,1 C 21,1 C 85 % 1019,0 hPa 0,0 l/m 12,8 km/h (3 Bft) W-SW 251 0 min 0,000 mm 0,0 UV-I 0 W/m 13,6 C 13,2 C 17,7 km/h (3 Bft) 95,45 %
03.07.2017 01:38 16,2 C 21,1 C 85 % 1019,1 hPa 0,0 l/m 12,4 km/h (3 Bft) W 271 0 min 0,000 mm 0,0 UV-I 0 W/m 13,7 C 13,5 C 16,1 km/h (3 Bft) 94,64 %
03.07.2017 01:40 16,2 C 21,1 C 84 % 1019,1 hPa 0,0 l/m 9,1 km/h (2 Bft) W-SW 256 0 min 0,000 mm 0,0 UV-I 0 W/m 13,5 C 14,8 C 12,9 km/h (3 Bft) 94,74 %
03.07.2017 01:42 16,2 C 21,1 C 85 % 1019,1 hPa 0,0 l/m 10,4 km/h (2 Bft) W-SW 244 0 min 0,000 mm 0,0 UV-I 0 W/m 13,7 C 14,3 C 19,3 km/h (3 Bft) 92,98 %
03.07.2017 01:44 16,2 C 21,1 C 84 % 1019,2 hPa 0,0 l/m 8,7 km/h (2 Bft) W 281 0 min 0,000 mm 0,0 UV-I 0 W/m 13,5 C 15,0 C 11,3 km/h (2 Bft) 95,12 %
03.07.2017 01:46 16,2 C 21,1 C 84 % 1019,1 hPa 0,0 l/m 10,7 km/h (2 Bft) W-SW 252 0 min 0,000 mm 0,0 UV-I 0 W/m 13,5 C 14,2 C 17,7 km/h (3 Bft) 94,34 %
03.07.2017 01:48 16,2 C 21,1 C 84 % 1019,2 hPa 0,0 l/m 10,6 km/h (2 Bft) W-NW 288 0 min 0,000 mm 0,0 UV-I 0 W/m 13,5 C 14,2 C 14,5 km/h (3 Bft) 93,62 %
03.07.2017 01:50 16,1 C 21,1 C 84 % 1019,2 hPa 0,0 l/m 10,0 km/h (2 Bft) W-SW 254 0 min 0,000 mm 0,0 UV-I 0 W/m 13,4 C 14,3 C 17,7 km/h (3 Bft) 95,74 %
03.07.2017 01:52 16,2 C 21,1 C 84 % 1019,2 hPa 0,0 l/m 10,2 km/h (2 Bft) SW 234 0 min 0,000 mm 0,0 UV-I 0 W/m 13,5 C 14,4 C 17,7 km/h (3 Bft) 95,12 %
03.07.2017 01:54 16,2 C 21,1 C 84 % 1019,2 hPa 0,0 l/m 10,0 km/h (2 Bft) W-SW 254 0 min 0,000 mm 0,0 UV-I 0 W/m 13,5 C 14,4 C 14,5 km/h (3 Bft) 98,00 %
03.07.2017 01:56 16,2 C 21,1 C 84 % 1019,3 hPa 0,0 l/m 9,2 km/h (2 Bft) W 259 0 min 0,000 mm 0,0 UV-I 0 W/m 13,5 C 14,8 C 16,1 km/h (3 Bft) 92,68 %
03.07.2017 01:58 16,2 C 21,1 C 84 % 1019,3 hPa 0,0 l/m 9,0 km/h (2 Bft) W-SW 242 0 min 0,000 mm 0,0 UV-I 0 W/m 13,5 C 14,9 C 16,1 km/h (3 Bft) 94,34 %
03.07.2017 02:00 16,1 C 21,1 C 84 % 1019,3 hPa 0,0 l/m 10,3 km/h (2 Bft) W-SW 245 0 min 0,026 mm 0,0 UV-I 0 W/m 13,4 C 14,2 C 16,1 km/h (3 Bft) 96,00 %
03.07.2017 02:02 16,1 C 21,1 C 84 % 1019,3 hPa 0,0 l/m 9,4 km/h (2 Bft) W-SW 257 0 min 0,000 mm 0,0 UV-I 0 W/m 13,4 C 14,6 C 12,9 km/h (3 Bft) 95,74 %
03.07.2017 02:04 16,1 C 21,1 C 84 % 1019,3 hPa 0,0 l/m 8,6 km/h (2 Bft) W-SW 252 0 min 0,000 mm 0,0 UV-I 0 W/m 13,4 C 15,0 C 12,9 km/h (3 Bft) 93,33 %
03.07.2017 02:06 16,1 C 21,1 C 84 % 1019,3 hPa 0,0 l/m 10,1 km/h (2 Bft) W-SW 257 0 min 0,000 mm 0,0 UV-I 0 W/m 13,4 C 14,3 C 16,1 km/h (3 Bft) 96,23 %
03.07.2017 02:08 16,1 C 21,1 C 84 % 1019,3 hPa 0,0 l/m 10,5 km/h (2 Bft) W-SW 248 0 min 0,000 mm 0,0 UV-I 0 W/m 13,4 C 14,1 C 16,1 km/h (3 Bft) 94,92 %
03.07.2017 02:10 16,1 C 21,1 C 84 % 1019,3 hPa 0,0 l/m 9,4 km/h (2 Bft) W-SW 238 0 min 0,000 mm 0,0 UV-I 0 W/m 13,4 C 14,6 C 16,1 km/h (3 Bft) 100,00 %
03.07.2017 02:12 16,1 C 21,1 C 84 % 1019,3 hPa 0,0 l/m 10,1 km/h (2 Bft) W 265 0 min 0,000 mm 0,0 UV-I 0 W/m 13,4 C 14,3 C 16,1 km/h (3 Bft) 95,38 %
03.07.2017 02:14 16,1 C 21,1 C 84 % 1019,3 hPa 0,0 l/m 7,7 km/h (2 Bft) W-SW 237 0 min 0,000 mm 0,0 UV-I 0 W/m 13,4 C 15,4 C 14,5 km/h (3 Bft) 96,00 %
03.07.2017 02:16 16,1 C 21,1 C 84 % 1019,3 hPa 0,0 l/m 10,1 km/h (2 Bft) W 272 0 min 0,000 mm 0,0 UV-I 0 W/m 13,4 C 14,3 C 14,5 km/h (3 Bft) 98,00 %
03.07.2017 02:18 16,0 C 21,1 C 84 % 1019,3 hPa 0,0 l/m 9,9 km/h (2 Bft) SW 234 0 min 0,000 mm 0,0 UV-I 0 W/m 13,3 C 14,3 C 16,1 km/h (3 Bft) 97,56 %
03.07.2017 02:20 16,0 C 21,1 C 84 % 1019,3 hPa 0,0 l/m 9,7 km/h (2 Bft) W-SW 247 0 min 0,000 mm 0,0 UV-I 0 W/m 13,3 C 14,4 C 16,1 km/h (3 Bft) 97,78 %
03.07.2017 02:22 16,0 C 21,1 C 85 % 1019,4 hPa 0,0 l/m 8,0 km/h (2 Bft) W-SW 248 0 min 0,000 mm 0,0 UV-I 0 W/m 13,5 C 15,2 C 14,5 km/h (3 Bft) 98,11 %
03.07.2017 02:24 16,0 C 21,1 C 85 % 1019,4 hPa 0,0 l/m 9,5 km/h (2 Bft) SW 233 0 min 0,000 mm 0,0 UV-I 0 W/m 13,5 C 14,4 C 16,1 km/h (3 Bft) 95,12 %
03.07.2017 02:26 16,0 C 21,1 C 85 % 1019,4 hPa 0,0 l/m 7,3 km/h (2 Bft) SW 214 0 min 0,000 mm 0,0 UV-I 0 W/m 13,5 C 15,5 C 9,7 km/h (2 Bft) 100,00 %
03.07.2017 02:28 15,9 C 21,1 C 85 % 1019,4 hPa 0,0 l/m 6,6 km/h (2 Bft) W-SW 242 0 min 0,000 mm 0,0 UV-I 0 W/m 13,4 C 15,8 C 12,9 km/h (3 Bft) 97,87 %
03.07.2017 02:30 15,9 C 21,1 C 85 % 1019,4 hPa 0,0 l/m 5,4 km/h (1 Bft) SW 217 0 min 0,000 mm 0,0 UV-I 0 W/m 13,4 C 15,9 C 8,0 km/h (2 Bft) 100,00 %
03.07.2017 02:32 15,9 C 21,1 C 85 % 1019,5 hPa 0,0 l/m 7,6 km/h (2 Bft) W-SW 248 0 min 0,000 mm 0,0 UV-I 0 W/m 13,4 C 15,3 C 11,3 km/h (2 Bft) 97,73 %
03.07.2017 02:34 15,9 C 21,1 C 86 % 1019,5 hPa 0,0 l/m 9,7 km/h (2 Bft) W-SW 237 0 min 0,000 mm 0,0 UV-I 0 W/m 13,6 C 14,2 C 16,1 km/h (3 Bft) 96,23 %
03.07.2017 02:36 15,8 C 21,1 C 86 % 1019,5 hPa 0,0 l/m 9,3 km/h (2 Bft) W-SW 244 0 min 0,000 mm 0,0 UV-I 0 W/m 13,5 C 14,3 C 14,5 km/h (3 Bft) 100,00 %
03.07.2017 02:38 15,8 C 21,1 C 86 % 1019,5 hPa 0,0 l/m 9,1 km/h (2 Bft) W-SW 244 0 min 0,000 mm 0,0 UV-I 0 W/m 13,5 C 14,4 C 14,5 km/h (3 Bft) 98,08 %
03.07.2017 02:40 15,8 C 21,1 C 86 % 1019,5 hPa 0,0 l/m 6,6 km/h (2 Bft) SW 236 0 min 0,000 mm 0,0 UV-I 0 W/m 13,5 C 15,7 C 11,3 km/h (2 Bft) 100,00 %
03.07.2017 02:42 15,7 C 21,1 C 86 % 1019,5 hPa 0,0 l/m 8,0 km/h (2 Bft) W-SW 248 0 min 0,000 mm 0,0 UV-I 0 W/m 13,4 C 14,8 C 12,9 km/h (3 Bft) 97,22 %
03.07.2017 02:44 15,7 C 21,1 C 86 % 1019,5 hPa 0,0 l/m 8,9 km/h (2 Bft) SW 229 0 min 0,000 mm 0,0 UV-I 0 W/m 13,4 C 14,4 C 14,5 km/h (3 Bft) 100,00 %
03.07.2017 02:46 15,7 C 21,1 C 87 % 1019,5 hPa 0,0 l/m 6,9 km/h (2 Bft) W-SW 258 0 min 0,000 mm 0,0 UV-I 0 W/m 13,5 C 15,4 C 11,3 km/h (2 Bft) 98,00 %
03.07.2017 02:48 15,7 C 21,1 C 87 % 1019,5 hPa 0,0 l/m 8,7 km/h (2 Bft) SW 231 0 min 0,000 mm 0,0 UV-I 0 W/m 13,5 C 14,5 C 14,5 km/h (3 Bft) 100,00 %
03.07.2017 02:50 15,6 C 21,1 C 87 % 1019,5 hPa 0,0 l/m 7,8 km/h (2 Bft) W-SW 249 0 min 0,000 mm 0,0 UV-I 0 W/m 13,4 C 14,8 C 11,3 km/h (2 Bft) 98,11 %
03.07.2017 02:52 15,6 C 21,1 C 87 % 1019,5 hPa 0,0 l/m 10,4 km/h (2 Bft) W-SW 246 0 min 0,000 mm 0,0 UV-I 0 W/m 13,4 C 13,6 C 17,7 km/h (3 Bft) 98,00 %
03.07.2017 02:54 15,6 C 21,1 C 87 % 1019,5 hPa 0,0 l/m 10,1 km/h (2 Bft) SW 233 0 min 0,000 mm 0,0 UV-I 0 W/m 13,4 C 13,7 C 16,1 km/h (3 Bft) 97,73 %
03.07.2017 02:56 15,6 C 21,1 C 87 % 1019,5 hPa 0,0 l/m 9,3 km/h (2 Bft) SW 229 0 min 0,000 mm 0,0 UV-I 0 W/m 13,4 C 14,1 C 16,1 km/h (3 Bft) 97,56 %
03.07.2017 02:58 15,6 C 21,1 C 88 % 1019,6 hPa 0,0 l/m 7,8 km/h (2 Bft) SW 232 0 min 0,000 mm 0,0 UV-I 0 W/m 13,6 C 14,8 C 12,9 km/h (3 Bft) 94,44 %
03.07.2017 03:00 15,6 C 21,1 C 88 % 1019,6 hPa 0,0 l/m 8,2 km/h (2 Bft) SW 219 0 min 0,025 mm 0,0 UV-I 0 W/m 13,6 C 14,6 C 14,5 km/h (3 Bft) 97,37 %
03.07.2017 03:02 15,6 C 21,1 C 88 % 1019,6 hPa 0,0 l/m 8,4 km/h (2 Bft) S-SW 209 0 min 0,000 mm 0,0 UV-I 0 W/m 13,6 C 14,5 C 14,5 km/h (3 Bft) 98,00 %
03.07.2017 03:04 15,5 C 21,1 C 88 % 1019,6 hPa 0,0 l/m 7,6 km/h (2 Bft) W-SW 248 0 min 0,000 mm 0,0 UV-I 0 W/m 13,5 C 14,8 C 11,3 km/h (2 Bft) 100,00 %
03.07.2017 03:06 15,5 C 21,1 C 88 % 1019,6 hPa 0,0 l/m 8,2 km/h (2 Bft) W-SW 246 0 min 0,000 mm 0,0 UV-I 0 W/m 13,5 C 14,5 C 12,9 km/h (3 Bft) 98,11 %
03.07.2017 03:08 15,4 C 21,1 C 88 % 1019,6 hPa 0,0 l/m 9,3 km/h (2 Bft) W-SW 248 0 min 0,000 mm 0,0 UV-I 0 W/m 13,4 C 13,9 C 17,7 km/h (3 Bft) 97,56 %
03.07.2017 03:10 15,4 C 21,1 C 88 % 1019,6 hPa 0,0 l/m 10,5 km/h (2 Bft) W-SW 254 0 min 0,000 mm 0,0 UV-I 0 W/m 13,4 C 13,3 C 17,7 km/h (3 Bft) 100,00 %
03.07.2017 03:12 15,4 C 21,1 C 88 % 1019,7 hPa 0,0 l/m 10,3 km/h (2 Bft) W-SW 249 0 min 0,000 mm 0,0 UV-I 0 W/m 13,4 C 13,4 C 17,7 km/h (3 Bft) 92,00 %
03.07.2017 03:14 15,4 C 21,1 C 88 % 1019,6 hPa 0,0 l/m 9,9 km/h (2 Bft) SW 220 0 min 0,000 mm 0,0 UV-I 0 W/m 13,4 C 13,6 C 14,5 km/h (3 Bft) 95,74 %
03.07.2017 03:16 15,4 C 21,1 C 88 % 1019,6 hPa 0,0 l/m 9,0 km/h (2 Bft) SW 215 0 min 0,000 mm 0,0 UV-I 0 W/m 13,4 C 14,0 C 12,9 km/h (3 Bft) 95,45 %
03.07.2017 03:18 15,4 C 21,1 C 88 % 1019,5 hPa 0,0 l/m 8,8 km/h (2 Bft) SW 232 0 min 0,000 mm 0,0 UV-I 0 W/m 13,4 C 14,1 C 14,5 km/h (3 Bft) 97,62 %
03.07.2017 03:20 15,3 C 20,6 C 88 % 1019,5 hPa 0,0 l/m 8,7 km/h (2 Bft) W-SW 241 0 min 0,000 mm 0,0 UV-I 0 W/m 13,3 C 14,1 C 14,5 km/h (3 Bft) 96,23 %
03.07.2017 03:22 15,3 C 20,6 C 89 % 1019,6 hPa 0,0 l/m 7,0 km/h (2 Bft) SW 236 0 min 0,000 mm 0,0 UV-I 0 W/m 13,5 C 15,0 C 9,7 km/h (2 Bft) 95,12 %
03.07.2017 03:24 15,3 C 20,6 C 89 % 1019,6 hPa 0,0 l/m 10,2 km/h (2 Bft) S-SW 213 0 min 0,000 mm 0,0 UV-I 0 W/m 13,5 C 13,4 C 16,1 km/h (3 Bft) 96,00 %
03.07.2017 03:26 15,3 C 20,6 C 89 % 1019,6 hPa 0,0 l/m 9,3 km/h (2 Bft) W 259 0 min 0,000 mm 0,0 UV-I 0 W/m 13,5 C 13,8 C 16,1 km/h (3 Bft) 95,45 %
03.07.2017 03:28 15,3 C 20,6 C 89 % 1019,6 hPa 0,0 l/m 9,0 km/h (2 Bft) W-SW 256 0 min 0,000 mm 0,0 UV-I 0 W/m 13,5 C 13,9 C 14,5 km/h (3 Bft) 97,87 %
03.07.2017 03:30 15,3 C 20,6 C 89 % 1019,6 hPa 0,0 l/m 6,7 km/h (2 Bft) SW 233 0 min 0,000 mm 0,0 UV-I 0 W/m 13,5 C 15,1 C 11,3 km/h (2 Bft) 95,74 %
03.07.2017 03:32 15,2 C 20,6 C 89 % 1019,6 hPa 0,0 l/m 8,6 km/h (2 Bft) W-SW 251 0 min 0,000 mm 0,0 UV-I 0 W/m 13,4 C 14,0 C 12,9 km/h (3 Bft) 98,11 %
03.07.2017 03:34 15,2 C 20,6 C 89 % 1019,6 hPa 0,0 l/m 7,9 km/h (2 Bft) SW 227 0 min 0,000 mm 0,0 UV-I 0 W/m 13,4 C 14,4 C 11,3 km/h (2 Bft) 96,00 %
03.07.2017 03:36 15,2 C 20,6 C 89 % 1019,6 hPa 0,0 l/m 9,6 km/h (2 Bft) SW 236 0 min 0,000 mm 0,0 UV-I 0 W/m 13,4 C 13,5 C 17,7 km/h (3 Bft) 97,14 %
03.07.2017 03:38 15,2 C 20,6 C 89 % 1019,6 hPa 0,0 l/m 7,5 km/h (2 Bft) S-SW 211 0 min 0,000 mm 0,0 UV-I 0 W/m 13,4 C 14,6 C 12,9 km/h (3 Bft) 98,11 %
03.07.2017 03:40 15,2 C 20,6 C 90 % 1019,6 hPa 0,0 l/m 11,2 km/h (2 Bft) S-SW 206 0 min 0,000 mm 0,0 UV-I 0 W/m 13,6 C 12,8 C 16,1 km/h (3 Bft) 98,00 %
03.07.2017 03:42 15,2 C 20,6 C 90 % 1019,6 hPa 0,0 l/m 12,0 km/h (2 Bft) SW 231 0 min 0,000 mm 0,0 UV-I 0 W/m 13,6 C 12,5 C 20,9 km/h (4 Bft) 97,37 %
03.07.2017 03:44 15,1 C 20,6 C 90 % 1019,6 hPa 0,0 l/m 10,2 km/h (2 Bft) W-SW 238 0 min 0,000 mm 0,0 UV-I 0 W/m 13,5 C 13,1 C 14,5 km/h (3 Bft) 98,21 %
03.07.2017 03:46 15,1 C 20,6 C 90 % 1019,6 hPa 0,0 l/m 12,2 km/h (2 Bft) W-SW 238 0 min 0,000 mm 0,0 UV-I 0 W/m 13,5 C 12,3 C 17,7 km/h (3 Bft) 97,56 %
03.07.2017 03:48 15,1 C 20,6 C 90 % 1019,6 hPa 0,0 l/m 13,3 km/h (3 Bft) SW 215 0 min 0,000 mm 0,0 UV-I 0 W/m 13,5 C 11,9 C 19,3 km/h (3 Bft) 100,00 %
03.07.2017 03:50 15,1 C 20,6 C 90 % 1019,6 hPa 0,0 l/m 12,0 km/h (2 Bft) W 265 0 min 0,000 mm 0,0 UV-I 0 W/m 13,5 C 12,4 C 16,1 km/h (3 Bft) 97,56 %
03.07.2017 03:52 15,1 C 20,6 C 90 % 1019,6 hPa 0,0 l/m 13,1 km/h (3 Bft) W-SW 246 0 min 0,000 mm 0,0 UV-I 0 W/m 13,5 C 12,0 C 20,9 km/h (4 Bft) 98,21 %
03.07.2017 03:54 15,1 C 20,6 C 90 % 1019,6 hPa 0,0 l/m 11,0 km/h (2 Bft) W 261 0 min 0,000 mm 0,0 UV-I 0 W/m 13,5 C 12,8 C 16,1 km/h (3 Bft) 95,74 %
03.07.2017 03:56 15,1 C 20,6 C 90 % 1019,6 hPa 0,0 l/m 13,6 km/h (3 Bft) W-SW 241 0 min 0,000 mm 0,0 UV-I 0 W/m 13,5 C 11,8 C 17,7 km/h (3 Bft) 97,56 %
03.07.2017 03:58 15,0 C 20,6 C 90 % 1019,6 hPa 0,0 l/m 11,4 km/h (2 Bft) SW 222 0 min 0,000 mm 0,0 UV-I 0 W/m 13,4 C 12,5 C 17,7 km/h (3 Bft) 98,11 %
03.07.2017 04:00 15,0 C 20,6 C 90 % 1019,6 hPa 0,0 l/m 12,8 km/h (3 Bft) W 267 0 min 0,026 mm 0,0 UV-I 0 W/m 13,4 C 12,0 C 19,3 km/h (3 Bft) 97,44 %
03.07.2017 04:02 15,0 C 20,6 C 90 % 1019,7 hPa 0,0 l/m 15,3 km/h (3 Bft) W-SW 244 0 min 0,000 mm 0,0 UV-I 0 W/m 13,4 C 11,1 C 24,1 km/h (4 Bft) 100,00 %
03.07.2017 04:04 15,0 C 20,6 C 90 % 1019,7 hPa 0,0 l/m 14,7 km/h (3 Bft) W 262 0 min 0,000 mm 0,0 UV-I 0 W/m 13,4 C 11,3 C 20,9 km/h (4 Bft) 96,00 %
03.07.2017 04:06 15,0 C 20,6 C 90 % 1019,6 hPa 0,0 l/m 13,4 km/h (3 Bft) SW 220 0 min 0,000 mm 0,0 UV-I 0 W/m 13,4 C 11,7 C 19,3 km/h (3 Bft) 100,00 %
03.07.2017 04:08 15,0 C 20,6 C 90 % 1019,6 hPa 0,0 l/m 14,0 km/h (3 Bft) W 259 0 min 0,000 mm 0,0 UV-I 0 W/m 13,4 C 11,5 C 20,9 km/h (4 Bft) 98,11 %
03.07.2017 04:10 15,0 C 20,6 C 90 % 1019,6 hPa 0,0 l/m 12,2 km/h (2 Bft) SW 215 0 min 0,000 mm 0,0 UV-I 0 W/m 13,4 C 12,2 C 17,7 km/h (3 Bft) 100,00 %
03.07.2017 04:12 15,0 C 20,6 C 90 % 1019,6 hPa 0,0 l/m 12,7 km/h (3 Bft) W-SW 242 0 min 0,000 mm 0,0 UV-I 0 W/m 13,4 C 12,0 C 16,1 km/h (3 Bft) 97,73 %
03.07.2017 04:14 15,0 C 20,6 C 90 % 1019,6 hPa 0,0 l/m 9,9 km/h (2 Bft) SW 234 0 min 0,000 mm 0,0 UV-I 0 W/m 13,4 C 13,2 C 14,5 km/h (3 Bft) 100,00 %
03.07.2017 04:16 15,0 C 20,6 C 90 % 1019,6 hPa 0,0 l/m 9,0 km/h (2 Bft) W-SW 243 0 min 0,000 mm 0,0 UV-I 0 W/m 13,4 C 13,6 C 12,9 km/h (3 Bft) 96,15 %
03.07.2017 04:18 15,0 C 20,6 C 90 % 1019,7 hPa 0,0 l/m 9,7 km/h (2 Bft) W 268 0 min 0,000 mm 0,0 UV-I 0 W/m 13,4 C 13,3 C 17,7 km/h (3 Bft) 100,00 %
03.07.2017 04:20 15,0 C 20,6 C 90 % 1019,6 hPa 0,0 l/m 12,5 km/h (3 Bft) W-SW 242 0 min 0,000 mm 0,0 UV-I 0 W/m 13,4 C 12,1 C 17,7 km/h (3 Bft) 98,21 %
03.07.2017 04:22 15,0 C 20,6 C 90 % 1019,6 hPa 0,0 l/m 9,6 km/h (2 Bft) W-SW 258 0 min 0,000 mm 0,0 UV-I 0 W/m 13,4 C 13,3 C 16,1 km/h (3 Bft) 97,56 %
03.07.2017 04:24 15,0 C 20,6 C 89 % 1019,6 hPa 0,0 l/m 9,8 km/h (2 Bft) W-SW 243 0 min 0,000 mm 0,0 UV-I 0 W/m 13,2 C 13,2 C 14,5 km/h (3 Bft) 98,00 %
03.07.2017 04:26 15,0 C 20,6 C 89 % 1019,6 hPa 0,0 l/m 9,6 km/h (2 Bft) S-SW 213 0 min 0,000 mm 0,0 UV-I 0 W/m 13,2 C 13,3 C 14,5 km/h (3 Bft) 100,00 %
03.07.2017 04:28 15,0 C 20,6 C 89 % 1019,6 hPa 0,0 l/m 11,1 km/h (2 Bft) W-SW 254 0 min 0,000 mm 0,0 UV-I 0 W/m 13,2 C 12,6 C 16,1 km/h (3 Bft) 100,00 %
03.07.2017 04:30 15,0 C 20,6 C 89 % 1019,6 hPa 0,0 l/m 9,4 km/h (2 Bft) W 267 0 min 0,000 mm 0,0 UV-I 0 W/m 13,2 C 13,4 C 16,1 km/h (3 Bft) 100,00 %
03.07.2017 04:32 15,0 C 20,6 C 89 % 1019,6 hPa 0,0 l/m 14,0 km/h (3 Bft) W-SW 246 0 min 0,000 mm 0,0 UV-I 0 W/m 13,2 C 11,5 C 19,3 km/h (3 Bft) 98,11 %
03.07.2017 04:34 15,0 C 20,6 C 89 % 1019,6 hPa 0,0 l/m 11,5 km/h (2 Bft) SW 236 0 min 0,000 mm 0,0 UV-I 0 W/m 13,2 C 12,5 C 19,3 km/h (3 Bft) 100,00 %
03.07.2017 04:36 15,0 C 20,6 C 89 % 1019,6 hPa 0,0 l/m 11,4 km/h (2 Bft) SW 235 0 min 0,000 mm 0,0 UV-I 0 W/m 13,2 C 12,5 C 20,9 km/h (4 Bft) 100,00 %
03.07.2017 04:38 15,0 C 20,6 C 89 % 1019,7 hPa 0,0 l/m 12,4 km/h (3 Bft) W-SW 248 0 min 0,000 mm 0,0 UV-I 0 W/m 13,2 C 12,1 C 17,7 km/h (3 Bft) 96,23 %
03.07.2017 04:40 15,0 C 20,6 C 89 % 1019,6 hPa 0,0 l/m 8,7 km/h (2 Bft) W-SW 248 0 min 0,000 mm 0,0 UV-I 0 W/m 13,2 C 13,7 C 14,5 km/h (3 Bft) 97,87 %
03.07.2017 04:42 15,0 C 20,6 C 88 % 1019,7 hPa 0,0 l/m 13,3 km/h (3 Bft) SW 236 0 min 0,000 mm 0,0 UV-I 0 W/m 13,0 C 11,8 C 19,3 km/h (3 Bft) 100,00 %
03.07.2017 04:44 15,0 C 20,6 C 88 % 1019,7 hPa 0,0 l/m 9,6 km/h (2 Bft) W-SW 256 0 min 0,000 mm 0,0 UV-I 0 W/m 13,0 C 13,3 C 12,9 km/h (3 Bft) 98,21 %
03.07.2017 04:46 15,0 C 20,6 C 88 % 1019,7 hPa 0,0 l/m 13,4 km/h (3 Bft) W 265 0 min 0,000 mm 0,0 UV-I 0 W/m 13,0 C 11,7 C 20,9 km/h (4 Bft) 97,73 %
03.07.2017 04:48 15,0 C 20,6 C 88 % 1019,7 hPa 0,0 l/m 14,6 km/h (3 Bft) W-SW 257 0 min 0,000 mm 0,0 UV-I 0 W/m 13,0 C 11,3 C 20,9 km/h (4 Bft) 97,56 %
03.07.2017 04:50 15,0 C 20,6 C 88 % 1019,7 hPa 0,0 l/m 12,4 km/h (3 Bft) W-SW 249 0 min 0,000 mm 0,0 UV-I 0 W/m 13,0 C 12,1 C 19,3 km/h (3 Bft) 97,87 %
03.07.2017 04:52 15,0 C 20,6 C 88 % 1019,7 hPa 0,0 l/m 11,5 km/h (2 Bft) SW 221 0 min 0,000 mm 0,0 UV-I 0 W/m 13,0 C 12,5 C 16,1 km/h (3 Bft) 95,74 %
03.07.2017 04:54 15,0 C 20,6 C 88 % 1019,7 hPa 0,0 l/m 14,4 km/h (3 Bft) W 259 0 min 0,000 mm 0,0 UV-I 0 W/m 13,0 C 11,4 C 24,1 km/h (4 Bft) 98,11 %
03.07.2017 04:56 15,0 C 20,6 C 88 % 1019,7 hPa 0,0 l/m 11,3 km/h (2 Bft) W-SW 256 0 min 0,000 mm 0,0 UV-I 0 W/m 13,0 C 12,6 C 16,1 km/h (3 Bft) 97,56 %
03.07.2017 04:58 15,0 C 20,6 C 88 % 1019,8 hPa 0,0 l/m 8,9 km/h (2 Bft) W-SW 249 0 min 0,000 mm 0,0 UV-I 0 W/m 13,0 C 13,6 C 14,5 km/h (3 Bft) 96,23 %
03.07.2017 05:00 14,9 C 20,6 C 89 % 1019,8 hPa 0,0 l/m 9,1 km/h (2 Bft) W 267 0 min 0,025 mm 0,0 UV-I 0 W/m 13,1 C 13,4 C 16,1 km/h (3 Bft) 97,56 %
03.07.2017 05:02 14,9 C 20,6 C 89 % 1019,8 hPa 0,0 l/m 7,2 km/h (2 Bft) SW 232 0 min 0,000 mm 0,0 UV-I 0 W/m 13,1 C 14,4 C 11,3 km/h (2 Bft) 96,00 %
03.07.2017 05:04 14,9 C 20,6 C 89 % 1019,8 hPa 0,0 l/m 9,0 km/h (2 Bft) SW 215 0 min 0,000 mm 0,0 UV-I 0 W/m 13,1 C 13,5 C 14,5 km/h (3 Bft) 97,56 %
03.07.2017 05:06 14,8 C 20,6 C 89 % 1019,8 hPa 0,0 l/m 13,0 km/h (3 Bft) W-SW 239 0 min 0,000 mm 0,0 UV-I 0 W/m 13,0 C 11,7 C 20,9 km/h (4 Bft) 98,11 %
03.07.2017 05:08 14,9 C 20,6 C 89 % 1019,8 hPa 0,0 l/m 12,6 km/h (3 Bft) SW 232 0 min 0,000 mm 0,0 UV-I 0 W/m 13,1 C 11,9 C 17,7 km/h (3 Bft) 97,87 %
03.07.2017 05:10 14,8 C 20,6 C 89 % 1019,8 hPa 0,0 l/m 13,1 km/h (3 Bft) W-SW 238 0 min 0,000 mm 0,0 UV-I 0 W/m 13,0 C 11,6 C 22,5 km/h (4 Bft) 98,00 %
03.07.2017 05:12 14,8 C 20,6 C 89 % 1019,8 hPa 0,0 l/m 18,3 km/h (3 Bft) W-SW 242 0 min 0,000 mm 0,0 UV-I 0 W/m 13,0 C 9,9 C 25,7 km/h (4 Bft) 95,12 %
03.07.2017 05:14 14,8 C 20,6 C 89 % 1019,9 hPa 0,2 l/m 17,0 km/h (3 Bft) W-SW 241 0 min 0,000 mm 0,0 UV-I 3 W/m 13,0 C 10,3 C 24,1 km/h (4 Bft) 95,24 %
03.07.2017 05:16 14,8 C 20,6 C 89 % 1019,8 hPa 0,0 l/m 14,0 km/h (3 Bft) W-SW 237 0 min 0,000 mm 0,0 UV-I 5 W/m 13,0 C 11,3 C 19,3 km/h (3 Bft) 94,83 %
03.07.2017 05:18 14,8 C 20,6 C 89 % 1019,8 hPa 0,0 l/m 11,1 km/h (2 Bft) W-SW 257 0 min 0,000 mm 0,0 UV-I 5 W/m 13,0 C 12,4 C 16,1 km/h (3 Bft) 95,24 %
03.07.2017 05:20 14,7 C 20,6 C 90 % 1019,9 hPa 0,2 l/m 13,0 km/h (3 Bft) W-SW 253 0 min 0,000 mm 0,0 UV-I 5 W/m 13,1 C 11,5 C 19,3 km/h (3 Bft) 95,45 %
03.07.2017 05:22 14,7 C 20,6 C 90 % 1019,9 hPa 0,0 l/m 14,4 km/h (3 Bft) W-SW 244 0 min 0,000 mm 0,0 UV-I 5 W/m 13,1 C 11,0 C 25,7 km/h (4 Bft) 94,00 %
03.07.2017 05:24 14,6 C 20,6 C 90 % 1019,9 hPa 0,0 l/m 9,1 km/h (2 Bft) W 260 0 min 0,000 mm 0,0 UV-I 5 W/m 13,0 C 13,1 C 17,7 km/h (3 Bft) 93,18 %
03.07.2017 05:26 14,6 C 20,6 C 90 % 1020,0 hPa 0,0 l/m 4,9 km/h (1 Bft) W-SW 257 0 min 0,000 mm 0,0 UV-I 5 W/m 13,0 C 14,6 C 11,3 km/h (2 Bft) 95,74 %
03.07.2017 05:28 14,6 C 20,6 C 91 % 1020,0 hPa 0,2 l/m 3,6 km/h (1 Bft) W 269 0 min 0,000 mm 0,0 UV-I 5 W/m 13,1 C 14,6 C 9,7 km/h (2 Bft) 94,34 %
03.07.2017 05:30 14,5 C 20,6 C 91 % 1020,0 hPa 0,0 l/m 3,5 km/h (1 Bft) W-NW 285 0 min 0,000 mm 0,0 UV-I 5 W/m 13,0 C 14,5 C 6,4 km/h (2 Bft) 90,91 %
03.07.2017 05:32 14,4 C 20,6 C 92 % 1020,0 hPa 0,0 l/m 1,7 km/h (1 Bft) W-NW 300 0 min 0,000 mm 0,0 UV-I 5 W/m 13,1 C 14,4 C 4,8 km/h (1 Bft) 96,00 %
03.07.2017 05:34 14,4 C 20,6 C 92 % 1020,0 hPa 0,0 l/m 2,8 km/h (1 Bft) W-NW 283 0 min 0,000 mm 0,0 UV-I 5 W/m 13,1 C 14,4 C 6,4 km/h (2 Bft) 93,62 %
03.07.2017 05:36 14,4 C 20,6 C 92 % 1020,0 hPa 0,0 l/m 3,0 km/h (1 Bft) W-NW 283 0 min 0,000 mm 0,0 UV-I 5 W/m 13,1 C 14,4 C 4,8 km/h (1 Bft) 95,12 %
03.07.2017 05:38 14,4 C 20,6 C 92 % 1020,0 hPa 0,0 l/m 5,9 km/h (2 Bft) W-SW 253 0 min 0,000 mm 0,0 UV-I 5 W/m 13,1 C 14,4 C 9,7 km/h (2 Bft) 92,45 %
03.07.2017 05:40 14,3 C 20,6 C 92 % 1020,0 hPa 0,0 l/m 6,9 km/h (2 Bft) W-SW 249 0 min 0,000 mm 0,0 UV-I 6 W/m 13,0 C 14,0 C 9,7 km/h (2 Bft) 95,74 %
03.07.2017 05:42 14,3 C 20,6 C 93 % 1020,0 hPa 0,0 l/m 6,3 km/h (2 Bft) W 267 0 min 0,000 mm 0,0 UV-I 7 W/m 13,2 C 14,3 C 9,7 km/h (2 Bft) 93,62 %
03.07.2017 05:44 14,3 C 20,6 C 93 % 1020,1 hPa 0,0 l/m 3,9 km/h (1 Bft) W-SW 250 0 min 0,000 mm 0,0 UV-I 5 W/m 13,2 C 14,3 C 6,4 km/h (2 Bft) 97,37 %
03.07.2017 05:46 14,3 C 20,6 C 93 % 1020,1 hPa 0,0 l/m 2,8 km/h (1 Bft) W 276 0 min 0,000 mm 0,0 UV-I 5 W/m 13,2 C 14,3 C 6,4 km/h (2 Bft) 92,86 %
03.07.2017 05:48 14,3 C 20,6 C 93 % 1020,1 hPa 0,0 l/m 6,3 km/h (2 Bft) W 260 0 min 0,000 mm 0,0 UV-I 5 W/m 13,2 C 14,3 C 11,3 km/h (2 Bft) 97,87 %
03.07.2017 05:50 14,3 C 20,6 C 93 % 1020,1 hPa 0,0 l/m 10,0 km/h (2 Bft) SW 227 0 min 0,000 mm 0,0 UV-I 5 W/m 13,2 C 12,3 C 16,1 km/h (3 Bft) 93,62 %
03.07.2017 05:52 14,2 C 20,6 C 93 % 1020,1 hPa 0,0 l/m 12,6 km/h (3 Bft) W-SW 244 0 min 0,000 mm 0,0 UV-I 5 W/m 13,1 C 11,1 C 20,9 km/h (4 Bft) 95,74 %
03.07.2017 05:54 14,2 C 20,6 C 93 % 1020,2 hPa 0,0 l/m 8,9 km/h (2 Bft) SW 226 0 min 0,000 mm 0,0 UV-I 6 W/m 13,1 C 12,8 C 14,5 km/h (3 Bft) 94,44 %
03.07.2017 05:56 14,2 C 20,6 C 93 % 1020,2 hPa 0,0 l/m 9,6 km/h (2 Bft) W-SW 251 0 min 0,000 mm 0,0 UV-I 7 W/m 13,1 C 12,4 C 12,9 km/h (3 Bft) 98,11 %
03.07.2017 05:58 14,2 C 20,6 C 93 % 1020,3 hPa 0,0 l/m 6,3 km/h (2 Bft) W-SW 246 0 min 0,000 mm 0,0 UV-I 7 W/m 13,1 C 14,2 C 12,9 km/h (3 Bft) 92,00 %
03.07.2017 06:00 14,3 C 20,6 C 93 % 1020,2 hPa 0,0 l/m 5,0 km/h (1 Bft) W 262 0 min 0,025 mm 0,0 UV-I 6 W/m 13,2 C 14,3 C 9,7 km/h (2 Bft) 97,37 %
03.07.2017 06:02 14,2 C 20,6 C 93 % 1020,2 hPa 0,0 l/m 5,5 km/h (1 Bft) W-SW 242 0 min 0,000 mm 0,0 UV-I 5 W/m 13,1 C 14,2 C 9,7 km/h (2 Bft) 96,23 %
03.07.2017 06:04 14,3 C 20,6 C 93 % 1020,3 hPa 0,0 l/m 6,6 km/h (2 Bft) W-SW 245 0 min 0,000 mm 0,0 UV-I 7 W/m 13,2 C 14,2 C 11,3 km/h (2 Bft) 96,00 %
03.07.2017 06:06 14,3 C 20,6 C 93 % 1020,3 hPa 0,0 l/m 4,8 km/h (1 Bft) W-SW 254 0 min 0,000 mm 0,0 UV-I 7 W/m 13,2 C 14,3 C 8,0 km/h (2 Bft) 93,62 %
03.07.2017 06:08 14,3 C 20,6 C 93 % 1020,3 hPa 0,0 l/m 5,1 km/h (1 Bft) W-SW 254 0 min 0,000 mm 0,0 UV-I 8 W/m 13,2 C 14,3 C 6,4 km/h (2 Bft) 100,00 %
03.07.2017 06:10 14,3 C 20,6 C 93 % 1020,3 hPa 0,0 l/m 5,3 km/h (1 Bft) SW 220 0 min 0,000 mm 0,0 UV-I 10 W/m 13,2 C 14,3 C 8,0 km/h (2 Bft) 95,45 %
03.07.2017 06:12 14,3 C 20,6 C 93 % 1020,2 hPa 0,0 l/m 4,5 km/h (1 Bft) SW 230 0 min 0,000 mm 0,0 UV-I 11 W/m 13,2 C 14,3 C 6,4 km/h (2 Bft) 94,34 %
03.07.2017 06:14 14,3 C 20,6 C 93 % 1020,3 hPa 0,0 l/m 3,8 km/h (1 Bft) W-SW 238 0 min 0,000 mm 0,0 UV-I 9 W/m 13,2 C 14,3 C 6,4 km/h (2 Bft) 96,23 %
03.07.2017 06:16 14,3 C 20,6 C 93 % 1020,3 hPa 0,0 l/m 3,0 km/h (1 Bft) W-SW 243 0 min 0,000 mm 0,0 UV-I 9 W/m 13,2 C 14,3 C 4,8 km/h (1 Bft) 92,68 %
03.07.2017 06:18 14,3 C 20,6 C 93 % 1020,3 hPa 0,0 l/m 5,8 km/h (2 Bft) W 262 0 min 0,000 mm 0,0 UV-I 11 W/m 13,2 C 14,3 C 8,0 km/h (2 Bft) 100,00 %
03.07.2017 06:20 14,3 C 20,6 C 93 % 1020,3 hPa 0,2 l/m 6,4 km/h (2 Bft) W 269 0 min 0,000 mm 0,0 UV-I 11 W/m 13,2 C 14,3 C 9,7 km/h (2 Bft) 95,12 %
03.07.2017 06:22 14,3 C 20,6 C 93 % 1020,3 hPa 0,0 l/m 7,0 km/h (2 Bft) W-SW 252 0 min 0,000 mm 0,0 UV-I 11 W/m 13,2 C 13,9 C 11,3 km/h (2 Bft) 97,87 %
03.07.2017 06:24 14,3 C 20,6 C 93 % 1020,3 hPa 0,0 l/m 6,6 km/h (2 Bft) W 259 0 min 0,000 mm 0,0 UV-I 11 W/m 13,2 C 14,2 C 9,7 km/h (2 Bft) 97,83 %
03.07.2017 06:26 14,2 C 20,6 C 93 % 1020,3 hPa 0,2 l/m 6,7 km/h (2 Bft) SW 227 0 min 0,000 mm 0,0 UV-I 11 W/m 13,1 C 14,0 C 12,9 km/h (3 Bft) 97,87 %
03.07.2017 06:28 14,2 C 20,6 C 93 % 1020,4 hPa 0,0 l/m 6,5 km/h (2 Bft) W-SW 251 0 min 0,000 mm 0,0 UV-I 11 W/m 13,1 C 14,2 C 12,9 km/h (3 Bft) 98,00 %
03.07.2017 06:30 14,2 C 20,6 C 93 % 1020,3 hPa 0,0 l/m 7,7 km/h (2 Bft) W-SW 257 0 min 0,000 mm 0,0 UV-I 11 W/m 13,1 C 13,4 C 12,9 km/h (3 Bft) 100,00 %
03.07.2017 06:32 14,2 C 20,6 C 94 % 1020,4 hPa 0,0 l/m 6,0 km/h (2 Bft) W-SW 253 0 min 0,000 mm 0,0 UV-I 12 W/m 13,2 C 14,2 C 8,0 km/h (2 Bft) 100,00 %
03.07.2017 06:34 14,2 C 20,6 C 94 % 1020,4 hPa 0,0 l/m 5,5 km/h (1 Bft) W 277 0 min 0,000 mm 0,0 UV-I 14 W/m 13,2 C 14,2 C 11,3 km/h (2 Bft) 100,00 %
03.07.2017 06:36 14,2 C 20,6 C 94 % 1020,3 hPa 0,0 l/m 3,5 km/h (1 Bft) W-NW 301 0 min 0,000 mm 0,0 UV-I 19 W/m 13,2 C 14,2 C 11,3 km/h (2 Bft) 98,21 %
03.07.2017 06:38 14,2 C 20,6 C 94 % 1020,4 hPa 0,0 l/m 4,6 km/h (1 Bft) W-SW 254 0 min 0,000 mm 0,0 UV-I 25 W/m 13,2 C 14,2 C 9,7 km/h (2 Bft) 100,00 %
03.07.2017 06:40 14,2 C 20,6 C 94 % 1020,4 hPa 0,0 l/m 4,7 km/h (1 Bft) W 275 0 min 0,000 mm 0,0 UV-I 29 W/m 13,2 C 14,2 C 6,4 km/h (2 Bft) 97,37 %
03.07.2017 06:42 14,2 C 20,6 C 94 % 1020,3 hPa 0,0 l/m 4,2 km/h (1 Bft) W-SW 237 0 min 0,000 mm 0,0 UV-I 39 W/m 13,2 C 14,2 C 8,0 km/h (2 Bft) 100,00 %
03.07.2017 06:44 14,2 C 20,6 C 94 % 1020,4 hPa 0,0 l/m 6,4 km/h (2 Bft) W 274 0 min 0,000 mm 0,0 UV-I 49 W/m 13,2 C 14,2 C 12,9 km/h (3 Bft) 100,00 %
03.07.2017 06:46 14,2 C 20,6 C 94 % 1020,4 hPa 0,0 l/m 7,1 km/h (2 Bft) W-SW 254 0 min 0,000 mm 0,0 UV-I 46 W/m 13,2 C 13,8 C 12,9 km/h (3 Bft) 98,00 %
03.07.2017 06:48 14,2 C 20,6 C 94 % 1020,5 hPa 0,0 l/m 7,3 km/h (2 Bft) W-SW 251 0 min 0,000 mm 0,0 UV-I 41 W/m 13,2 C 13,7 C 11,3 km/h (2 Bft) 95,12 %
03.07.2017 06:50 14,2 C 20,6 C 94 % 1020,5 hPa 0,0 l/m 6,0 km/h (2 Bft) W 263 0 min 0,000 mm 0,0 UV-I 34 W/m 13,2 C 14,2 C 11,3 km/h (2 Bft) 97,87 %
03.07.2017 06:52 14,2 C 20,6 C 94 % 1020,5 hPa 0,0 l/m 5,7 km/h (1 Bft) W 264 0 min 0,000 mm 0,0 UV-I 32 W/m 13,2 C 14,2 C 11,3 km/h (2 Bft) 98,00 %
03.07.2017 06:54 14,2 C 20,6 C 94 % 1020,5 hPa 0,0 l/m 5,3 km/h (1 Bft) W-NW 286 0 min 0,000 mm 0,0 UV-I 35 W/m 13,2 C 14,2 C 9,7 km/h (2 Bft) 96,00 %
03.07.2017 06:56 14,3 C 20,6 C 94 % 1020,5 hPa 0,0 l/m 5,2 km/h (1 Bft) SW 236 0 min 0,000 mm 0,0 UV-I 38 W/m 13,3 C 14,3 C 12,9 km/h (3 Bft) 97,56 %
03.07.2017 06:58 14,3 C 20,6 C 94 % 1020,5 hPa 0,0 l/m 7,1 km/h (2 Bft) W-SW 248 0 min 0,000 mm 0,0 UV-I 47 W/m 13,3 C 13,9 C 9,7 km/h (2 Bft) 100,00 %
03.07.2017 07:00 14,3 C 20,6 C 94 % 1020,5 hPa 0,0 l/m 8,9 km/h (2 Bft) W 262 0 min 0,026 mm 0,0 UV-I 54 W/m 13,3 C 12,9 C 12,9 km/h (3 Bft) 100,00 %
03.07.2017 07:02 14,3 C 20,6 C 94 % 1020,5 hPa 0,0 l/m 8,6 km/h (2 Bft) W-SW 246 0 min 0,000 mm 0,0 UV-I 58 W/m 13,3 C 13,0 C 12,9 km/h (3 Bft) 97,87 %
03.07.2017 07:04 14,3 C 20,6 C 94 % 1020,5 hPa 0,0 l/m 8,2 km/h (2 Bft) W-SW 253 0 min 0,000 mm 0,0 UV-I 62 W/m 13,3 C 13,3 C 12,9 km/h (3 Bft) 98,00 %
03.07.2017 07:06 14,3 C 20,6 C 94 % 1020,5 hPa 0,0 l/m 7,1 km/h (2 Bft) W-SW 246 0 min 0,000 mm 0,0 UV-I 64 W/m 13,3 C 13,9 C 14,5 km/h (3 Bft) 100,00 %
03.07.2017 07:08 14,3 C 20,6 C 94 % 1020,5 hPa 0,0 l/m 8,3 km/h (2 Bft) W-SW 250 0 min 0,000 mm 0,0 UV-I 67 W/m 13,3 C 13,2 C 12,9 km/h (3 Bft) 97,87 %
03.07.2017 07:10 14,4 C 20,6 C 94 % 1020,6 hPa 0,0 l/m 10,9 km/h (2 Bft) W-SW 255 0 min 0,000 mm 0,0 UV-I 74 W/m 13,4 C 12,0 C 14,5 km/h (3 Bft) 100,00 %
03.07.2017 07:12 14,4 C 20,6 C 94 % 1020,5 hPa 0,0 l/m 7,8 km/h (2 Bft) SW 225 0 min 0,000 mm 0,0 UV-I 77 W/m 13,4 C 13,6 C 12,9 km/h (3 Bft) 94,34 %
03.07.2017 07:14 14,4 C 20,6 C 94 % 1020,6 hPa 0,0 l/m 8,8 km/h (2 Bft) W-SW 242 0 min 0,000 mm 0,0 UV-I 77 W/m 13,4 C 13,0 C 12,9 km/h (3 Bft) 97,44 %
03.07.2017 07:16 14,4 C 20,6 C 94 % 1020,6 hPa 0,0 l/m 9,0 km/h (2 Bft) W-SW 249 0 min 0,000 mm 0,0 UV-I 77 W/m 13,4 C 12,9 C 12,9 km/h (3 Bft) 93,18 %
03.07.2017 07:18 14,5 C 20,6 C 94 % 1020,6 hPa 0,0 l/m 8,1 km/h (2 Bft) W-SW 250 0 min 0,000 mm 0,0 UV-I 77 W/m 13,5 C 13,5 C 12,9 km/h (3 Bft) 94,00 %
03.07.2017 07:20 14,6 C 20,6 C 94 % 1020,6 hPa 0,0 l/m 6,6 km/h (2 Bft) W 277 0 min 0,000 mm 0,0 UV-I 78 W/m 13,6 C 14,5 C 12,9 km/h (3 Bft) 96,00 %
03.07.2017 07:22 14,6 C 20,6 C 94 % 1020,6 hPa 0,0 l/m 7,7 km/h (2 Bft) W-SW 252 0 min 0,000 mm 0,0 UV-I 80 W/m 13,6 C 13,8 C 11,3 km/h (2 Bft) 96,55 %
03.07.2017 07:24 14,6 C 20,6 C 94 % 1020,7 hPa 0,0 l/m 8,4 km/h (2 Bft) W 263 0 min 0,000 mm 0,0 UV-I 84 W/m 13,6 C 13,5 C 12,9 km/h (3 Bft) 94,12 %
03.07.2017 07:26 14,7 C 20,6 C 93 % 1020,7 hPa 0,0 l/m 6,2 km/h (2 Bft) W 269 0 min 0,000 mm 0,0 UV-I 92 W/m 13,6 C 14,7 C 14,5 km/h (3 Bft) 97,56 %
03.07.2017 07:28 14,7 C 20,6 C 93 % 1020,7 hPa 0,0 l/m 6,2 km/h (2 Bft) W-SW 255 0 min 0,000 mm 0,0 UV-I 95 W/m 13,6 C 14,7 C 11,3 km/h (2 Bft) 97,73 %
03.07.2017 07:30 14,7 C 20,6 C 93 % 1020,8 hPa 0,0 l/m 5,4 km/h (1 Bft) W 271 0 min 0,000 mm 0,0 UV-I 92 W/m 13,6 C 14,7 C 11,3 km/h (2 Bft) 96,23 %
03.07.2017 07:32 14,7 C 20,6 C 93 % 1020,7 hPa 0,0 l/m 6,1 km/h (2 Bft) W 261 0 min 0,000 mm 0,0 UV-I 98 W/m 13,6 C 14,7 C 11,3 km/h (2 Bft) 90,00 %
03.07.2017 07:34 14,7 C 20,6 C 93 % 1020,7 hPa 0,0 l/m 7,7 km/h (2 Bft) W 259 0 min 0,000 mm 0,0 UV-I 105 W/m 13,6 C 14,0 C 11,3 km/h (2 Bft) 92,11 %
03.07.2017 07:36 14,7 C 20,6 C 93 % 1020,7 hPa 0,0 l/m 6,3 km/h (2 Bft) W 271 0 min 0,000 mm 0,0 UV-I 117 W/m 13,6 C 14,7 C 12,9 km/h (3 Bft) 96,23 %
03.07.2017 07:38 14,8 C 20,6 C 93 % 1020,7 hPa 0,0 l/m 3,0 km/h (1 Bft) W-NW 288 0 min 0,000 mm 0,0 UV-I 141 W/m 13,7 C 14,8 C 9,7 km/h (2 Bft) 93,62 %
03.07.2017 07:40 14,8 C 20,6 C 93 % 1020,8 hPa 0,0 l/m 8,8 km/h (2 Bft) W-SW 258 0 min 0,000 mm 0,0 UV-I 169 W/m 13,7 C 13,5 C 17,7 km/h (3 Bft) 95,12 %
03.07.2017 07:42 14,9 C 20,6 C 92 % 1020,8 hPa 0,0 l/m 7,4 km/h (2 Bft) SW 234 0 min 0,000 mm 0,5 UV-I 193 W/m 13,6 C 14,3 C 12,9 km/h (3 Bft) 92,45 %
03.07.2017 07:44 15,0 C 20,6 C 93 % 1020,8 hPa 0,0 l/m 5,8 km/h (2 Bft) W 279 0 min 0,000 mm 0,5 UV-I 201 W/m 13,9 C 15,0 C 12,9 km/h (3 Bft) 87,80 %
03.07.2017 07:46 15,1 C 20,6 C 92 % 1020,9 hPa 0,0 l/m 4,8 km/h (1 Bft) W 281 0 min 0,000 mm 0,5 UV-I 206 W/m 13,8 C 15,1 C 9,7 km/h (2 Bft) 96,23 %
03.07.2017 07:48 15,1 C 20,6 C 92 % 1020,9 hPa 0,0 l/m 7,2 km/h (2 Bft) W-SW 252 0 min 0,000 mm 0,5 UV-I 210 W/m 13,8 C 14,6 C 11,3 km/h (2 Bft) 96,00 %
03.07.2017 07:50 15,2 C 20,6 C 92 % 1020,9 hPa 0,0 l/m 2,4 km/h (1 Bft) W-SW 254 0 min 0,000 mm 0,6 UV-I 213 W/m 13,9 C 15,2 C 8,0 km/h (2 Bft) 100,00 %
03.07.2017 07:52 15,3 C 20,6 C 92 % 1020,9 hPa 0,0 l/m 4,3 km/h (1 Bft) SW 234 0 min 0,000 mm 0,6 UV-I 205 W/m 14,0 C 15,3 C 9,7 km/h (2 Bft) 94,44 %
03.07.2017 07:54 15,3 C 20,6 C 92 % 1020,9 hPa 0,0 l/m 4,0 km/h (1 Bft) SW 234 2 min 0,000 mm 0,6 UV-I 224 W/m 14,0 C 15,3 C 6,4 km/h (2 Bft) 98,00 %
03.07.2017 07:56 15,3 C 20,6 C 91 % 1020,9 hPa 0,0 l/m 5,4 km/h (1 Bft) W 277 2 min 0,000 mm 0,6 UV-I 226 W/m 13,8 C 15,3 C 11,3 km/h (2 Bft) 96,23 %
03.07.2017 07:58 15,4 C 20,6 C 91 % 1020,9 hPa 0,0 l/m 5,5 km/h (1 Bft) W-NW 290 0 min 0,000 mm 0,6 UV-I 199 W/m 13,9 C 15,4 C 9,7 km/h (2 Bft) 95,12 %
03.07.2017 08:00 15,4 C 20,6 C 91 % 1020,9 hPa 0,0 l/m 6,3 km/h (2 Bft) W 265 0 min 0,076 mm 0,6 UV-I 206 W/m 13,9 C 15,4 C 12,9 km/h (3 Bft) 92,00 %
03.07.2017 08:02 15,5 C 20,6 C 91 % 1021,0 hPa 0,0 l/m 6,9 km/h (2 Bft) W 267 0 min 0,000 mm 0,6 UV-I 213 W/m 14,0 C 15,2 C 12,9 km/h (3 Bft) 97,56 %
03.07.2017 08:04 15,6 C 20,6 C 91 % 1021,0 hPa 0,0 l/m 4,9 km/h (1 Bft) W-SW 254 0 min 0,000 mm 0,6 UV-I 211 W/m 14,1 C 15,6 C 9,7 km/h (2 Bft) 96,00 %
03.07.2017 08:06 15,6 C 20,6 C 90 % 1021,1 hPa 0,0 l/m 4,6 km/h (1 Bft) W-SW 248 0 min 0,000 mm 0,6 UV-I 225 W/m 14,0 C 15,6 C 14,5 km/h (3 Bft) 98,00 %
03.07.2017 08:08 15,6 C 20,6 C 90 % 1021,1 hPa 0,0 l/m 6,9 km/h (2 Bft) SW 235 0 min 0,000 mm 0,6 UV-I 181 W/m 14,0 C 15,3 C 12,9 km/h (3 Bft) 100,00 %
03.07.2017 08:10 15,6 C 20,6 C 90 % 1021,0 hPa 0,0 l/m 5,0 km/h (1 Bft) SW 233 0 min 0,000 mm 0,6 UV-I 174 W/m 14,0 C 15,6 C 11,3 km/h (2 Bft) 100,00 %
03.07.2017 08:12 15,6 C 20,6 C 90 % 1021,1 hPa 0,0 l/m 7,3 km/h (2 Bft) W-SW 238 0 min 0,000 mm 0,6 UV-I 185 W/m 14,0 C 15,1 C 11,3 km/h (2 Bft) 97,37 %
03.07.2017 08:14 15,6 C 20,6 C 90 % 1021,0 hPa 0,0 l/m 3,9 km/h (1 Bft) W-SW 252 0 min 0,000 mm 0,7 UV-I 225 W/m 14,0 C 15,6 C 8,0 km/h (2 Bft) 100,00 %
03.07.2017 08:16 15,7 C 20,6 C 91 % 1021,0 hPa 0,0 l/m 5,2 km/h (1 Bft) W-SW 251 2 min 0,000 mm 0,8 UV-I 269 W/m 14,2 C 15,7 C 14,5 km/h (3 Bft) 97,87 %
03.07.2017 08:18 15,7 C 20,6 C 90 % 1021,1 hPa 0,0 l/m 7,0 km/h (2 Bft) W 262 0 min 0,000 mm 0,8 UV-I 241 W/m 14,1 C 15,4 C 16,1 km/h (3 Bft) 97,87 %
03.07.2017 08:20 15,7 C 20,6 C 89 % 1021,1 hPa 0,0 l/m 7,2 km/h (2 Bft) S-SW 200 0 min 0,000 mm 0,7 UV-I 199 W/m 13,9 C 15,3 C 12,9 km/h (3 Bft) 100,00 %
03.07.2017 08:22 15,7 C 20,6 C 89 % 1021,1 hPa 0,0 l/m 5,6 km/h (1 Bft) W-SW 258 0 min 0,000 mm 0,8 UV-I 210 W/m 13,9 C 15,7 C 12,9 km/h (3 Bft) 98,00 %
03.07.2017 08:24 15,7 C 20,6 C 89 % 1021,1 hPa 0,0 l/m 8,3 km/h (2 Bft) W 267 0 min 0,000 mm 0,9 UV-I 202 W/m 13,9 C 14,7 C 17,7 km/h (3 Bft) 100,00 %
03.07.2017 08:26 15,8 C 20,6 C 89 % 1021,2 hPa 0,0 l/m 5,6 km/h (1 Bft) W 272 0 min 0,000 mm 0,9 UV-I 204 W/m 14,0 C 15,8 C 11,3 km/h (2 Bft) 97,37 %
03.07.2017 08:28 15,8 C 20,6 C 90 % 1021,2 hPa 0,0 l/m 5,9 km/h (2 Bft) W 259 0 min 0,000 mm 1,0 UV-I 211 W/m 14,2 C 15,8 C 12,9 km/h (3 Bft) 100,00 %
03.07.2017 08:30 15,8 C 20,6 C 89 % 1021,2 hPa 0,0 l/m 4,9 km/h (1 Bft) W-SW 242 0 min 0,000 mm 1,0 UV-I 215 W/m 14,0 C 15,8 C 12,9 km/h (3 Bft) 95,74 %
03.07.2017 08:32 15,8 C 20,6 C 89 % 1021,2 hPa 0,0 l/m 5,4 km/h (1 Bft) W-SW 253 0 min 0,000 mm 0,9 UV-I 215 W/m 14,0 C 15,8 C 14,5 km/h (3 Bft) 100,00 %
03.07.2017 08:34 15,9 C 20,6 C 89 % 1021,3 hPa 0,0 l/m 7,1 km/h (2 Bft) W 260 0 min 0,000 mm 1,0 UV-I 246 W/m 14,1 C 15,5 C 14,5 km/h (3 Bft) 97,62 %
03.07.2017 08:36 15,9 C 20,6 C 88 % 1021,3 hPa 0,0 l/m 7,7 km/h (2 Bft) NW 306 0 min 0,000 mm 1,0 UV-I 272 W/m 13,9 C 15,2 C 14,5 km/h (3 Bft) 100,00 %
03.07.2017 08:38 16,0 C 20,6 C 89 % 1021,3 hPa 0,0 l/m 4,6 km/h (1 Bft) S-SW 209 2 min 0,000 mm 1,1 UV-I 331 W/m 14,2 C 16,0 C 9,7 km/h (2 Bft) 97,37 %
03.07.2017 08:40 16,1 C 20,6 C 89 % 1021,3 hPa 0,0 l/m 6,6 km/h (2 Bft) W-SW 258 2 min 0,000 mm 1,0 UV-I 302 W/m 14,3 C 16,0 C 11,3 km/h (2 Bft) 98,00 %
03.07.2017 08:42 16,2 C 20,6 C 88 % 1021,3 hPa 0,0 l/m 5,6 km/h (1 Bft) W-SW 255 2 min 0,000 mm 1,2 UV-I 350 W/m 14,2 C 16,2 C 11,3 km/h (2 Bft) 95,12 %
03.07.2017 08:44 16,3 C 20,6 C 89 % 1021,3 hPa 0,0 l/m 4,6 km/h (1 Bft) W-SW 240 2 min 0,000 mm 1,2 UV-I 371 W/m 14,5 C 16,3 C 11,3 km/h (2 Bft) 98,11 %
03.07.2017 08:46 16,3 C 20,6 C 88 % 1021,2 hPa 0,0 l/m 2,3 km/h (1 Bft) SW 228 0 min 0,000 mm 1,1 UV-I 278 W/m 14,3 C 16,3 C 4,8 km/h (1 Bft) 100,00 %
03.07.2017 08:48 16,3 C 20,6 C 87 % 1021,2 hPa 0,0 l/m 5,2 km/h (1 Bft) SW 235 0 min 0,000 mm 1,2 UV-I 253 W/m 14,1 C 16,3 C 9,7 km/h (2 Bft) 97,37 %
03.07.2017 08:50 16,3 C 20,6 C 88 % 1021,2 hPa 0,0 l/m 7,7 km/h (2 Bft) W-SW 242 2 min 0,000 mm 1,4 UV-I 316 W/m 14,3 C 15,6 C 12,9 km/h (3 Bft) 100,00 %
03.07.2017 08:52 16,4 C 20,6 C 88 % 1021,2 hPa 0,0 l/m 4,4 km/h (1 Bft) W-NW 295 2 min 0,000 mm 1,6 UV-I 355 W/m 14,4 C 16,4 C 12,9 km/h (3 Bft) 97,14 %
03.07.2017 08:54 16,5 C 20,6 C 88 % 1021,3 hPa 0,0 l/m 5,5 km/h (1 Bft) W 270 2 min 0,000 mm 1,8 UV-I 454 W/m 14,5 C 16,5 C 11,3 km/h (2 Bft) 100,00 %
03.07.2017 08:56 16,7 C 20,6 C 87 % 1021,2 hPa 0,0 l/m 6,2 km/h (2 Bft) W-NW 296 2 min 0,000 mm 1,7 UV-I 529 W/m 14,5 C 16,7 C 12,9 km/h (3 Bft) 97,37 %
03.07.2017 08:58 16,7 C 20,6 C 86 % 1021,3 hPa 0,0 l/m 6,4 km/h (2 Bft) W-NW 286 2 min 0,000 mm 1,8 UV-I 501 W/m 14,3 C 16,7 C 16,1 km/h (3 Bft) 94,64 %
03.07.2017 09:00 16,8 C 20,6 C 86 % 1021,3 hPa 0,0 l/m 8,4 km/h (2 Bft) W-NW 303 2 min 0,000 mm 1,5 UV-I 424 W/m 14,4 C 15,8 C 14,5 km/h (3 Bft) 100,00 %
03.07.2017 09:02 16,8 C 20,6 C 85 % 1021,3 hPa 0,0 l/m 9,2 km/h (2 Bft) W-SW 249 2 min 0,152 mm 1,2 UV-I 355 W/m 14,3 C 15,4 C 14,5 km/h (3 Bft) 96,67 %
03.07.2017 09:04 16,8 C 20,6 C 85 % 1021,3 hPa 0,0 l/m 3,1 km/h (1 Bft) W-SW 254 0 min 0,000 mm 0,9 UV-I 234 W/m 14,3 C 16,8 C 12,9 km/h (3 Bft) 100,00 %
03.07.2017 09:06 16,7 C 20,6 C 85 % 1021,3 hPa 0,0 l/m 5,9 km/h (2 Bft) SW 223 0 min 0,000 mm 0,9 UV-I 202 W/m 14,2 C 16,7 C 12,9 km/h (3 Bft) 97,73 %
03.07.2017 09:08 16,6 C 20,6 C 84 % 1021,3 hPa 0,0 l/m 4,1 km/h (1 Bft) W 269 0 min 0,000 mm 0,9 UV-I 204 W/m 13,9 C 16,6 C 11,3 km/h (2 Bft) 96,00 %
03.07.2017 09:10 16,5 C 20,6 C 85 % 1021,3 hPa 0,0 l/m 2,7 km/h (1 Bft) S 190 0 min 0,000 mm 1,0 UV-I 208 W/m 14,0 C 16,5 C 8,0 km/h (2 Bft) 100,00 %
03.07.2017 09:12 16,5 C 20,6 C 86 % 1021,2 hPa 0,0 l/m 4,0 km/h (1 Bft) W 276 0 min 0,000 mm 1,1 UV-I 218 W/m 14,1 C 16,5 C 8,0 km/h (2 Bft) 94,00 %
03.07.2017 09:14 16,4 C 20,6 C 86 % 1021,3 hPa 0,0 l/m 4,1 km/h (1 Bft) W-NW 290 0 min 0,000 mm 1,3 UV-I 248 W/m 14,1 C 16,4 C 9,7 km/h (2 Bft) 91,67 %
03.07.2017 09:16 16,5 C 20,6 C 86 % 1021,2 hPa 0,0 l/m 3,8 km/h (1 Bft) W-NW 295 0 min 0,000 mm 1,6 UV-I 293 W/m 14,1 C 16,5 C 9,7 km/h (2 Bft) 95,74 %
03.07.2017 09:18 16,6 C 20,6 C 86 % 1021,3 hPa 0,0 l/m 2,7 km/h (1 Bft) W-NW 284 2 min 0,000 mm 1,9 UV-I 394 W/m 14,2 C 16,6 C 9,7 km/h (2 Bft) 91,49 %
03.07.2017 09:20 16,7 C 20,6 C 87 % 1021,3 hPa 0,0 l/m 2,2 km/h (1 Bft) W-NW 286 2 min 0,000 mm 2,1 UV-I 445 W/m 14,5 C 16,7 C 4,8 km/h (1 Bft) 94,00 %
03.07.2017 09:22 16,9 C 20,6 C 86 % 1021,2 hPa 0,0 l/m 0,9 km/h (0 Bft) W-NW 297 2 min 0,000 mm 1,9 UV-I 386 W/m 14,5 C 16,9 C 4,8 km/h (1 Bft) 94,34 %
03.07.2017 09:24 17,0 C 20,6 C 86 % 1021,2 hPa 0,0 l/m 1,6 km/h (1 Bft) W-NW 290 2 min 0,000 mm 2,1 UV-I 376 W/m 14,6 C 17,0 C 4,8 km/h (1 Bft) 94,29 %
03.07.2017 09:26 17,1 C 20,6 C 84 % 1021,2 hPa 0,0 l/m 2,6 km/h (1 Bft) W 279 2 min 0,000 mm 2,4 UV-I 527 W/m 14,4 C 17,1 C 8,0 km/h (2 Bft) 93,22 %
03.07.2017 09:28 17,3 C 20,6 C 86 % 1021,3 hPa 0,0 l/m 1,2 km/h (1 Bft) W-NW 286 2 min 0,000 mm 2,3 UV-I 573 W/m 14,9 C 17,3 C 4,8 km/h (1 Bft) 89,47 %
03.07.2017 09:30 17,5 C 20,6 C 84 % 1021,4 hPa 0,0 l/m 0,8 km/h (0 Bft) W 280 2 min 0,000 mm 2,1 UV-I 495 W/m 14,8 C 17,5 C 3,2 km/h (1 Bft) 95,74 %
03.07.2017 09:32 17,5 C 20,6 C 82 % 1021,4 hPa 0,0 l/m 6,5 km/h (2 Bft) NW 323 2 min 0,000 mm 2,2 UV-I 406 W/m 14,4 C 17,5 C 14,5 km/h (3 Bft) 96,00 %
03.07.2017 09:34 17,4 C 20,6 C 80 % 1021,4 hPa 0,0 l/m 6,3 km/h (2 Bft) W-SW 246 2 min 0,000 mm 2,2 UV-I 441 W/m 13,9 C 17,4 C 16,1 km/h (3 Bft) 94,34 %
03.07.2017 09:36 17,3 C 20,6 C 80 % 1021,4 hPa 0,0 l/m 5,2 km/h (1 Bft) W 278 2 min 0,000 mm 2,2 UV-I 504 W/m 13,8 C 17,3 C 16,1 km/h (3 Bft) 95,12 %
03.07.2017 09:38 17,3 C 20,6 C 82 % 1021,4 hPa 0,0 l/m 4,5 km/h (1 Bft) W-SW 256 2 min 0,000 mm 1,9 UV-I 402 W/m 14,2 C 17,3 C 8,0 km/h (2 Bft) 95,45 %
03.07.2017 09:40 17,4 C 20,6 C 81 % 1021,4 hPa 0,0 l/m 6,4 km/h (2 Bft) W 259 0 min 0,000 mm 1,9 UV-I 354 W/m 14,1 C 17,4 C 14,5 km/h (3 Bft) 92,45 %
03.07.2017 09:42 17,4 C 20,6 C 82 % 1021,5 hPa 0,0 l/m 10,4 km/h (2 Bft) W 261 0 min 0,000 mm 1,8 UV-I 338 W/m 14,3 C 15,6 C 17,7 km/h (3 Bft) 97,37 %
03.07.2017 09:44 17,3 C 20,6 C 81 % 1021,5 hPa 0,0 l/m 8,1 km/h (2 Bft) W-SW 238 0 min 0,000 mm 1,6 UV-I 304 W/m 14,0 C 16,5 C 16,1 km/h (3 Bft) 93,62 %
03.07.2017 09:46 17,2 C 20,6 C 81 % 1021,4 hPa 0,0 l/m 10,3 km/h (2 Bft) W 273 0 min 0,000 mm 1,6 UV-I 291 W/m 13,9 C 15,4 C 17,7 km/h (3 Bft) 96,00 %
03.07.2017 09:48 17,1 C 20,6 C 80 % 1021,4 hPa 0,0 l/m 8,4 km/h (2 Bft) W 276 0 min 0,000 mm 1,7 UV-I 310 W/m 13,6 C 16,1 C 16,1 km/h (3 Bft) 95,24 %
03.07.2017 09:50 17,0 C 20,6 C 80 % 1021,4 hPa 0,0 l/m 7,7 km/h (2 Bft) W-SW 240 0 min 0,000 mm 1,9 UV-I 330 W/m 13,5 C 16,3 C 14,5 km/h (3 Bft) 94,34 %
03.07.2017 09:52 17,1 C 20,6 C 81 % 1021,3 hPa 0,0 l/m 3,4 km/h (1 Bft) W 271 0 min 0,000 mm 2,0 UV-I 352 W/m 13,8 C 17,1 C 6,4 km/h (2 Bft) 95,12 %
03.07.2017 09:54 17,1 C 20,6 C 80 % 1021,3 hPa 0,0 l/m 3,7 km/h (1 Bft) W 262 0 min 0,000 mm 2,1 UV-I 366 W/m 13,6 C 17,1 C 9,7 km/h (2 Bft) 94,92 %
03.07.2017 09:56 17,2 C 20,6 C 80 % 1021,3 hPa 0,0 l/m 3,6 km/h (1 Bft) SW 227 2 min 0,000 mm 2,3 UV-I 387 W/m 13,7 C 17,2 C 6,4 km/h (2 Bft) 94,29 %
03.07.2017 09:58 17,3 C 20,6 C 81 % 1021,3 hPa 0,0 l/m 6,9 km/h (2 Bft) W-SW 256 2 min 0,000 mm 2,4 UV-I 408 W/m 14,0 C 17,1 C 12,9 km/h (3 Bft) 96,23 %
03.07.2017 10:00 17,4 C 20,6 C 81 % 1021,3 hPa 0,0 l/m 7,0 km/h (2 Bft) W 265 2 min 0,204 mm 2,5 UV-I 413 W/m 14,1 C 17,1 C 11,3 km/h (2 Bft) 97,87 %
03.07.2017 10:02 17,4 C 20,6 C 81 % 1021,3 hPa 0,0 l/m 8,2 km/h (2 Bft) W-SW 250 2 min 0,000 mm 2,6 UV-I 422 W/m 14,1 C 16,5 C 14,5 km/h (3 Bft) 95,74 %
03.07.2017 10:04 17,5 C 20,6 C 80 % 1021,4 hPa 0,0 l/m 9,4 km/h (2 Bft) W-SW 252 2 min 0,000 mm 2,7 UV-I 436 W/m 14,0 C 16,1 C 16,1 km/h (3 Bft) 94,00 %
03.07.2017 10:06 17,6 C 20,6 C 80 % 1021,3 hPa 0,0 l/m 13,7 km/h (3 Bft) SW 230 2 min 0,000 mm 2,6 UV-I 435 W/m 14,1 C 14,7 C 19,3 km/h (3 Bft) 95,12 %
03.07.2017 10:08 17,6 C 20,6 C 79 % 1021,4 hPa 0,0 l/m 5,9 km/h (2 Bft) W-SW 238 2 min 0,000 mm 2,7 UV-I 445 W/m 13,9 C 17,6 C 9,7 km/h (2 Bft) 96,23 %
03.07.2017 10:10 17,6 C 20,6 C 80 % 1021,4 hPa 0,0 l/m 9,1 km/h (2 Bft) W-SW 250 2 min 0,000 mm 2,7 UV-I 444 W/m 14,1 C 16,4 C 17,7 km/h (3 Bft) 97,56 %
03.07.2017 10:12 17,7 C 20,6 C 80 % 1021,4 hPa 0,0 l/m 15,4 km/h (3 Bft) W-SW 248 2 min 0,000 mm 2,9 UV-I 499 W/m 14,2 C 14,4 C 20,9 km/h (4 Bft) 96,23 %
03.07.2017 10:14 17,6 C 21,1 C 80 % 1021,4 hPa 0,0 l/m 10,2 km/h (2 Bft) W-SW 257 2 min 0,000 mm 3,1 UV-I 570 W/m 14,1 C 15,9 C 14,5 km/h (3 Bft) 95,74 %
03.07.2017 10:16 17,8 C 21,1 C 80 % 1021,4 hPa 0,0 l/m 8,7 km/h (2 Bft) W 271 2 min 0,000 mm 3,3 UV-I 584 W/m 14,3 C 16,7 C 12,9 km/h (3 Bft) 100,00 %
03.07.2017 10:18 17,9 C 21,1 C 80 % 1021,4 hPa 0,0 l/m 12,0 km/h (2 Bft) W-SW 243 2 min 0,000 mm 3,2 UV-I 566 W/m 14,4 C 15,6 C 19,3 km/h (3 Bft) 100,00 %
03.07.2017 10:20 17,9 C 20,6 C 78 % 1021,4 hPa 0,0 l/m 6,6 km/h (2 Bft) W-SW 246 2 min 0,000 mm 2,6 UV-I 513 W/m 14,0 C 17,8 C 16,1 km/h (3 Bft) 98,21 %
03.07.2017 10:22 17,9 C 20,6 C 79 % 1021,4 hPa 0,0 l/m 9,8 km/h (2 Bft) W 277 2 min 0,000 mm 3,1 UV-I 477 W/m 14,2 C 16,4 C 16,1 km/h (3 Bft) 100,00 %
03.07.2017 10:24 17,9 C 20,6 C 79 % 1021,4 hPa 0,0 l/m 7,5 km/h (2 Bft) W-NW 284 2 min 0,000 mm 3,1 UV-I 495 W/m 14,2 C 17,4 C 12,9 km/h (3 Bft) 97,78 %
03.07.2017 10:26 17,9 C 20,6 C 78 % 1021,3 hPa 0,0 l/m 4,1 km/h (1 Bft) W-NW 302 2 min 0,000 mm 3,0 UV-I 499 W/m 14,0 C 17,9 C 12,9 km/h (3 Bft) 98,00 %
03.07.2017 10:28 18,0 C 20,6 C 77 % 1021,4 hPa 0,0 l/m 3,8 km/h (1 Bft) W-SW 237 2 min 0,000 mm 3,1 UV-I 514 W/m 13,9 C 18,0 C 9,7 km/h (2 Bft) 100,00 %
03.07.2017 10:30 18,1 C 21,1 C 77 % 1021,4 hPa 0,0 l/m 5,1 km/h (1 Bft) SW 227 2 min 0,000 mm 3,1 UV-I 489 W/m 14,0 C 18,1 C 11,3 km/h (2 Bft) 92,45 %
03.07.2017 10:32 18,2 C 20,6 C 77 % 1021,3 hPa 0,0 l/m 3,6 km/h (1 Bft) W-SW 237 2 min 0,000 mm 3,5 UV-I 641 W/m 14,1 C 18,2 C 6,4 km/h (2 Bft) 100,00 %
03.07.2017 10:34 18,4 C 20,6 C 76 % 1021,3 hPa 0,0 l/m 2,7 km/h (1 Bft) W-SW 257 2 min 0,000 mm 2,4 UV-I 437 W/m 14,1 C 18,4 C 9,7 km/h (2 Bft) 97,37 %
03.07.2017 10:36 18,4 C 20,6 C 76 % 1021,3 hPa 0,0 l/m 10,4 km/h (2 Bft) W-SW 248 0 min 0,000 mm 2,3 UV-I 379 W/m 14,1 C 16,7 C 14,5 km/h (3 Bft) 100,00 %
03.07.2017 10:38 18,4 C 20,6 C 77 % 1021,4 hPa 0,0 l/m 6,8 km/h (2 Bft) W-SW 243 0 min 0,000 mm 2,3 UV-I 368 W/m 14,3 C 18,2 C 12,9 km/h (3 Bft) 96,00 %
03.07.2017 10:40 18,3 C 20,6 C 76 % 1021,4 hPa 0,0 l/m 7,9 km/h (2 Bft) W 265 0 min 0,000 mm 2,2 UV-I 341 W/m 14,0 C 17,6 C 17,7 km/h (3 Bft) 94,74 %
03.07.2017 10:42 18,2 C 20,6 C 74 % 1021,3 hPa 0,0 l/m 5,9 km/h (2 Bft) W-SW 250 0 min 0,000 mm 2,0 UV-I 325 W/m 13,5 C 18,2 C 14,5 km/h (3 Bft) 98,00 %
03.07.2017 10:44 18,2 C 20,6 C 76 % 1021,4 hPa 0,0 l/m 5,1 km/h (1 Bft) SW 215 0 min 0,000 mm 2,1 UV-I 330 W/m 13,9 C 18,2 C 9,7 km/h (2 Bft) 98,00 %
03.07.2017 10:46 18,2 C 20,6 C 77 % 1021,4 hPa 0,0 l/m 7,8 km/h (2 Bft) W-SW 241 0 min 0,000 mm 2,2 UV-I 323 W/m 14,1 C 17,6 C 12,9 km/h (3 Bft) 97,92 %
03.07.2017 10:48 18,2 C 20,6 C 76 % 1021,4 hPa 0,0 l/m 9,2 km/h (2 Bft) SW 219 0 min 0,000 mm 2,4 UV-I 348 W/m 13,9 C 17,0 C 16,1 km/h (3 Bft) 97,56 %
03.07.2017 10:50 18,3 C 20,6 C 76 % 1021,4 hPa 0,0 l/m 10,3 km/h (2 Bft) W-SW 251 0 min 0,000 mm 2,7 UV-I 382 W/m 14,0 C 16,7 C 17,7 km/h (3 Bft) 100,00 %
03.07.2017 10:52 18,3 C 20,6 C 76 % 1021,4 hPa 0,0 l/m 12,2 km/h (2 Bft) W 266 0 min 0,000 mm 3,0 UV-I 423 W/m 14,0 C 16,0 C 16,1 km/h (3 Bft) 100,00 %
03.07.2017 10:54 18,3 C 20,6 C 75 % 1021,3 hPa 0,0 l/m 7,2 km/h (2 Bft) W-SW 250 2 min 0,000 mm 3,3 UV-I 466 W/m 13,8 C 17,9 C 11,3 km/h (2 Bft) 100,00 %
03.07.2017 10:56 18,3 C 21,1 C 75 % 1021,4 hPa 0,0 l/m 10,5 km/h (2 Bft) SW 231 2 min 0,000 mm 3,3 UV-I 473 W/m 13,8 C 16,6 C 17,7 km/h (3 Bft) 97,37 %
03.07.2017 10:58 18,2 C 21,1 C 74 % 1021,4 hPa 0,0 l/m 6,8 km/h (2 Bft) W-SW 257 2 min 0,000 mm 3,5 UV-I 501 W/m 13,5 C 18,0 C 12,9 km/h (3 Bft) 98,00 %
03.07.2017 11:00 18,2 C 21,1 C 72 % 1021,4 hPa 0,0 l/m 9,6 km/h (2 Bft) SW 229 2 min 0,279 mm 3,7 UV-I 548 W/m 13,1 C 16,8 C 14,5 km/h (3 Bft) 98,11 %
03.07.2017 11:02 18,3 C 21,1 C 72 % 1021,4 hPa 0,0 l/m 6,8 km/h (2 Bft) SW 215 2 min 0,000 mm 3,5 UV-I 507 W/m 13,2 C 18,1 C 12,9 km/h (3 Bft) 100,00 %
03.07.2017 11:04 18,5 C 21,1 C 74 % 1021,4 hPa 0,0 l/m 8,0 km/h (2 Bft) W 267 2 min 0,000 mm 3,5 UV-I 519 W/m 13,8 C 17,8 C 17,7 km/h (3 Bft) 97,62 %
03.07.2017 11:06 18,6 C 21,1 C 74 % 1021,4 hPa 0,0 l/m 12,8 km/h (3 Bft) W 281 2 min 0,000 mm 3,5 UV-I 522 W/m 13,9 C 16,2 C 17,7 km/h (3 Bft) 100,00 %
03.07.2017 11:08 18,7 C 21,1 C 73 % 1021,4 hPa 0,0 l/m 10,7 km/h (2 Bft) W-SW 242 2 min 0,000 mm 3,3 UV-I 511 W/m 13,8 C 17,0 C 16,1 km/h (3 Bft) 100,00 %
03.07.2017 11:10 18,8 C 21,1 C 72 % 1021,4 hPa 0,0 l/m 13,0 km/h (3 Bft) W-SW 253 0 min 0,000 mm 2,8 UV-I 420 W/m 13,6 C 16,3 C 17,7 km/h (3 Bft) 94,87 %
03.07.2017 11:12 18,7 C 21,1 C 72 % 1021,3 hPa 0,0 l/m 11,8 km/h (2 Bft) W 264 0 min 0,000 mm 2,4 UV-I 353 W/m 13,5 C 16,6 C 20,9 km/h (4 Bft) 96,00 %
03.07.2017 11:14 18,7 C 21,1 C 70 % 1021,4 hPa 0,0 l/m 13,1 km/h (3 Bft) W-SW 251 0 min 0,000 mm 2,2 UV-I 320 W/m 13,1 C 16,2 C 20,9 km/h (4 Bft) 96,00 %
03.07.2017 11:16 18,6 C 21,1 C 71 % 1021,4 hPa 0,0 l/m 10,6 km/h (2 Bft) W-SW 249 0 min 0,000 mm 2,1 UV-I 306 W/m 13,2 C 16,9 C 16,1 km/h (3 Bft) 97,78 %
03.07.2017 11:18 18,4 C 21,1 C 71 % 1021,4 hPa 0,0 l/m 9,7 km/h (2 Bft) W-SW 244 0 min 0,000 mm 2,0 UV-I 294 W/m 13,0 C 17,0 C 16,1 km/h (3 Bft) 97,56 %
03.07.2017 11:20 18,3 C 21,1 C 72 % 1021,4 hPa 0,0 l/m 7,1 km/h (2 Bft) SW 233 0 min 0,000 mm 1,9 UV-I 271 W/m 13,2 C 18,0 C 12,9 km/h (3 Bft) 94,34 %
03.07.2017 11:22 18,3 C 21,1 C 72 % 1021,4 hPa 0,0 l/m 10,1 km/h (2 Bft) W 267 0 min 0,000 mm 1,8 UV-I 251 W/m 13,2 C 16,7 C 17,7 km/h (3 Bft) 94,34 %
03.07.2017 11:24 18,3 C 21,1 C 72 % 1021,4 hPa 0,0 l/m 7,2 km/h (2 Bft) W-SW 254 0 min 0,000 mm 1,5 UV-I 228 W/m 13,2 C 17,9 C 16,1 km/h (3 Bft) 97,73 %
03.07.2017 11:26 18,2 C 21,1 C 73 % 1021,4 hPa 0,0 l/m 7,8 km/h (2 Bft) SW 221 0 min 0,000 mm 1,4 UV-I 210 W/m 13,3 C 17,6 C 14,5 km/h (3 Bft) 93,62 %
03.07.2017 11:28 18,2 C 21,1 C 73 % 1021,4 hPa 0,0 l/m 5,6 km/h (1 Bft) W 267 0 min 0,000 mm 1,4 UV-I 204 W/m 13,3 C 18,2 C 11,3 km/h (2 Bft) 96,00 %
03.07.2017 11:30 18,3 C 21,1 C 74 % 1021,4 hPa 0,0 l/m 7,4 km/h (2 Bft) W-SW 240 0 min 0,000 mm 1,4 UV-I 205 W/m 13,6 C 17,8 C 14,5 km/h (3 Bft) 97,56 %
03.07.2017 11:32 18,3 C 21,1 C 74 % 1021,4 hPa 0,0 l/m 7,3 km/h (2 Bft) W 260 0 min 0,000 mm 1,4 UV-I 207 W/m 13,6 C 17,9 C 14,5 km/h (3 Bft) 96,00 %
03.07.2017 11:34 18,3 C 21,1 C 73 % 1021,4 hPa 0,0 l/m 12,2 km/h (2 Bft) W-SW 244 0 min 0,000 mm 1,4 UV-I 206 W/m 13,4 C 16,0 C 22,5 km/h (4 Bft) 97,56 %
03.07.2017 11:36 18,2 C 21,1 C 72 % 1021,4 hPa 0,0 l/m 12,8 km/h (3 Bft) W-SW 248 0 min 0,000 mm 1,4 UV-I 206 W/m 13,1 C 15,7 C 22,5 km/h (4 Bft) 94,64 %
03.07.2017 11:38 18,2 C 21,1 C 72 % 1021,4 hPa 0,0 l/m 11,2 km/h (2 Bft) W 273 0 min 0,000 mm 1,4 UV-I 208 W/m 13,1 C 16,2 C 19,3 km/h (3 Bft) 97,56 %
03.07.2017 11:40 18,1 C 21,1 C 72 % 1021,4 hPa 0,0 l/m 10,0 km/h (2 Bft) NW 304 0 min 0,000 mm 1,5 UV-I 221 W/m 13,0 C 16,5 C 17,7 km/h (3 Bft) 97,87 %
03.07.2017 11:42 18,1 C 21,1 C 72 % 1021,4 hPa 0,0 l/m 7,4 km/h (2 Bft) W-SW 244 0 min 0,000 mm 1,9 UV-I 258 W/m 13,0 C 17,6 C 12,9 km/h (3 Bft) 100,00 %
03.07.2017 11:44 18,2 C 21,1 C 74 % 1021,5 hPa 0,0 l/m 9,5 km/h (2 Bft) SW 229 0 min 0,000 mm 2,3 UV-I 317 W/m 13,5 C 16,8 C 16,1 km/h (3 Bft) 100,00 %
03.07.2017 11:46 18,3 C 21,1 C 73 % 1021,4 hPa 0,0 l/m 14,4 km/h (3 Bft) W-SW 248 0 min 0,000 mm 2,7 UV-I 381 W/m 13,4 C 15,4 C 17,7 km/h (3 Bft) 93,62 %
03.07.2017 11:48 18,3 C 21,1 C 73 % 1021,4 hPa 0,0 l/m 12,6 km/h (3 Bft) W-SW 238 0 min 0,000 mm 2,7 UV-I 374 W/m 13,4 C 15,9 C 17,7 km/h (3 Bft) 100,00 %
03.07.2017 11:50 18,3 C 21,1 C 74 % 1021,3 hPa 0,0 l/m 11,1 km/h (2 Bft) W 260 0 min 0,000 mm 2,8 UV-I 374 W/m 13,6 C 16,4 C 16,1 km/h (3 Bft) 96,00 %
03.07.2017 11:52 18,4 C 21,1 C 73 % 1021,4 hPa 0,0 l/m 13,8 km/h (3 Bft) W-SW 246 0 min 0,000 mm 3,0 UV-I 389 W/m 13,5 C 15,6 C 19,3 km/h (3 Bft) 95,12 %
03.07.2017 11:54 18,5 C 21,1 C 73 % 1021,3 hPa 0,0 l/m 16,0 km/h (3 Bft) W-SW 244 0 min 0,000 mm 3,1 UV-I 408 W/m 13,6 C 15,2 C 22,5 km/h (4 Bft) 94,34 %
03.07.2017 11:56 18,6 C 21,1 C 72 % 1021,3 hPa 0,0 l/m 11,1 km/h (2 Bft) SW 214 0 min 0,000 mm 2,7 UV-I 384 W/m 13,4 C 16,7 C 16,1 km/h (3 Bft) 98,00 %
03.07.2017 11:58 18,6 C 21,1 C 72 % 1021,3 hPa 0,0 l/m 11,5 km/h (2 Bft) SW 230 0 min 0,000 mm 2,7 UV-I 356 W/m 13,4 C 16,6 C 17,7 km/h (3 Bft) 95,45 %
03.07.2017 12:00 18,6 C 21,1 C 73 % 1021,3 hPa 0,0 l/m 9,1 km/h (2 Bft) W-SW 237 0 min 0,229 mm 2,8 UV-I 375 W/m 13,7 C 17,4 C 17,7 km/h (3 Bft) 97,37 %
03.07.2017 12:02 18,7 C 21,1 C 73 % 1021,3 hPa 0,0 l/m 7,0 km/h (2 Bft) W-SW 254 0 min 0,000 mm 3,0 UV-I 444 W/m 13,8 C 18,4 C 11,3 km/h (2 Bft) 100,00 %
03.07.2017 12:04 18,7 C 21,1 C 72 % 1021,3 hPa 0,0 l/m 9,7 km/h (2 Bft) W-SW 248 0 min 0,000 mm 2,7 UV-I 396 W/m 13,5 C 17,3 C 17,7 km/h (3 Bft) 100,00 %
03.07.2017 12:06 18,8 C 21,1 C 73 % 1021,4 hPa 0,0 l/m 9,3 km/h (2 Bft) W-SW 241 0 min 0,000 mm 3,4 UV-I 418 W/m 13,9 C 17,6 C 14,5 km/h (3 Bft) 98,21 %
03.07.2017 12:08 18,9 C 21,1 C 74 % 1021,4 hPa 0,0 l/m 11,5 km/h (2 Bft) W-SW 237 2 min 0,000 mm 3,7 UV-I 517 W/m 14,2 C 16,9 C 17,7 km/h (3 Bft) 97,14 %
03.07.2017 12:10 19,1 C 21,1 C 73 % 1021,3 hPa 0,0 l/m 9,1 km/h (2 Bft) W 261 0 min 0,000 mm 2,7 UV-I 409 W/m 14,1 C 18,0 C 16,1 km/h (3 Bft) 100,00 %
03.07.2017 12:12 18,9 C 21,1 C 72 % 1021,4 hPa 0,0 l/m 12,7 km/h (3 Bft) SW 229 0 min 0,000 mm 3,5 UV-I 363 W/m 13,7 C 16,6 C 19,3 km/h (3 Bft) 100,00 %
03.07.2017 12:14 18,9 C 21,1 C 72 % 1021,3 hPa 0,0 l/m 16,3 km/h (3 Bft) SW 218 2 min 0,000 mm 4,5 UV-I 635 W/m 13,7 C 15,6 C 25,7 km/h (4 Bft) 97,56 %
03.07.2017 12:16 19,1 C 21,1 C 71 % 1021,3 hPa 0,0 l/m 19,4 km/h (3 Bft) SW 225 2 min 0,000 mm 3,7 UV-I 580 W/m 13,7 C 15,2 C 27,4 km/h (4 Bft) 98,11 %
03.07.2017 12:18 19,0 C 21,1 C 70 % 1021,3 hPa 0,0 l/m 17,3 km/h (3 Bft) S-SW 202 0 min 0,000 mm 2,5 UV-I 356 W/m 13,4 C 15,5 C 24,1 km/h (4 Bft) 97,37 %
03.07.2017 12:20 18,9 C 21,1 C 70 % 1021,3 hPa 0,0 l/m 14,1 km/h (3 Bft) SW 229 0 min 0,000 mm 2,7 UV-I 317 W/m 13,3 C 16,2 C 22,5 km/h (4 Bft) 96,23 %
03.07.2017 12:22 18,8 C 21,1 C 72 % 1021,3 hPa 0,0 l/m 14,2 km/h (3 Bft) SW 218 0 min 0,000 mm 2,5 UV-I 290 W/m 13,6 C 16,0 C 25,7 km/h (4 Bft) 97,73 %
03.07.2017 12:24 18,7 C 21,1 C 73 % 1021,3 hPa 0,0 l/m 17,7 km/h (3 Bft) SW 231 0 min 0,000 mm 2,1 UV-I 244 W/m 13,8 C 15,0 C 25,7 km/h (4 Bft) 95,74 %
03.07.2017 12:26 18,6 C 21,1 C 73 % 1021,3 hPa 0,0 l/m 16,8 km/h (3 Bft) S-SW 202 0 min 0,000 mm 2,3 UV-I 268 W/m 13,7 C 15,1 C 24,1 km/h (4 Bft) 100,00 %
03.07.2017 12:28 18,5 C 21,1 C 73 % 1021,4 hPa 0,0 l/m 14,6 km/h (3 Bft) SW 227 0 min 0,000 mm 2,8 UV-I 334 W/m 13,6 C 15,5 C 24,1 km/h (4 Bft) 98,21 %
03.07.2017 12:30 18,6 C 21,1 C 74 % 1021,3 hPa 0,0 l/m 17,7 km/h (3 Bft) S-SW 202 0 min 0,000 mm 3,9 UV-I 423 W/m 13,9 C 14,9 C 29,0 km/h (5 Bft) 97,37 %
03.07.2017 12:32 18,6 C 21,1 C 74 % 1021,2 hPa 0,0 l/m 13,2 km/h (3 Bft) W-SW 247 2 min 0,000 mm 4,8 UV-I 590 W/m 13,9 C 16,1 C 20,9 km/h (4 Bft) 100,00 %
03.07.2017 12:34 18,8 C 21,1 C 74 % 1021,2 hPa 0,0 l/m 15,7 km/h (3 Bft) S 187 2 min 0,000 mm 6,5 UV-I 857 W/m 14,1 C 15,6 C 24,1 km/h (4 Bft) 97,56 %
03.07.2017 12:36 19,2 C 21,1 C 73 % 1021,3 hPa 0,0 l/m 13,2 km/h (3 Bft) S-SW 210 2 min 0,000 mm 7,2 UV-I 1226 W/m 14,2 C 16,8 C 25,7 km/h (4 Bft) 92,45 %
03.07.2017 12:38 19,7 C 21,1 C 71 % 1021,2 hPa 0,0 l/m 16,4 km/h (3 Bft) S-SW 198 2 min 0,000 mm 5,9 UV-I 1199 W/m 14,3 C 16,6 C 22,5 km/h (4 Bft) 100,00 %
03.07.2017 12:40 19,8 C 21,1 C 71 % 1021,2 hPa 0,0 l/m 14,9 km/h (3 Bft) W-SW 253 2 min 0,000 mm 5,8 UV-I 807 W/m 14,4 C 17,0 C 25,7 km/h (4 Bft) 93,62 %
03.07.2017 12:42 19,9 C 21,1 C 67 % 1021,2 hPa 0,0 l/m 18,6 km/h (3 Bft) SW 234 2 min 0,000 mm 6,8 UV-I 807 W/m 13,6 C 16,3 C 29,0 km/h (5 Bft) 100,00 %
03.07.2017 12:44 19,8 C 21,1 C 67 % 1021,1 hPa 0,0 l/m 17,5 km/h (3 Bft) W-SW 243 2 min 0,000 mm 7,1 UV-I 807 W/m 13,5 C 16,4 C 27,4 km/h (4 Bft) 96,00 %
03.07.2017 12:46 19,8 C 21,1 C 67 % 1021,2 hPa 0,0 l/m 14,3 km/h (3 Bft) S-SW 205 2 min 0,000 mm 4,5 UV-I 723 W/m 13,5 C 17,2 C 22,5 km/h (4 Bft) 98,00 %
03.07.2017 12:48 19,7 C 21,1 C 67 % 1021,2 hPa 0,0 l/m 19,4 km/h (3 Bft) W-SW 251 0 min 0,000 mm 4,2 UV-I 466 W/m 13,4 C 15,9 C 29,0 km/h (5 Bft) 100,00 %
03.07.2017 12:50 19,6 C 21,1 C 68 % 1021,2 hPa 0,0 l/m 14,1 km/h (3 Bft) W-SW 246 0 min 0,000 mm 4,1 UV-I 457 W/m 13,5 C 17,0 C 20,9 km/h (4 Bft) 100,00 %
03.07.2017 12:52 19,4 C 21,1 C 69 % 1021,1 hPa 0,0 l/m 15,9 km/h (3 Bft) W-SW 254 0 min 0,000 mm 3,9 UV-I 417 W/m 13,6 C 16,3 C 22,5 km/h (4 Bft) 90,00 %
03.07.2017 12:54 19,3 C 21,1 C 69 % 1021,2 hPa 0,0 l/m 14,5 km/h (3 Bft) S-SW 210 0 min 0,000 mm 3,7 UV-I 389 W/m 13,5 C 16,5 C 22,5 km/h (4 Bft) 96,23 %
03.07.2017 12:56 19,2 C 21,1 C 69 % 1021,2 hPa 0,0 l/m 18,4 km/h (3 Bft) SW 219 0 min 0,000 mm 3,8 UV-I 398 W/m 13,4 C 15,5 C 27,4 km/h (4 Bft) 94,00 %
03.07.2017 12:58 19,1 C 21,1 C 70 % 1021,2 hPa 0,0 l/m 13,8 km/h (3 Bft) SW 222 0 min 0,000 mm 4,0 UV-I 448 W/m 13,5 C 16,5 C 19,3 km/h (3 Bft) 97,37 %
03.07.2017 13:00 19,2 C 21,1 C 69 % 1021,1 hPa 0,0 l/m 14,8 km/h (3 Bft) W-SW 240 2 min 0,381 mm 5,7 UV-I 539 W/m 13,4 C 16,3 C 22,5 km/h (4 Bft) 96,23 %
03.07.2017 13:02 19,6 C 21,1 C 69 % 1021,2 hPa 0,0 l/m 14,4 km/h (3 Bft) W-SW 240 2 min 0,000 mm 6,9 UV-I 1213 W/m 13,8 C 16,9 C 20,9 km/h (4 Bft) 97,44 %
03.07.2017 13:04 19,9 C 21,1 C 69 % 1021,3 hPa 0,0 l/m 19,0 km/h (3 Bft) SW 224 2 min 0,000 mm 5,5 UV-I 1096 W/m 14,0 C 16,3 C 25,7 km/h (4 Bft) 94,23 %
03.07.2017 13:06 19,9 C 21,1 C 67 % 1021,1 hPa 0,0 l/m 17,7 km/h (3 Bft) SW 215 2 min 0,000 mm 4,4 UV-I 566 W/m 13,6 C 16,5 C 27,4 km/h (4 Bft) 95,83 %
03.07.2017 13:08 19,8 C 21,1 C 67 % 1021,1 hPa 0,0 l/m 16,1 km/h (3 Bft) S 169 2 min 0,000 mm 3,8 UV-I 505 W/m 13,5 C 16,7 C 22,5 km/h (4 Bft) 95,74 %
03.07.2017 13:10 19,8 C 21,1 C 67 % 1021,1 hPa 0,0 l/m 16,2 km/h (3 Bft) SW 226 2 min 0,000 mm 4,0 UV-I 499 W/m 13,5 C 16,7 C 22,5 km/h (4 Bft) 95,12 %
03.07.2017 13:12 19,8 C 21,1 C 67 % 1021,1 hPa 0,0 l/m 15,9 km/h (3 Bft) SW 234 0 min 0,000 mm 3,7 UV-I 488 W/m 13,5 C 16,8 C 24,1 km/h (4 Bft) 94,34 %
03.07.2017 13:14 19,8 C 21,1 C 68 % 1021,1 hPa 0,0 l/m 14,2 km/h (3 Bft) W 259 0 min 0,000 mm 3,5 UV-I 454 W/m 13,7 C 17,2 C 22,5 km/h (4 Bft) 94,00 %
03.07.2017 13:16 19,8 C 21,1 C 68 % 1021,1 hPa 0,0 l/m 16,6 km/h (3 Bft) SW 229 0 min 0,000 mm 3,6 UV-I 463 W/m 13,7 C 16,6 C 32,2 km/h (5 Bft) 92,68 %
03.07.2017 13:18 19,8 C 21,1 C 67 % 1021,1 hPa 0,0 l/m 16,7 km/h (3 Bft) W 269 0 min 0,000 mm 3,4 UV-I 447 W/m 13,5 C 16,6 C 24,1 km/h (4 Bft) 94,00 %
03.07.2017 13:20 19,7 C 21,1 C 67 % 1021,1 hPa 0,0 l/m 16,2 km/h (3 Bft) W-SW 242 0 min 0,000 mm 3,4 UV-I 449 W/m 13,4 C 16,6 C 22,5 km/h (4 Bft) 96,00 %
03.07.2017 13:22 19,7 C 21,1 C 68 % 1021,0 hPa 0,0 l/m 14,9 km/h (3 Bft) S-SW 209 2 min 0,000 mm 3,6 UV-I 500 W/m 13,6 C 16,9 C 22,5 km/h (4 Bft) 92,11 %
03.07.2017 13:24 19,7 C 21,1 C 68 % 1021,1 hPa 0,0 l/m 17,8 km/h (3 Bft) W-SW 241 2 min 0,000 mm 3,5 UV-I 510 W/m 13,6 C 16,3 C 25,7 km/h (4 Bft) 87,80 %
03.07.2017 13:26 19,7 C 21,1 C 68 % 1020,9 hPa 0,0 l/m 13,7 km/h (3 Bft) W-SW 244 0 min 0,000 mm 3,6 UV-I 465 W/m 13,6 C 17,2 C 22,5 km/h (4 Bft) 94,23 %
03.07.2017 13:28 19,8 C 21,1 C 66 % 1021,1 hPa 0,0 l/m 16,3 km/h (3 Bft) W-SW 252 0 min 0,000 mm 3,7 UV-I 473 W/m 13,3 C 16,7 C 22,5 km/h (4 Bft) 95,45 %
03.07.2017 13:30 19,8 C 21,1 C 66 % 1021,0 hPa 0,0 l/m 16,3 km/h (3 Bft) W-SW 248 2 min 0,000 mm 4,1 UV-I 509 W/m 13,3 C 16,7 C 25,7 km/h (4 Bft) 96,43 %
03.07.2017 13:32 19,9 C 21,1 C 65 % 1021,0 hPa 0,0 l/m 12,2 km/h (2 Bft) W 275 2 min 0,000 mm 4,5 UV-I 538 W/m 13,1 C 17,9 C 22,5 km/h (4 Bft) 94,74 %
03.07.2017 13:34 19,9 C 21,1 C 65 % 1021,0 hPa 0,0 l/m 13,2 km/h (3 Bft) SW 215 2 min 0,000 mm 4,7 UV-I 516 W/m 13,1 C 17,6 C 19,3 km/h (3 Bft) 94,34 %
03.07.2017 13:36 20,0 C 21,1 C 65 % 1020,9 hPa 0,0 l/m 14,2 km/h (3 Bft) W 261 2 min 0,000 mm 4,6 UV-I 519 W/m 13,2 C 17,4 C 20,9 km/h (4 Bft) 92,68 %
03.07.2017 13:38 20,2 C 21,1 C 65 % 1021,0 hPa 0,0 l/m 10,2 km/h (2 Bft) W 259 2 min 0,000 mm 6,0 UV-I 519 W/m 13,4 C 18,8 C 19,3 km/h (3 Bft) 94,00 %
03.07.2017 13:40 20,3 C 21,1 C 64 % 1020,9 hPa 0,0 l/m 11,1 km/h (2 Bft) S 170 2 min 0,000 mm 6,4 UV-I 519 W/m 13,3 C 18,6 C 16,1 km/h (3 Bft) 98,11 %
03.07.2017 13:42 20,6 C 21,1 C 64 % 1020,9 hPa 0,0 l/m 13,6 km/h (3 Bft) W 273 2 min 0,000 mm 6,5 UV-I 742 W/m 13,5 C 18,3 C 27,4 km/h (4 Bft) 97,62 %
03.07.2017 13:44 20,7 C 21,1 C 62 % 1020,8 hPa 0,0 l/m 16,0 km/h (3 Bft) S-SW 205 2 min 0,000 mm 6,4 UV-I 972 W/m 13,2 C 17,9 C 20,9 km/h (4 Bft) 94,74 %
03.07.2017 13:46 20,8 C 21,1 C 62 % 1020,8 hPa 0,0 l/m 15,7 km/h (3 Bft) W 268 2 min 0,000 mm 5,8 UV-I 976 W/m 13,2 C 18,1 C 22,5 km/h (4 Bft) 94,64 %
03.07.2017 13:48 21,1 C 21,1 C 60 % 1020,7 hPa 0,0 l/m 13,9 km/h (3 Bft) S-SW 204 2 min 0,000 mm 6,6 UV-I 985 W/m 13,0 C 18,8 C 29,0 km/h (5 Bft) 97,56 %
03.07.2017 13:50 21,2 C 21,1 C 59 % 1020,8 hPa 0,0 l/m 20,7 km/h (4 Bft) W-SW 252 2 min 0,000 mm 6,6 UV-I 1032 W/m 12,9 C 17,6 C 30,6 km/h (5 Bft) 96,23 %
03.07.2017 13:52 21,2 C 21,1 C 61 % 1020,7 hPa 0,0 l/m 16,7 km/h (3 Bft) W-SW 242 2 min 0,000 mm 6,4 UV-I 1072 W/m 13,4 C 18,4 C 24,1 km/h (4 Bft) 92,00 %
03.07.2017 13:54 21,2 C 21,1 C 61 % 1020,7 hPa 0,0 l/m 13,4 km/h (3 Bft) W-SW 240 2 min 0,000 mm 5,2 UV-I 1049 W/m 13,4 C 19,1 C 22,5 km/h (4 Bft) 94,74 %
03.07.2017 13:56 21,1 C 21,1 C 60 % 1020,7 hPa 0,0 l/m 15,3 km/h (3 Bft) SW 219 2 min 0,000 mm 4,1 UV-I 1023 W/m 13,0 C 18,5 C 22,5 km/h (4 Bft) 97,73 %
03.07.2017 13:58 21,3 C 21,1 C 62 % 1020,6 hPa 0,0 l/m 14,3 km/h (3 Bft) W-SW 248 2 min 0,000 mm 6,1 UV-I 1019 W/m 13,7 C 19,0 C 22,5 km/h (4 Bft) 96,43 %
03.07.2017 14:00 21,5 C 21,1 C 59 % 1020,7 hPa 0,0 l/m 15,9 km/h (3 Bft) W-SW 248 2 min 0,482 mm 5,9 UV-I 1126 W/m 13,1 C 18,9 C 25,7 km/h (4 Bft) 95,45 %
03.07.2017 14:02 21,4 C 21,1 C 56 % 1020,5 hPa 0,0 l/m 13,5 km/h (3 Bft) W-SW 252 2 min 0,000 mm 4,2 UV-I 592 W/m 12,3 C 19,3 C 17,7 km/h (3 Bft) 96,23 %
03.07.2017 14:04 21,3 C 21,1 C 59 % 1020,5 hPa 0,0 l/m 10,8 km/h (2 Bft) W 263 0 min 0,000 mm 4,9 UV-I 373 W/m 13,0 C 19,8 C 16,1 km/h (3 Bft) 95,74 %
03.07.2017 14:06 21,3 C 21,1 C 61 % 1020,6 hPa 0,0 l/m 13,1 km/h (3 Bft) SW 226 0 min 0,000 mm 4,5 UV-I 373 W/m 13,5 C 19,3 C 20,9 km/h (4 Bft) 95,74 %
03.07.2017 14:08 21,2 C 21,1 C 61 % 1020,5 hPa 0,0 l/m 13,1 km/h (3 Bft) W-SW 248 0 min 0,000 mm 3,0 UV-I 308 W/m 13,4 C 19,1 C 17,7 km/h (3 Bft) 95,45 %
03.07.2017 14:10 21,0 C 21,1 C 59 % 1020,6 hPa 0,0 l/m 21,9 km/h (4 Bft) W 261 0 min 0,000 mm 1,9 UV-I 199 W/m 12,7 C 17,2 C 30,6 km/h (5 Bft) 97,73 %
03.07.2017 14:12 20,7 C 21,1 C 60 % 1020,6 hPa 0,0 l/m 10,3 km/h (2 Bft) W-SW 250 0 min 0,000 mm 1,3 UV-I 150 W/m 12,7 C 19,3 C 16,1 km/h (3 Bft) 93,18 %
03.07.2017 14:14 20,5 C 21,1 C 60 % 1020,6 hPa 0,0 l/m 12,0 km/h (2 Bft) W-SW 241 0 min 0,000 mm 1,1 UV-I 150 W/m 12,5 C 18,6 C 22,5 km/h (4 Bft) 96,23 %
03.07.2017 14:16 20,4 C 21,1 C 61 % 1020,7 hPa 0,0 l/m 17,5 km/h (3 Bft) W-SW 239 0 min 0,000 mm 1,3 UV-I 184 W/m 12,6 C 17,2 C 29,0 km/h (5 Bft) 95,12 %
03.07.2017 14:18 20,3 C 21,1 C 61 % 1020,7 hPa 0,0 l/m 13,7 km/h (3 Bft) W-SW 242 0 min 0,000 mm 1,9 UV-I 246 W/m 12,5 C 17,9 C 24,1 km/h (4 Bft) 94,34 %
03.07.2017 14:20 20,3 C 21,1 C 62 % 1020,6 hPa 0,0 l/m 14,4 km/h (3 Bft) W-SW 255 0 min 0,000 mm 2,8 UV-I 332 W/m 12,8 C 17,8 C 22,5 km/h (4 Bft) 95,74 %
03.07.2017 14:22 20,4 C 21,1 C 62 % 1020,6 hPa 0,0 l/m 10,3 km/h (2 Bft) W-SW 248 0 min 0,000 mm 3,9 UV-I 372 W/m 12,9 C 19,0 C 20,9 km/h (4 Bft) 88,89 %
03.07.2017 14:24 20,6 C 21,1 C 61 % 1020,6 hPa 0,0 l/m 12,1 km/h (2 Bft) W-SW 246 0 min 0,000 mm 4,8 UV-I 368 W/m 12,8 C 18,7 C 20,9 km/h (4 Bft) 100,00 %
03.07.2017 14:26 20,7 C 21,1 C 61 % 1020,7 hPa 0,0 l/m 14,5 km/h (3 Bft) W 261 0 min 0,000 mm 3,8 UV-I 345 W/m 12,9 C 18,2 C 22,5 km/h (4 Bft) 100,00 %
03.07.2017 14:28 20,7 C 21,1 C 60 % 1020,7 hPa 0,0 l/m 14,7 km/h (3 Bft) W-SW 251 0 min 0,000 mm 4,4 UV-I 320 W/m 12,7 C 18,2 C 24,1 km/h (4 Bft) 100,00 %
03.07.2017 14:30 20,8 C 21,1 C 61 % 1020,6 hPa 0,0 l/m 8,9 km/h (2 Bft) W-SW 249 0 min 0,000 mm 5,9 UV-I 320 W/m 13,0 C 19,9 C 12,9 km/h (3 Bft) 97,56 %
03.07.2017 14:33 21,1 C 21,1 C 58 % 1020,6 hPa 0,0 l/m 16,4 km/h (3 Bft) S-SW 207 3 min 0,000 mm 5,8 UV-I 701 W/m 12,5 C 18,3 C 22,5 km/h (4 Bft) 100,00 %
03.07.2017 14:34 21,2 C 21,1 C 57 % 1020,6 hPa 0,0 l/m 14,4 km/h (3 Bft) W-SW 244 0 min 0,000 mm 3,8 UV-I 331 W/m 12,3 C 18,8 C 19,3 km/h (3 Bft) 100,00 %
03.07.2017 14:36 21,1 C 21,1 C 58 % 1020,6 hPa 0,0 l/m 7,3 km/h (2 Bft) S-SW 205 0 min 0,000 mm 3,7 UV-I 297 W/m 12,5 C 20,8 C 12,9 km/h (3 Bft) 94,64 %
03.07.2017 14:38 21,1 C 21,1 C 58 % 1020,6 hPa 0,0 l/m 9,7 km/h (2 Bft) W-SW 238 0 min 0,000 mm 5,4 UV-I 332 W/m 12,5 C 19,9 C 17,7 km/h (3 Bft) 93,62 %
03.07.2017 14:40 21,3 C 21,7 C 59 % 1020,5 hPa 0,0 l/m 13,2 km/h (3 Bft) SW 219 2 min 0,000 mm 5,8 UV-I 587 W/m 13,0 C 19,2 C 25,7 km/h (4 Bft) 97,56 %
03.07.2017 14:42 21,7 C 21,1 C 57 % 1020,5 hPa 0,0 l/m 12,9 km/h (3 Bft) S 186 2 min 0,000 mm 4,3 UV-I 834 W/m 12,8 C 19,8 C 17,7 km/h (3 Bft) 95,45 %
03.07.2017 14:44 21,7 C 21,1 C 54 % 1020,4 hPa 0,0 l/m 7,4 km/h (2 Bft) W-NW 283 0 min 0,000 mm 2,6 UV-I 231 W/m 12,0 C 21,3 C 14,5 km/h (3 Bft) 100,00 %
03.07.2017 14:46 21,4 C 21,1 C 55 % 1020,4 hPa 0,0 l/m 6,1 km/h (2 Bft) W-SW 239 0 min 0,000 mm 2,1 UV-I 205 W/m 12,0 C 21,4 C 11,3 km/h (2 Bft) 100,00 %
03.07.2017 14:48 21,2 C 21,1 C 55 % 1020,4 hPa 0,0 l/m 11,2 km/h (2 Bft) W-SW 255 0 min 0,000 mm 2,1 UV-I 219 W/m 11,8 C 19,6 C 19,3 km/h (3 Bft) 97,37 %
03.07.2017 14:50 20,9 C 21,7 C 57 % 1020,4 hPa 0,0 l/m 10,3 km/h (2 Bft) SW 236 0 min 0,000 mm 2,0 UV-I 239 W/m 12,1 C 19,5 C 14,5 km/h (3 Bft) 98,00 %
03.07.2017 14:52 20,8 C 21,1 C 59 % 1020,4 hPa 0,0 l/m 13,9 km/h (3 Bft) W 261 0 min 0,000 mm 1,9 UV-I 249 W/m 12,5 C 18,5 C 20,9 km/h (4 Bft) 98,00 %
03.07.2017 14:54 20,7 C 21,7 C 59 % 1020,5 hPa 0,0 l/m 19,4 km/h (3 Bft) W-SW 245 0 min 0,000 mm 2,6 UV-I 300 W/m 12,4 C 17,2 C 25,7 km/h (4 Bft) 95,74 %
03.07.2017 14:56 20,9 C 21,7 C 62 % 1020,3 hPa 0,0 l/m 11,9 km/h (2 Bft) SW 229 2 min 0,000 mm 5,1 UV-I 518 W/m 13,3 C 19,1 C 20,9 km/h (4 Bft) 97,56 %
03.07.2017 14:58 21,3 C 21,7 C 58 % 1020,3 hPa 0,0 l/m 17,8 km/h (3 Bft) SW 221 2 min 0,000 mm 5,5 UV-I 964 W/m 12,7 C 18,3 C 24,1 km/h (4 Bft) 97,44 %
03.07.2017 15:00 21,7 C 21,7 C 58 % 1020,3 hPa 0,0 l/m 16,8 km/h (3 Bft) W-SW 244 2 min 0,356 mm 5,6 UV-I 985 W/m 13,1 C 19,0 C 29,0 km/h (5 Bft) 94,34 %
03.07.2017 15:02 21,8 C 21,7 C 55 % 1020,4 hPa 0,0 l/m 20,9 km/h (4 Bft) W 266 2 min 0,000 mm 5,7 UV-I 1003 W/m 12,4 C 18,4 C 32,2 km/h (5 Bft) 94,34 %
03.07.2017 15:04 21,8 C 21,7 C 55 % 1020,4 hPa 0,0 l/m 18,6 km/h (3 Bft) W 271 2 min 0,000 mm 5,7 UV-I 998 W/m 12,4 C 18,8 C 27,4 km/h (4 Bft) 96,00 %
03.07.2017 15:06 21,8 C 21,7 C 54 % 1020,3 hPa 0,0 l/m 16,7 km/h (3 Bft) W-SW 244 2 min 0,000 mm 5,6 UV-I 992 W/m 12,1 C 19,1 C 25,7 km/h (4 Bft) 97,14 %
03.07.2017 15:08 21,8 C 21,7 C 53 % 1020,3 hPa 0,0 l/m 13,8 km/h (3 Bft) W-SW 238 2 min 0,000 mm 5,4 UV-I 1034 W/m 11,8 C 19,7 C 20,9 km/h (4 Bft) 92,86 %
03.07.2017 15:10 21,8 C 21,7 C 54 % 1020,3 hPa 0,0 l/m 12,3 km/h (3 Bft) W 269 2 min 0,000 mm 3,6 UV-I 730 W/m 12,1 C 20,0 C 19,3 km/h (3 Bft) 94,74 %
03.07.2017 15:12 21,8 C 21,7 C 53 % 1020,2 hPa 0,0 l/m 9,0 km/h (2 Bft) SW 235 0 min 0,000 mm 2,9 UV-I 357 W/m 11,8 C 20,9 C 14,5 km/h (3 Bft) 98,21 %
03.07.2017 15:14 21,7 C 21,7 C 53 % 1020,2 hPa 0,0 l/m 14,0 km/h (3 Bft) W-SW 253 0 min 0,000 mm 2,6 UV-I 339 W/m 11,7 C 19,5 C 24,1 km/h (4 Bft) 92,68 %
03.07.2017 15:16 21,6 C 21,7 C 55 % 1020,2 hPa 0,0 l/m 8,0 km/h (2 Bft) W 265 0 min 0,000 mm 2,3 UV-I 317 W/m 12,2 C 21,0 C 12,9 km/h (3 Bft) 93,62 %
03.07.2017 15:18 21,4 C 21,7 C 55 % 1020,3 hPa 0,0 l/m 9,9 km/h (2 Bft) W 277 0 min 0,000 mm 2,1 UV-I 291 W/m 12,0 C 20,2 C 22,5 km/h (4 Bft) 97,87 %
03.07.2017 15:20 21,3 C 21,7 C 55 % 1020,1 hPa 0,0 l/m 10,9 km/h (2 Bft) SW 228 0 min 0,000 mm 2,0 UV-I 291 W/m 11,9 C 19,8 C 16,1 km/h (3 Bft) 88,68 %
03.07.2017 15:22 21,2 C 21,7 C 57 % 1020,2 hPa 0,0 l/m 9,3 km/h (2 Bft) W 271 0 min 0,000 mm 2,4 UV-I 354 W/m 12,3 C 20,2 C 14,5 km/h (3 Bft) 92,68 %
03.07.2017 15:24 21,2 C 21,7 C 56 % 1020,2 hPa 0,0 l/m 13,1 km/h (3 Bft) W-SW 252 0 min 0,000 mm 2,8 UV-I 422 W/m 12,1 C 19,1 C 19,3 km/h (3 Bft) 97,73 %
03.07.2017 15:26 21,3 C 21,7 C 56 % 1020,1 hPa 0,0 l/m 13,4 km/h (3 Bft) W-SW 242 0 min 0,000 mm 3,5 UV-I 421 W/m 12,2 C 19,2 C 20,9 km/h (4 Bft) 96,23 %
03.07.2017 15:28 21,4 C 21,7 C 54 % 1020,1 hPa 0,0 l/m 11,0 km/h (2 Bft) W-NW 282 0 min 0,000 mm 3,8 UV-I 408 W/m 11,7 C 19,9 C 17,7 km/h (3 Bft) 100,00 %
03.07.2017 15:30 21,6 C 21,7 C 54 % 1020,1 hPa 0,0 l/m 13,4 km/h (3 Bft) W 260 0 min 0,000 mm 3,1 UV-I 389 W/m 11,9 C 19,5 C 19,3 km/h (3 Bft) 98,11 %
03.07.2017 15:32 21,6 C 21,7 C 53 % 1020,1 hPa 0,0 l/m 12,3 km/h (3 Bft) W-SW 238 0 min 0,000 mm 3,8 UV-I 403 W/m 11,6 C 19,8 C 24,1 km/h (4 Bft) 98,00 %
03.07.2017 15:34 21,7 C 21,7 C 53 % 1020,0 hPa 0,0 l/m 11,7 km/h (2 Bft) W 264 2 min 0,000 mm 4,1 UV-I 674 W/m 11,7 C 20,1 C 29,0 km/h (5 Bft) 97,37 %
03.07.2017 15:36 21,8 C 21,7 C 52 % 1020,1 hPa 0,0 l/m 14,2 km/h (3 Bft) W-SW 244 2 min 0,000 mm 4,1 UV-I 925 W/m 11,5 C 19,6 C 19,3 km/h (3 Bft) 100,00 %
03.07.2017 15:38 22,0 C 21,7 C 53 % 1020,0 hPa 0,0 l/m 13,8 km/h (3 Bft) W-SW 242 2 min 0,000 mm 3,4 UV-I 445 W/m 12,0 C 19,9 C 20,9 km/h (4 Bft) 97,56 %
03.07.2017 15:40 22,1 C 21,7 C 53 % 1020,0 hPa 0,0 l/m 16,2 km/h (3 Bft) W-SW 244 2 min 0,000 mm 3,9 UV-I 485 W/m 12,1 C 19,6 C 24,1 km/h (4 Bft) 98,11 %
03.07.2017 15:42 22,2 C 21,7 C 54 % 1020,0 hPa 0,0 l/m 9,0 km/h (2 Bft) W-SW 251 2 min 0,000 mm 3,9 UV-I 928 W/m 12,4 C 21,4 C 17,7 km/h (3 Bft) 97,78 %
03.07.2017 15:44 22,3 C 21,7 C 53 % 1020,0 hPa 0,0 l/m 14,0 km/h (3 Bft) W 273 2 min 0,000 mm 3,1 UV-I 714 W/m 12,2 C 20,2 C 24,1 km/h (4 Bft) 97,56 %
03.07.2017 15:46 22,1 C 21,7 C 54 % 1020,0 hPa 0,0 l/m 15,1 km/h (3 Bft) W 267 0 min 0,000 mm 2,8 UV-I 294 W/m 12,3 C 19,8 C 20,9 km/h (4 Bft) 100,00 %
03.07.2017 15:48 21,7 C 21,7 C 53 % 1020,0 hPa 0,0 l/m 12,2 km/h (2 Bft) W-SW 242 0 min 0,000 mm 2,3 UV-I 241 W/m 11,7 C 19,9 C 22,5 km/h (4 Bft) 100,00 %
03.07.2017 15:50 21,4 C 21,7 C 55 % 1019,9 hPa 0,0 l/m 12,2 km/h (2 Bft) W-SW 254 0 min 0,000 mm 2,0 UV-I 234 W/m 12,0 C 19,6 C 17,7 km/h (3 Bft) 97,37 %
03.07.2017 15:52 21,3 C 21,7 C 56 % 1019,9 hPa 0,0 l/m 5,2 km/h (1 Bft) SW 230 0 min 0,000 mm 1,8 UV-I 255 W/m 12,2 C 21,3 C 9,7 km/h (2 Bft) 96,23 %
03.07.2017 15:54 21,3 C 21,7 C 58 % 1019,9 hPa 0,0 l/m 4,0 km/h (1 Bft) S-SW 194 0 min 0,000 mm 2,2 UV-I 272 W/m 12,7 C 21,3 C 8,0 km/h (2 Bft) 100,00 %
03.07.2017 15:56 21,6 C 21,7 C 58 % 1019,8 hPa 0,0 l/m 5,5 km/h (1 Bft) W-SW 252 0 min 0,000 mm 2,7 UV-I 274 W/m 13,0 C 21,6 C 11,3 km/h (2 Bft) 98,21 %
03.07.2017 15:58 21,7 C 21,7 C 58 % 1019,8 hPa 0,0 l/m 9,6 km/h (2 Bft) W-SW 248 0 min 0,000 mm 2,1 UV-I 326 W/m 13,1 C 20,6 C 14,5 km/h (3 Bft) 97,56 %
03.07.2017 16:00 21,7 C 21,7 C 56 % 1019,8 hPa 0,0 l/m 4,9 km/h (1 Bft) W 267 0 min 0,381 mm 2,0 UV-I 299 W/m 12,5 C 21,7 C 11,3 km/h (2 Bft) 97,87 %
03.07.2017 16:02 21,6 C 21,7 C 57 % 1019,8 hPa 0,0 l/m 6,5 km/h (2 Bft) W-NW 292 0 min 0,000 mm 1,8 UV-I 262 W/m 12,7 C 21,6 C 12,9 km/h (3 Bft) 100,00 %
03.07.2017 16:04 21,5 C 21,7 C 56 % 1019,8 hPa 0,0 l/m 10,5 km/h (2 Bft) NW 304 0 min 0,000 mm 1,6 UV-I 221 W/m 12,3 C 20,2 C 20,9 km/h (4 Bft) 100,00 %
03.07.2017 16:06 21,5 C 21,7 C 54 % 1019,8 hPa 0,0 l/m 15,5 km/h (3 Bft) W-SW 237 0 min 0,000 mm 1,5 UV-I 192 W/m 11,8 C 19,0 C 20,9 km/h (4 Bft) 98,00 %
03.07.2017 16:08 21,4 C 21,7 C 53 % 1019,8 hPa 0,0 l/m 17,3 km/h (3 Bft) W 275 0 min 0,000 mm 1,4 UV-I 164 W/m 11,4 C 18,5 C 27,4 km/h (4 Bft) 92,11 %
03.07.2017 16:10 21,3 C 21,7 C 52 % 1019,8 hPa 0,0 l/m 19,3 km/h (3 Bft) W-SW 254 0 min 0,000 mm 1,3 UV-I 166 W/m 11,0 C 18,0 C 32,2 km/h (5 Bft) 97,73 %
03.07.2017 16:12 21,2 C 21,7 C 53 % 1019,8 hPa 0,0 l/m 13,7 km/h (3 Bft) W-SW 243 0 min 0,000 mm 1,4 UV-I 181 W/m 11,2 C 19,0 C 25,7 km/h (4 Bft) 94,44 %
03.07.2017 16:14 21,1 C 21,7 C 53 % 1019,8 hPa 0,0 l/m 10,2 km/h (2 Bft) SW 219 0 min 0,000 mm 1,4 UV-I 188 W/m 11,1 C 19,8 C 20,9 km/h (4 Bft) 94,00 %
03.07.2017 16:16 21,1 C 21,7 C 54 % 1019,9 hPa 0,0 l/m 9,7 km/h (2 Bft) W 263 0 min 0,000 mm 1,5 UV-I 201 W/m 11,4 C 19,9 C 17,7 km/h (3 Bft) 100,00 %
03.07.2017 16:18 21,1 C 21,7 C 53 % 1019,9 hPa 0,0 l/m 13,9 km/h (3 Bft) W 262 0 min 0,000 mm 1,5 UV-I 213 W/m 11,1 C 18,8 C 22,5 km/h (4 Bft) 100,00 %
03.07.2017 16:20 21,1 C 21,7 C 53 % 1019,8 hPa 0,0 l/m 10,1 km/h (2 Bft) W-NW 287 0 min 0,000 mm 1,5 UV-I 226 W/m 11,1 C 19,8 C 16,1 km/h (3 Bft) 97,62 %
03.07.2017 16:22 21,1 C 21,7 C 53 % 1019,8 hPa 0,0 l/m 10,1 km/h (2 Bft) W-SW 253 0 min 0,000 mm 1,6 UV-I 246 W/m 11,1 C 19,8 C 16,1 km/h (3 Bft) 96,15 %
03.07.2017 16:24 21,1 C 21,7 C 54 % 1019,8 hPa 0,0 l/m 8,0 km/h (2 Bft) W-SW 254 0 min 0,000 mm 1,6 UV-I 264 W/m 11,4 C 20,5 C 19,3 km/h (3 Bft) 97,62 %
03.07.2017 16:26 21,2 C 21,7 C 54 % 1019,8 hPa 0,0 l/m 7,4 km/h (2 Bft) SW 227 0 min 0,000 mm 1,7 UV-I 297 W/m 11,5 C 20,8 C 16,1 km/h (3 Bft) 100,00 %
03.07.2017 16:28 21,3 C 21,7 C 54 % 1019,8 hPa 0,0 l/m 8,3 km/h (2 Bft) W 263 0 min 0,000 mm 2,2 UV-I 365 W/m 11,6 C 20,6 C 12,9 km/h (3 Bft) 96,00 %
03.07.2017 16:30 21,6 C 21,7 C 54 % 1019,8 hPa 0,0 l/m 7,3 km/h (2 Bft) W-SW 240 2 min 0,000 mm 3,0 UV-I 450 W/m 11,9 C 21,3 C 11,3 km/h (2 Bft) 100,00 %
03.07.2017 16:32 21,8 C 21,7 C 54 % 1019,7 hPa 0,0 l/m 9,0 km/h (2 Bft) S-SW 196 2 min 0,000 mm 2,7 UV-I 450 W/m 12,1 C 20,9 C 16,1 km/h (3 Bft) 100,00 %
03.07.2017 16:34 21,9 C 21,7 C 52 % 1019,7 hPa 0,0 l/m 9,5 km/h (2 Bft) SW 236 0 min 0,000 mm 2,4 UV-I 315 W/m 11,6 C 20,9 C 14,5 km/h (3 Bft) 95,74 %
03.07.2017 16:36 22,0 C 21,7 C 53 % 1019,6 hPa 0,0 l/m 5,9 km/h (2 Bft) W 279 0 min 0,000 mm 2,6 UV-I 339 W/m 12,0 C 22,0 C 11,3 km/h (2 Bft) 98,00 %
03.07.2017 16:38 22,1 C 21,7 C 53 % 1019,7 hPa 0,0 l/m 4,5 km/h (1 Bft) W-NW 293 2 min 0,000 mm 2,9 UV-I 531 W/m 12,1 C 22,1 C 9,7 km/h (2 Bft) 100,00 %
03.07.2017 16:40 22,2 C 21,7 C 51 % 1019,5 hPa 0,0 l/m 6,3 km/h (2 Bft) N 351 2 min 0,000 mm 3,0 UV-I 679 W/m 11,6 C 22,2 C 12,9 km/h (3 Bft) 93,18 %
03.07.2017 16:42 22,5 C 21,7 C 50 % 1019,6 hPa 0,0 l/m 5,9 km/h (2 Bft) W 263 2 min 0,000 mm 2,8 UV-I 640 W/m 11,5 C 22,5 C 11,3 km/h (2 Bft) 94,74 %
03.07.2017 16:44 22,8 C 21,7 C 51 % 1019,7 hPa 0,0 l/m 10,1 km/h (2 Bft) W 268 2 min 0,000 mm 2,8 UV-I 648 W/m 12,1 C 21,7 C 20,9 km/h (4 Bft) 97,56 %
03.07.2017 16:46 22,8 C 21,7 C 48 % 1019,5 hPa 0,0 l/m 17,9 km/h (3 Bft) W-NW 287 2 min 0,000 mm 1,9 UV-I 641 W/m 11,2 C 20,1 C 25,7 km/h (4 Bft) 100,00 %
03.07.2017 16:48 22,6 C 21,7 C 49 % 1019,6 hPa 0,0 l/m 13,2 km/h (3 Bft) W-SW 240 2 min 0,000 mm 1,8 UV-I 644 W/m 11,3 C 20,8 C 20,9 km/h (4 Bft) 98,11 %
03.07.2017 16:50 22,6 C 21,7 C 50 % 1019,5 hPa 0,0 l/m 11,5 km/h (2 Bft) W-SW 249 2 min 0,000 mm 2,6 UV-I 663 W/m 11,6 C 21,1 C 17,7 km/h (3 Bft) 98,00 %
03.07.2017 16:52 22,7 C 21,7 C 49 % 1019,5 hPa 0,0 l/m 11,2 km/h (2 Bft) W 271 2 min 0,000 mm 2,4 UV-I 668 W/m 11,4 C 21,3 C 19,3 km/h (3 Bft) 90,91 %
03.07.2017 16:54 22,7 C 21,7 C 47 % 1019,5 hPa 0,0 l/m 15,3 km/h (3 Bft) NW 313 2 min 0,000 mm 2,7 UV-I 670 W/m 10,8 C 20,5 C 22,5 km/h (4 Bft) 88,64 %
03.07.2017 16:56 22,8 C 21,7 C 47 % 1019,5 hPa 0,0 l/m 8,9 km/h (2 Bft) S-SW 200 2 min 0,000 mm 2,6 UV-I 640 W/m 10,9 C 22,0 C 16,1 km/h (3 Bft) 97,62 %
03.07.2017 16:58 22,9 C 21,7 C 48 % 1019,5 hPa 0,0 l/m 14,1 km/h (3 Bft) SW 234 2 min 0,000 mm 2,5 UV-I 613 W/m 11,3 C 20,9 C 22,5 km/h (4 Bft) 96,00 %
03.07.2017 17:00 23,1 C 21,7 C 47 % 1019,5 hPa 0,0 l/m 12,9 km/h (3 Bft) W 266 2 min 0,330 mm 2,2 UV-I 611 W/m 11,2 C 21,4 C 20,9 km/h (4 Bft) 95,45 %
03.07.2017 17:02 23,0 C 21,7 C 46 % 1019,5 hPa 0,0 l/m 14,3 km/h (3 Bft) W 260 2 min 0,000 mm 1,8 UV-I 612 W/m 10,7 C 21,0 C 22,5 km/h (4 Bft) 94,00 %
03.07.2017 17:04 22,9 C 21,7 C 47 % 1019,6 hPa 0,0 l/m 14,9 km/h (3 Bft) W-SW 252 2 min 0,000 mm 2,1 UV-I 616 W/m 11,0 C 20,8 C 20,9 km/h (4 Bft) 93,62 %
03.07.2017 17:06 22,8 C 21,7 C 48 % 1019,5 hPa 0,0 l/m 10,4 km/h (2 Bft) SW 231 2 min 0,000 mm 2,1 UV-I 544 W/m 11,2 C 21,6 C 20,9 km/h (4 Bft) 96,23 %
03.07.2017 17:08 22,7 C 21,7 C 48 % 1019,5 hPa 0,0 l/m 9,9 km/h (2 Bft) W 269 2 min 0,000 mm 1,7 UV-I 344 W/m 11,1 C 21,6 C 19,3 km/h (3 Bft) 97,37 %
03.07.2017 17:10 22,6 C 21,7 C 49 % 1019,5 hPa 0,0 l/m 10,1 km/h (2 Bft) W-SW 253 0 min 0,000 mm 1,7 UV-I 188 W/m 11,3 C 21,5 C 16,1 km/h (3 Bft) 98,11 %
03.07.2017 17:12 22,5 C 21,7 C 48 % 1019,4 hPa 0,0 l/m 19,0 km/h (3 Bft) W-SW 247 0 min 0,000 mm 1,8 UV-I 186 W/m 10,9 C 19,6 C 29,0 km/h (5 Bft) 96,00 %
03.07.2017 17:14 22,5 C 21,7 C 48 % 1019,5 hPa 0,0 l/m 14,5 km/h (3 Bft) W-SW 252 2 min 0,000 mm 1,9 UV-I 320 W/m 10,9 C 20,4 C 25,7 km/h (4 Bft) 97,37 %
03.07.2017 17:16 22,6 C 21,7 C 48 % 1019,4 hPa 0,0 l/m 14,3 km/h (3 Bft) W-SW 251 2 min 0,000 mm 2,2 UV-I 535 W/m 11,0 C 20,5 C 20,9 km/h (4 Bft) 98,00 %
03.07.2017 17:18 22,7 C 21,7 C 49 % 1019,3 hPa 0,0 l/m 11,4 km/h (2 Bft) SW 234 2 min 0,000 mm 2,1 UV-I 544 W/m 11,4 C 21,3 C 16,1 km/h (3 Bft) 97,37 %
03.07.2017 17:20 22,8 C 21,7 C 47 % 1019,4 hPa 0,0 l/m 13,3 km/h (3 Bft) W-SW 246 2 min 0,000 mm 2,1 UV-I 559 W/m 10,9 C 21,0 C 29,0 km/h (5 Bft) 96,77 %
03.07.2017 17:22 22,8 C 21,7 C 47 % 1019,4 hPa 0,0 l/m 16,5 km/h (3 Bft) SW 233 2 min 0,000 mm 1,8 UV-I 559 W/m 10,9 C 20,4 C 32,2 km/h (5 Bft) 97,56 %
03.07.2017 17:24 22,8 C 21,7 C 48 % 1019,4 hPa 0,0 l/m 11,2 km/h (2 Bft) W 263 2 min 0,000 mm 1,7 UV-I 559 W/m 11,2 C 21,4 C 19,3 km/h (3 Bft) 100,00 %
03.07.2017 17:26 22,7 C 21,7 C 48 % 1019,3 hPa 0,0 l/m 12,6 km/h (3 Bft) SW 217 0 min 0,000 mm 1,6 UV-I 190 W/m 11,1 C 21,0 C 19,3 km/h (3 Bft) 100,00 %
03.07.2017 17:28 22,8 C 21,7 C 47 % 1019,3 hPa 0,0 l/m 11,2 km/h (2 Bft) W-SW 246 2 min 0,000 mm 1,9 UV-I 529 W/m 10,9 C 21,4 C 20,9 km/h (4 Bft) 100,00 %
03.07.2017 17:30 22,9 C 21,7 C 48 % 1019,3 hPa 0,0 l/m 16,6 km/h (3 Bft) W-SW 258 2 min 0,000 mm 1,9 UV-I 515 W/m 11,3 C 20,5 C 24,1 km/h (4 Bft) 100,00 %
03.07.2017 17:33 23,1 C 21,7 C 47 % 1019,4 hPa 0,0 l/m 11,3 km/h (2 Bft) SW 224 3 min 0,000 mm 1,8 UV-I 494 W/m 11,2 C 21,8 C 20,9 km/h (4 Bft) 97,06 %
03.07.2017 17:34 23,2 C 21,7 C 47 % 1019,4 hPa 0,0 l/m 13,4 km/h (3 Bft) W-NW 286 1 min 0,000 mm 1,7 UV-I 485 W/m 11,3 C 21,4 C 17,7 km/h (3 Bft) 92,31 %
03.07.2017 17:36 23,2 C 21,7 C 46 % 1019,3 hPa 0,0 l/m 8,2 km/h (2 Bft) W-SW 246 2 min 0,000 mm 1,6 UV-I 487 W/m 10,9 C 22,7 C 12,9 km/h (3 Bft) 100,00 %
03.07.2017 17:38 23,2 C 21,7 C 46 % 1019,4 hPa 0,0 l/m 10,0 km/h (2 Bft) W-NW 288 2 min 0,000 mm 1,5 UV-I 483 W/m 10,9 C 22,2 C 19,3 km/h (3 Bft) 94,34 %
03.07.2017 17:40 22,9 C 21,7 C 46 % 1019,4 hPa 0,0 l/m 12,4 km/h (3 Bft) SW 227 0 min 0,000 mm 1,2 UV-I 237 W/m 10,7 C 21,3 C 20,9 km/h (4 Bft) 98,00 %
03.07.2017 17:42 22,7 C 21,7 C 47 % 1019,3 hPa 0,0 l/m 11,8 km/h (2 Bft) W-SW 258 0 min 0,000 mm 1,2 UV-I 148 W/m 10,8 C 21,2 C 24,1 km/h (4 Bft) 98,11 %
03.07.2017 17:44 22,7 C 21,7 C 47 % 1019,3 hPa 0,0 l/m 17,5 km/h (3 Bft) W-SW 250 0 min 0,000 mm 1,4 UV-I 203 W/m 10,8 C 20,1 C 22,5 km/h (4 Bft) 97,37 %
03.07.2017 17:46 22,8 C 21,7 C 47 % 1019,4 hPa 0,0 l/m 17,7 km/h (3 Bft) SW 227 2 min 0,000 mm 1,4 UV-I 496 W/m 10,9 C 20,2 C 27,4 km/h (4 Bft) 97,87 %
03.07.2017 17:48 22,9 C 21,7 C 48 % 1019,4 hPa 0,0 l/m 15,1 km/h (3 Bft) W-SW 244 2 min 0,000 mm 1,4 UV-I 471 W/m 11,3 C 20,7 C 24,1 km/h (4 Bft) 98,31 %
03.07.2017 17:50 22,9 C 21,7 C 48 % 1019,4 hPa 0,0 l/m 14,0 km/h (3 Bft) W 272 2 min 0,000 mm 1,1 UV-I 360 W/m 11,3 C 21,0 C 20,9 km/h (4 Bft) 97,37 %
03.07.2017 17:52 22,7 C 21,7 C 49 % 1019,4 hPa 0,0 l/m 9,5 km/h (2 Bft) S-SW 206 0 min 0,000 mm 1,0 UV-I 109 W/m 11,4 C 21,8 C 17,7 km/h (3 Bft) 97,73 %
03.07.2017 17:54 22,4 C 21,7 C 50 % 1019,5 hPa 0,0 l/m 13,8 km/h (3 Bft) W 275 0 min 0,000 mm 0,9 UV-I 100 W/m 11,5 C 20,4 C 24,1 km/h (4 Bft) 96,43 %
03.07.2017 17:56 22,2 C 21,7 C 50 % 1019,5 hPa 0,0 l/m 9,7 km/h (2 Bft) W-NW 290 0 min 0,000 mm 0,8 UV-I 96 W/m 11,3 C 21,2 C 16,1 km/h (3 Bft) 97,37 %
03.07.2017 17:58 21,9 C 21,7 C 50 % 1019,5 hPa 0,0 l/m 9,0 km/h (2 Bft) W-NW 282 0 min 0,000 mm 0,7 UV-I 98 W/m 11,0 C 21,0 C 12,9 km/h (3 Bft) 95,74 %
03.07.2017 18:00 21,7 C 21,7 C 51 % 1019,5 hPa 0,0 l/m 8,4 km/h (2 Bft) W 270 0 min 0,305 mm 0,6 UV-I 100 W/m 11,1 C 21,0 C 14,5 km/h (3 Bft) 98,11 %
03.07.2017 18:02 21,6 C 21,7 C 52 % 1019,5 hPa 0,0 l/m 6,9 km/h (2 Bft) W 280 0 min 0,000 mm 0,5 UV-I 98 W/m 11,3 C 21,4 C 12,9 km/h (3 Bft) 97,37 %
03.07.2017 18:04 21,4 C 21,7 C 53 % 1019,5 hPa 0,0 l/m 7,5 km/h (2 Bft) N 360 0 min 0,000 mm 0,1 UV-I 93 W/m 11,4 C 21,0 C 17,7 km/h (3 Bft) 97,87 %
03.07.2017 18:06 21,2 C 21,7 C 54 % 1019,5 hPa 0,0 l/m 7,8 km/h (2 Bft) W 267 0 min 0,000 mm 0,0 UV-I 87 W/m 11,5 C 20,7 C 16,1 km/h (3 Bft) 97,44 %
03.07.2017 18:08 21,0 C 21,7 C 54 % 1019,5 hPa 0,0 l/m 4,3 km/h (1 Bft) W-NW 291 0 min 0,000 mm 0,0 UV-I 83 W/m 11,3 C 21,0 C 6,4 km/h (2 Bft) 98,51 %
03.07.2017 18:10 20,8 C 21,7 C 56 % 1019,4 hPa 0,0 l/m 5,9 km/h (2 Bft) W 263 0 min 0,000 mm 0,0 UV-I 78 W/m 11,7 C 20,8 C 12,9 km/h (3 Bft) 97,37 %
03.07.2017 18:12 20,7 C 21,7 C 56 % 1019,5 hPa 0,0 l/m 6,8 km/h (2 Bft) W-NW 296 0 min 0,000 mm 0,0 UV-I 73 W/m 11,6 C 20,5 C 16,1 km/h (3 Bft) 97,44 %
03.07.2017 18:14 20,7 C 21,7 C 56 % 1019,5 hPa 0,0 l/m 5,8 km/h (2 Bft) W-NW 284 0 min 0,000 mm 0,0 UV-I 72 W/m 11,6 C 20,7 C 11,3 km/h (2 Bft) 98,11 %
03.07.2017 18:16 20,6 C 21,7 C 57 % 1019,4 hPa 0,0 l/m 4,3 km/h (1 Bft) W 259 0 min 0,000 mm 0,0 UV-I 75 W/m 11,8 C 20,6 C 6,4 km/h (2 Bft) 98,00 %
03.07.2017 18:18 20,5 C 21,7 C 57 % 1019,4 hPa 0,0 l/m 2,7 km/h (1 Bft) W-SW 257 0 min 0,000 mm 0,0 UV-I 76 W/m 11,7 C 20,5 C 6,4 km/h (2 Bft) 97,87 %
03.07.2017 18:20 20,4 C 21,7 C 58 % 1019,4 hPa 0,0 l/m 3,7 km/h (1 Bft) W-SW 242 0 min 0,000 mm 0,0 UV-I 82 W/m 11,9 C 20,4 C 9,7 km/h (2 Bft) 96,23 %
03.07.2017 18:22 20,4 C 21,7 C 58 % 1019,4 hPa 0,0 l/m 5,5 km/h (1 Bft) W-NW 286 0 min 0,000 mm 0,0 UV-I 84 W/m 11,9 C 20,4 C 8,0 km/h (2 Bft) 97,37 %
03.07.2017 18:24 20,4 C 21,7 C 58 % 1019,4 hPa 0,0 l/m 4,7 km/h (1 Bft) W-NW 283 0 min 0,000 mm 0,0 UV-I 83 W/m 11,9 C 20,4 C 6,4 km/h (2 Bft) 98,11 %
03.07.2017 18:26 20,4 C 21,7 C 59 % 1019,4 hPa 0,0 l/m 5,9 km/h (2 Bft) W-SW 245 0 min 0,000 mm 0,0 UV-I 83 W/m 12,1 C 20,4 C 12,9 km/h (3 Bft) 94,74 %
03.07.2017 18:28 20,4 C 21,7 C 58 % 1019,5 hPa 0,0 l/m 7,2 km/h (2 Bft) W 261 0 min 0,000 mm 0,0 UV-I 84 W/m 11,9 C 20,1 C 14,5 km/h (3 Bft) 98,00 %
03.07.2017 18:30 20,4 C 21,7 C 59 % 1019,5 hPa 0,0 l/m 7,5 km/h (2 Bft) W-SW 250 0 min 0,000 mm 0,0 UV-I 86 W/m 12,1 C 20,0 C 14,5 km/h (3 Bft) 98,11 %
03.07.2017 18:32 20,4 C 21,7 C 58 % 1019,5 hPa 0,0 l/m 4,7 km/h (1 Bft) W-SW 242 0 min 0,000 mm 0,0 UV-I 87 W/m 11,9 C 20,4 C 9,7 km/h (2 Bft) 98,00 %
03.07.2017 18:34 20,4 C 21,7 C 58 % 1019,5 hPa 0,0 l/m 7,7 km/h (2 Bft) W 279 0 min 0,000 mm 0,0 UV-I 89 W/m 11,9 C 19,9 C 11,3 km/h (2 Bft) 97,37 %
03.07.2017 18:36 20,4 C 21,7 C 59 % 1019,4 hPa 0,0 l/m 7,5 km/h (2 Bft) W 269 0 min 0,000 mm 0,0 UV-I 92 W/m 12,1 C 20,0 C 12,9 km/h (3 Bft) 97,73 %
03.07.2017 18:38 20,4 C 21,7 C 58 % 1019,4 hPa 0,0 l/m 7,4 km/h (2 Bft) W 271 0 min 0,000 mm 0,0 UV-I 94 W/m 11,9 C 20,0 C 12,9 km/h (3 Bft) 98,11 %
03.07.2017 18:40 20,4 C 21,7 C 58 % 1019,4 hPa 0,0 l/m 6,4 km/h (2 Bft) W-SW 252 0 min 0,000 mm 0,0 UV-I 97 W/m 11,9 C 20,4 C 14,5 km/h (3 Bft) 100,00 %
03.07.2017 18:42 20,4 C 21,7 C 59 % 1019,4 hPa 0,0 l/m 4,2 km/h (1 Bft) W-SW 240 0 min 0,000 mm 0,0 UV-I 99 W/m 12,1 C 20,4 C 6,4 km/h (2 Bft) 100,00 %
03.07.2017 18:44 20,4 C 21,7 C 59 % 1019,4 hPa 0,0 l/m 4,5 km/h (1 Bft) W 271 0 min 0,000 mm 0,0 UV-I 106 W/m 12,1 C 20,4 C 9,7 km/h (2 Bft) 100,00 %
03.07.2017 18:46 20,4 C 21,7 C 58 % 1019,4 hPa 0,0 l/m 5,2 km/h (1 Bft) SW 236 0 min 0,000 mm 0,0 UV-I 116 W/m 11,9 C 20,4 C 9,7 km/h (2 Bft) 98,21 %
03.07.2017 18:48 20,4 C 21,7 C 58 % 1019,4 hPa 0,0 l/m 9,5 km/h (2 Bft) W-NW 286 0 min 0,000 mm 0,0 UV-I 132 W/m 11,9 C 19,2 C 16,1 km/h (3 Bft) 95,74 %
03.07.2017 18:50 20,5 C 21,7 C 58 % 1019,4 hPa 0,0 l/m 4,9 km/h (1 Bft) W-SW 237 0 min 0,000 mm 0,0 UV-I 147 W/m 11,9 C 20,5 C 11,3 km/h (2 Bft) 97,44 %
03.07.2017 18:52 20,6 C 21,7 C 58 % 1019,4 hPa 0,0 l/m 9,3 km/h (2 Bft) SW 230 0 min 0,000 mm 0,0 UV-I 149 W/m 12,0 C 19,5 C 14,5 km/h (3 Bft) 96,36 %
03.07.2017 18:54 20,8 C 21,7 C 57 % 1019,4 hPa 0,0 l/m 9,3 km/h (2 Bft) W 277 2 min 0,000 mm 0,0 UV-I 336 W/m 12,0 C 19,7 C 14,5 km/h (3 Bft) 94,87 %
03.07.2017 18:56 21,0 C 21,7 C 57 % 1019,4 hPa 0,0 l/m 7,6 km/h (2 Bft) W 266 2 min 0,000 mm 0,4 UV-I 328 W/m 12,1 C 20,5 C 11,3 km/h (2 Bft) 98,11 %
03.07.2017 18:58 21,1 C 21,7 C 57 % 1019,4 hPa 0,0 l/m 7,6 km/h (2 Bft) SW 236 2 min 0,000 mm 0,4 UV-I 227 W/m 12,2 C 20,7 C 11,3 km/h (2 Bft) 97,73 %
03.07.2017 19:00 21,2 C 21,7 C 56 % 1019,4 hPa 0,0 l/m 8,4 km/h (2 Bft) W-SW 252 2 min 0,127 mm 0,5 UV-I 250 W/m 12,1 C 20,5 C 19,3 km/h (3 Bft) 98,11 %
03.07.2017 19:02 21,3 C 21,7 C 55 % 1019,4 hPa 0,0 l/m 13,9 km/h (3 Bft) W 279 2 min 0,000 mm 0,5 UV-I 278 W/m 11,9 C 19,1 C 17,7 km/h (3 Bft) 97,56 %
03.07.2017 19:04 21,3 C 21,7 C 56 % 1019,4 hPa 0,0 l/m 7,8 km/h (2 Bft) SW 226 2 min 0,000 mm 0,1 UV-I 244 W/m 12,2 C 20,8 C 14,5 km/h (3 Bft) 96,23 %
03.07.2017 19:06 21,4 C 21,7 C 55 % 1019,3 hPa 0,0 l/m 12,7 km/h (3 Bft) W 265 2 min 0,000 mm 0,0 UV-I 222 W/m 12,0 C 19,5 C 17,7 km/h (3 Bft) 97,73 %
03.07.2017 19:08 21,4 C 21,7 C 54 % 1019,3 hPa 0,0 l/m 5,6 km/h (1 Bft) SW 233 0 min 0,000 mm 0,0 UV-I 115 W/m 11,7 C 21,4 C 9,7 km/h (2 Bft) 97,56 %
03.07.2017 19:10 21,4 C 21,7 C 54 % 1019,3 hPa 0,0 l/m 8,2 km/h (2 Bft) W 280 0 min 0,000 mm 0,0 UV-I 102 W/m 11,7 C 20,8 C 12,9 km/h (3 Bft) 98,11 %
03.07.2017 19:12 21,4 C 21,7 C 55 % 1019,3 hPa 0,0 l/m 7,9 km/h (2 Bft) W-SW 257 2 min 0,000 mm 0,0 UV-I 183 W/m 12,0 C 20,9 C 14,5 km/h (3 Bft) 97,56 %
03.07.2017 19:14 21,4 C 21,7 C 54 % 1019,3 hPa 0,0 l/m 5,5 km/h (1 Bft) W-NW 284 2 min 0,000 mm 0,0 UV-I 192 W/m 11,7 C 21,4 C 9,7 km/h (2 Bft) 97,87 %
03.07.2017 19:16 21,5 C 21,7 C 53 % 1019,2 hPa 0,0 l/m 12,9 km/h (3 Bft) W 270 2 min 0,000 mm 0,0 UV-I 193 W/m 11,5 C 19,5 C 19,3 km/h (3 Bft) 98,21 %
03.07.2017 19:18 21,6 C 21,7 C 53 % 1019,2 hPa 0,0 l/m 10,9 km/h (2 Bft) W 273 2 min 0,000 mm 0,0 UV-I 195 W/m 11,6 C 20,2 C 16,1 km/h (3 Bft) 93,18 %
03.07.2017 19:20 21,7 C 21,7 C 52 % 1019,3 hPa 0,0 l/m 12,0 km/h (2 Bft) W-SW 257 2 min 0,000 mm 0,0 UV-I 190 W/m 11,4 C 20,0 C 17,7 km/h (3 Bft) 98,00 %
03.07.2017 19:22 21,7 C 21,7 C 52 % 1019,3 hPa 0,0 l/m 8,2 km/h (2 Bft) W 262 2 min 0,000 mm 0,0 UV-I 187 W/m 11,4 C 21,1 C 14,5 km/h (3 Bft) 100,00 %
03.07.2017 19:24 21,8 C 21,7 C 52 % 1019,3 hPa 0,0 l/m 8,3 km/h (2 Bft) W-SW 241 2 min 0,000 mm 0,0 UV-I 180 W/m 11,5 C 21,1 C 14,5 km/h (3 Bft) 95,74 %
03.07.2017 19:26 21,8 C 21,7 C 51 % 1019,3 hPa 0,0 l/m 7,3 km/h (2 Bft) W-SW 258 2 min 0,000 mm 0,0 UV-I 175 W/m 11,2 C 21,5 C 12,9 km/h (3 Bft) 98,00 %
03.07.2017 19:28 21,8 C 21,7 C 53 % 1019,3 hPa 0,0 l/m 4,3 km/h (1 Bft) W-SW 238 2 min 0,000 mm 0,0 UV-I 168 W/m 11,8 C 21,8 C 6,4 km/h (2 Bft) 98,00 %
03.07.2017 19:30 21,9 C 21,7 C 53 % 1019,3 hPa 0,0 l/m 3,6 km/h (1 Bft) W-SW 240 2 min 0,000 mm 0,0 UV-I 161 W/m 11,9 C 21,9 C 6,4 km/h (2 Bft) 97,22 %
03.07.2017 19:32 21,9 C 21,7 C 52 % 1019,3 hPa 0,0 l/m 4,8 km/h (1 Bft) W-SW 258 2 min 0,000 mm 0,0 UV-I 153 W/m 11,6 C 21,9 C 6,4 km/h (2 Bft) 98,18 %
03.07.2017 19:34 21,9 C 21,7 C 52 % 1019,3 hPa 0,0 l/m 7,8 km/h (2 Bft) W 259 2 min 0,000 mm 0,0 UV-I 145 W/m 11,6 C 21,4 C 17,7 km/h (3 Bft) 100,00 %
03.07.2017 19:36 21,9 C 21,7 C 52 % 1019,3 hPa 0,0 l/m 7,2 km/h (2 Bft) W-SW 238 2 min 0,000 mm 0,0 UV-I 123 W/m 11,6 C 21,6 C 12,9 km/h (3 Bft) 97,56 %
03.07.2017 19:38 21,8 C 21,7 C 51 % 1019,3 hPa 0,0 l/m 5,9 km/h (2 Bft) W-SW 246 2 min 0,000 mm 0,0 UV-I 123 W/m 11,2 C 21,8 C 9,7 km/h (2 Bft) 100,00 %
03.07.2017 19:40 21,8 C 21,7 C 52 % 1019,3 hPa 0,0 l/m 5,8 km/h (2 Bft) SW 229 2 min 0,000 mm 0,0 UV-I 126 W/m 11,5 C 21,8 C 9,7 km/h (2 Bft) 97,87 %
03.07.2017 19:42 21,7 C 21,7 C 53 % 1019,3 hPa 0,0 l/m 4,5 km/h (1 Bft) W-SW 247 2 min 0,000 mm 0,0 UV-I 120 W/m 11,7 C 21,7 C 6,4 km/h (2 Bft) 98,00 %
03.07.2017 19:44 21,7 C 21,7 C 52 % 1019,3 hPa 0,0 l/m 7,1 km/h (2 Bft) W 271 2 min 0,000 mm 0,0 UV-I 112 W/m 11,4 C 21,5 C 12,9 km/h (3 Bft) 98,00 %
03.07.2017 19:46 21,7 C 21,7 C 52 % 1019,3 hPa 0,0 l/m 6,0 km/h (2 Bft) SW 234 2 min 0,000 mm 0,0 UV-I 112 W/m 11,4 C 21,7 C 9,7 km/h (2 Bft) 100,00 %
03.07.2017 19:48 21,7 C 21,7 C 52 % 1019,3 hPa 0,0 l/m 7,7 km/h (2 Bft) SW 230 2 min 0,000 mm 0,0 UV-I 107 W/m 11,4 C 21,2 C 16,1 km/h (3 Bft) 98,00 %
03.07.2017 19:50 21,6 C 21,7 C 52 % 1019,3 hPa 0,0 l/m 5,1 km/h (1 Bft) W 263 2 min 0,000 mm 0,0 UV-I 103 W/m 11,3 C 21,6 C 9,7 km/h (2 Bft) 100,00 %
03.07.2017 19:52 21,6 C 21,7 C 52 % 1019,3 hPa 0,0 l/m 6,9 km/h (2 Bft) W-SW 243 2 min 0,000 mm 0,0 UV-I 99 W/m 11,3 C 21,4 C 9,7 km/h (2 Bft) 98,11 %
03.07.2017 19:54 21,6 C 21,7 C 52 % 1019,3 hPa 0,0 l/m 6,8 km/h (2 Bft) W-SW 242 2 min 0,000 mm 0,0 UV-I 97 W/m 11,3 C 21,5 C 11,3 km/h (2 Bft) 97,87 %
03.07.2017 19:56 21,6 C 21,7 C 52 % 1019,3 hPa 0,0 l/m 5,6 km/h (1 Bft) W-SW 258 2 min 0,000 mm 0,0 UV-I 92 W/m 11,3 C 21,6 C 8,0 km/h (2 Bft) 100,00 %
03.07.2017 19:58 21,5 C 21,7 C 53 % 1019,3 hPa 0,0 l/m 4,7 km/h (1 Bft) W-SW 252 2 min 0,000 mm 0,0 UV-I 90 W/m 11,5 C 21,5 C 6,4 km/h (2 Bft) 95,74 %
03.07.2017 20:00 21,5 C 21,7 C 53 % 1019,3 hPa 0,0 l/m 4,0 km/h (1 Bft) W-SW 252 2 min 0,152 mm 0,0 UV-I 87 W/m 11,5 C 21,5 C 6,4 km/h (2 Bft) 100,00 %
03.07.2017 20:02 21,4 C 21,7 C 54 % 1019,3 hPa 0,0 l/m 4,8 km/h (1 Bft) W-SW 248 2 min 0,000 mm 0,0 UV-I 79 W/m 11,7 C 21,4 C 6,4 km/h (2 Bft) 97,87 %
03.07.2017 20:04 21,4 C 21,7 C 54 % 1019,3 hPa 0,0 l/m 3,3 km/h (1 Bft) W-SW 248 2 min 0,000 mm 0,0 UV-I 79 W/m 11,7 C 21,4 C 6,4 km/h (2 Bft) 100,00 %
03.07.2017 20:06 21,4 C 21,7 C 54 % 1019,2 hPa 0,0 l/m 3,0 km/h (1 Bft) W-SW 248 2 min 0,000 mm 0,0 UV-I 76 W/m 11,7 C 21,4 C 4,8 km/h (1 Bft) 97,87 %
03.07.2017 20:08 21,3 C 21,7 C 54 % 1019,3 hPa 0,0 l/m 3,6 km/h (1 Bft) W-SW 248 2 min 0,000 mm 0,0 UV-I 72 W/m 11,6 C 21,3 C 4,8 km/h (1 Bft) 100,00 %
03.07.2017 20:10 21,3 C 21,7 C 53 % 1019,2 hPa 0,0 l/m 2,9 km/h (1 Bft) W-SW 248 2 min 0,000 mm 0,0 UV-I 69 W/m 11,3 C 21,3 C 4,8 km/h (1 Bft) 98,44 %
03.07.2017 20:12 21,3 C 21,7 C 54 % 1019,2 hPa 0,0 l/m 1,7 km/h (1 Bft) W-SW 248 2 min 0,000 mm 0,0 UV-I 67 W/m 11,6 C 21,3 C 3,2 km/h (1 Bft) 97,92 %
03.07.2017 20:14 21,2 C 21,7 C 54 % 1019,2 hPa 0,0 l/m 1,7 km/h (1 Bft) W-SW 248 2 min 0,000 mm 0,0 UV-I 63 W/m 11,5 C 21,2 C 3,2 km/h (1 Bft) 100,00 %
03.07.2017 20:16 21,2 C 21,7 C 55 % 1019,2 hPa 0,0 l/m 3,6 km/h (1 Bft) W-SW 248 2 min 0,000 mm 0,0 UV-I 62 W/m 11,8 C 21,2 C 4,8 km/h (1 Bft) 100,00 %
03.07.2017 20:18 21,2 C 21,7 C 55 % 1019,2 hPa 0,0 l/m 3,7 km/h (1 Bft) W-SW 247 2 min 0,000 mm 0,0 UV-I 58 W/m 11,8 C 21,2 C 4,8 km/h (1 Bft) 98,21 %
03.07.2017 20:20 21,1 C 21,7 C 55 % 1019,2 hPa 0,0 l/m 3,3 km/h (1 Bft) W-SW 247 2 min 0,000 mm 0,0 UV-I 54 W/m 11,7 C 21,1 C 4,8 km/h (1 Bft) 97,14 %
03.07.2017 20:22 21,0 C 21,7 C 56 % 1019,2 hPa 0,0 l/m 3,5 km/h (1 Bft) W-SW 247 2 min 0,000 mm 0,0 UV-I 51 W/m 11,9 C 21,0 C 4,8 km/h (1 Bft) 100,00 %
03.07.2017 20:24 20,9 C 21,7 C 56 % 1019,2 hPa 0,0 l/m 3,7 km/h (1 Bft) W-SW 247 0 min 0,000 mm 0,0 UV-I 47 W/m 11,8 C 20,9 C 4,8 km/h (1 Bft) 98,00 %
03.07.2017 20:26 20,8 C 21,7 C 57 % 1019,2 hPa 0,0 l/m 3,8 km/h (1 Bft) W-SW 247 0 min 0,000 mm 0,0 UV-I 44 W/m 12,0 C 20,8 C 6,4 km/h (2 Bft) 100,00 %
03.07.2017 20:28 20,7 C 21,7 C 58 % 1019,2 hPa 0,0 l/m 3,6 km/h (1 Bft) W-SW 247 0 min 0,000 mm 0,0 UV-I 42 W/m 12,1 C 20,7 C 4,8 km/h (1 Bft) 98,00 %
03.07.2017 20:30 20,6 C 21,7 C 59 % 1019,2 hPa 0,0 l/m 3,8 km/h (1 Bft) W-SW 246 0 min 0,000 mm 0,0 UV-I 38 W/m 12,3 C 20,6 C 4,8 km/h (1 Bft) 97,56 %
03.07.2017 20:32 20,4 C 21,7 C 60 % 1019,2 hPa 0,0 l/m 4,0 km/h (1 Bft) SW 227 0 min 0,000 mm 0,0 UV-I 29 W/m 12,4 C 20,4 C 6,4 km/h (2 Bft) 100,00 %
03.07.2017 20:34 20,3 C 21,7 C 59 % 1019,3 hPa 0,0 l/m 4,3 km/h (1 Bft) SW 227 0 min 0,000 mm 0,0 UV-I 25 W/m 12,0 C 20,3 C 6,4 km/h (2 Bft) 98,21 %
03.07.2017 20:36 20,2 C 21,7 C 60 % 1019,3 hPa 0,0 l/m 3,5 km/h (1 Bft) SW 227 0 min 0,000 mm 0,0 UV-I 24 W/m 12,2 C 20,2 C 4,8 km/h (1 Bft) 97,37 %
03.07.2017 20:38 20,1 C 21,7 C 61 % 1019,3 hPa 0,0 l/m 3,3 km/h (1 Bft) SW 227 0 min 0,000 mm 0,0 UV-I 23 W/m 12,3 C 20,1 C 4,8 km/h (1 Bft) 95,74 %
03.07.2017 20:40 19,9 C 21,7 C 61 % 1019,3 hPa 0,0 l/m 3,6 km/h (1 Bft) SW 227 0 min 0,000 mm 0,0 UV-I 21 W/m 12,2 C 19,9 C 6,4 km/h (2 Bft) 98,00 %
03.07.2017 20:42 19,8 C 21,7 C 61 % 1019,3 hPa 0,0 l/m 3,3 km/h (1 Bft) SW 227 0 min 0,000 mm 0,0 UV-I 19 W/m 12,1 C 19,8 C 4,8 km/h (1 Bft) 100,00 %
03.07.2017 20:44 19,7 C 21,7 C 62 % 1019,4 hPa 0,0 l/m 4,0 km/h (1 Bft) SW 227 0 min 0,000 mm 0,0 UV-I 18 W/m 12,2 C 19,7 C 6,4 km/h (2 Bft) 96,00 %
03.07.2017 20:46 19,7 C 21,7 C 62 % 1019,4 hPa 0,0 l/m 3,7 km/h (1 Bft) SW 227 0 min 0,000 mm 0,0 UV-I 18 W/m 12,2 C 19,7 C 6,4 km/h (2 Bft) 98,00 %
03.07.2017 20:48 19,6 C 21,7 C 63 % 1019,4 hPa 0,0 l/m 4,0 km/h (1 Bft) SW 227 2 min 0,000 mm 0,0 UV-I 18 W/m 12,4 C 19,6 C 6,4 km/h (2 Bft) 94,34 %
03.07.2017 20:50 19,4 C 21,7 C 63 % 1019,5 hPa 0,0 l/m 3,5 km/h (1 Bft) SW 227 2 min 0,000 mm 0,0 UV-I 16 W/m 12,2 C 19,4 C 4,8 km/h (1 Bft) 95,12 %
03.07.2017 20:52 19,4 C 21,7 C 64 % 1019,5 hPa 0,0 l/m 3,0 km/h (1 Bft) SW 227 2 min 0,000 mm 0,0 UV-I 15 W/m 12,4 C 19,4 C 4,8 km/h (1 Bft) 95,83 %
03.07.2017 20:54 19,3 C 21,7 C 65 % 1019,4 hPa 0,0 l/m 3,8 km/h (1 Bft) SW 227 2 min 0,000 mm 0,0 UV-I 12 W/m 12,6 C 19,3 C 4,8 km/h (1 Bft) 97,87 %
03.07.2017 20:56 19,2 C 22,2 C 65 % 1019,5 hPa 0,0 l/m 3,0 km/h (1 Bft) SW 227 0 min 0,000 mm 0,0 UV-I 12 W/m 12,5 C 19,2 C 4,8 km/h (1 Bft) 95,74 %
03.07.2017 20:58 18,9 C 22,2 C 67 % 1019,5 hPa 0,0 l/m 2,1 km/h (1 Bft) SW 227 0 min 0,000 mm 0,0 UV-I 11 W/m 12,6 C 18,9 C 4,8 km/h (1 Bft) 91,49 %
03.07.2017 21:00 18,7 C 22,2 C 67 % 1019,5 hPa 0,0 l/m 2,4 km/h (1 Bft) SW 227 0 min 0,051 mm 0,0 UV-I 11 W/m 12,4 C 18,7 C 4,8 km/h (1 Bft) 97,87 %
03.07.2017 21:02 18,5 C 22,2 C 68 % 1019,5 hPa 0,0 l/m 1,9 km/h (1 Bft) SW 227 0 min 0,000 mm 0,0 UV-I 10 W/m 12,5 C 18,5 C 3,2 km/h (1 Bft) 96,00 %
03.07.2017 21:04 18,3 C 22,2 C 68 % 1019,6 hPa 0,0 l/m 1,6 km/h (1 Bft) SW 227 0 min 0,000 mm 0,0 UV-I 9 W/m 12,3 C 18,3 C 3,2 km/h (1 Bft) 97,37 %
03.07.2017 21:06 18,2 C 22,2 C 69 % 1019,5 hPa 0,0 l/m 2,8 km/h (1 Bft) SW 227 0 min 0,000 mm 0,0 UV-I 9 W/m 12,4 C 18,2 C 4,8 km/h (1 Bft) 96,00 %
03.07.2017 21:08 18,1 C 22,2 C 70 % 1019,6 hPa 0,0 l/m 1,7 km/h (1 Bft) SW 227 0 min 0,000 mm 0,0 UV-I 7 W/m 12,5 C 18,1 C 3,2 km/h (1 Bft) 94,00 %
03.07.2017 21:10 17,9 C 22,2 C 70 % 1019,6 hPa 0,0 l/m 1,0 km/h (0 Bft) SW 227 0 min 0,000 mm 0,0 UV-I 7 W/m 12,3 C 17,9 C 3,2 km/h (1 Bft) 95,12 %
03.07.2017 21:12 17,8 C 22,2 C 71 % 1019,6 hPa 0,0 l/m 2,3 km/h (1 Bft) SW 227 0 min 0,000 mm 0,0 UV-I 7 W/m 12,5 C 17,8 C 4,8 km/h (1 Bft) 96,23 %
03.07.2017 21:14 17,7 C 22,2 C 71 % 1019,6 hPa 0,0 l/m 2,1 km/h (1 Bft) SW 227 0 min 0,000 mm 0,0 UV-I 6 W/m 12,4 C 17,7 C 4,8 km/h (1 Bft) 97,37 %
03.07.2017 21:16 17,5 C 21,7 C 72 % 1019,6 hPa 0,0 l/m 2,2 km/h (1 Bft) SW 227 0 min 0,000 mm 0,0 UV-I 5 W/m 12,4 C 17,5 C 4,8 km/h (1 Bft) 92,45 %
03.07.2017 21:18 17,4 C 21,7 C 73 % 1019,7 hPa 0,0 l/m 2,7 km/h (1 Bft) SW 227 0 min 0,000 mm 0,0 UV-I 5 W/m 12,5 C 17,4 C 4,8 km/h (1 Bft) 100,00 %
03.07.2017 21:20 17,3 C 21,7 C 72 % 1019,7 hPa 0,0 l/m 1,6 km/h (1 Bft) SW 227 0 min 0,000 mm 0,0 UV-I 5 W/m 12,2 C 17,3 C 4,8 km/h (1 Bft) 97,37 %
03.07.2017 21:22 17,3 C 21,7 C 72 % 1019,7 hPa 0,0 l/m 2,5 km/h (1 Bft) SW 227 0 min 0,000 mm 0,0 UV-I 5 W/m 12,2 C 17,3 C 4,8 km/h (1 Bft) 98,21 %
03.07.2017 21:24 17,2 C 21,7 C 72 % 1019,7 hPa 0,0 l/m 1,6 km/h (1 Bft) SW 227 0 min 0,000 mm 0,0 UV-I 3 W/m 12,1 C 17,2 C 4,8 km/h (1 Bft) 100,00 %
03.07.2017 21:26 17,2 C 21,7 C 72 % 1019,7 hPa 0,0 l/m 3,1 km/h (1 Bft) SW 227 0 min 0,000 mm 0,0 UV-I 0 W/m 12,1 C 17,2 C 6,4 km/h (2 Bft) 97,87 %
03.07.2017 21:28 17,2 C 21,7 C 73 % 1019,7 hPa 0,0 l/m 3,9 km/h (1 Bft) SW 227 0 min 0,000 mm 0,0 UV-I 0 W/m 12,3 C 17,2 C 6,4 km/h (2 Bft) 100,00 %
03.07.2017 21:30 17,2 C 21,7 C 73 % 1019,8 hPa 0,0 l/m 3,7 km/h (1 Bft) SW 227 0 min 0,000 mm 0,0 UV-I 0 W/m 12,3 C 17,2 C 4,8 km/h (1 Bft) 100,00 %
03.07.2017 21:32 17,1 C 21,7 C 72 % 1019,7 hPa 0,0 l/m 2,9 km/h (1 Bft) SW 227 0 min 0,000 mm 0,0 UV-I 0 W/m 12,0 C 17,1 C 4,8 km/h (1 Bft) 98,00 %
03.07.2017 21:34 17,1 C 21,7 C 73 % 1019,7 hPa 0,0 l/m 3,3 km/h (1 Bft) SW 227 0 min 0,000 mm 0,0 UV-I 0 W/m 12,2 C 17,1 C 4,8 km/h (1 Bft) 100,00 %
03.07.2017 21:36 17,0 C 21,7 C 73 % 1019,7 hPa 0,0 l/m 2,9 km/h (1 Bft) SW 227 0 min 0,000 mm 0,0 UV-I 0 W/m 12,1 C 17,0 C 4,8 km/h (1 Bft) 100,00 %
03.07.2017 21:38 16,9 C 21,7 C 73 % 1019,7 hPa 0,0 l/m 2,8 km/h (1 Bft) SW 227 0 min 0,000 mm 0,0 UV-I 0 W/m 12,0 C 16,9 C 6,4 km/h (2 Bft) 97,87 %
03.07.2017 21:40 17,0 C 21,7 C 73 % 1019,7 hPa 0,0 l/m 4,5 km/h (1 Bft) SW 227 0 min 0,000 mm 0,0 UV-I 0 W/m 12,1 C 17,0 C 6,4 km/h (2 Bft) 100,00 %
03.07.2017 21:42 17,0 C 21,7 C 73 % 1019,7 hPa 0,0 l/m 3,8 km/h (1 Bft) SW 227 0 min 0,000 mm 0,0 UV-I 0 W/m 12,1 C 17,0 C 4,8 km/h (1 Bft) 98,11 %
03.07.2017 21:44 17,1 C 21,7 C 73 % 1019,7 hPa 0,0 l/m 4,0 km/h (1 Bft) SW 227 0 min 0,000 mm 0,0 UV-I 0 W/m 12,2 C 17,1 C 4,8 km/h (1 Bft) 100,00 %
03.07.2017 21:46 17,1 C 21,7 C 73 % 1019,7 hPa 0,0 l/m 3,2 km/h (1 Bft) SW 227 0 min 0,000 mm 0,0 UV-I 0 W/m 12,2 C 17,1 C 4,8 km/h (1 Bft) 96,23 %
03.07.2017 21:48 17,1 C 21,7 C 73 % 1019,7 hPa 0,0 l/m 3,5 km/h (1 Bft) SW 227 0 min 0,000 mm 0,0 UV-I 0 W/m 12,2 C 17,1 C 4,8 km/h (1 Bft) 98,00 %
03.07.2017 21:50 17,1 C 21,7 C 73 % 1019,7 hPa 0,0 l/m 3,8 km/h (1 Bft) SW 227 0 min 0,000 mm 0,0 UV-I 0 W/m 12,2 C 17,1 C 4,8 km/h (1 Bft) 97,87 %
03.07.2017 21:52 17,1 C 21,7 C 74 % 1019,8 hPa 0,0 l/m 3,9 km/h (1 Bft) SW 227 0 min 0,000 mm 0,0 UV-I 0 W/m 12,4 C 17,1 C 6,4 km/h (2 Bft) 90,00 %
03.07.2017 21:54 17,1 C 21,7 C 74 % 1019,7 hPa 0,0 l/m 4,6 km/h (1 Bft) SW 227 0 min 0,000 mm 0,0 UV-I 0 W/m 12,4 C 17,1 C 6,4 km/h (2 Bft) 97,56 %
03.07.2017 21:56 17,1 C 21,7 C 74 % 1019,7 hPa 0,0 l/m 3,6 km/h (1 Bft) SW 227 0 min 0,000 mm 0,0 UV-I 0 W/m 12,4 C 17,1 C 8,0 km/h (2 Bft) 98,00 %
03.07.2017 21:58 17,1 C 21,7 C 74 % 1019,7 hPa 0,0 l/m 4,0 km/h (1 Bft) SW 227 0 min 0,000 mm 0,0 UV-I 0 W/m 12,4 C 17,1 C 6,4 km/h (2 Bft) 95,74 %
03.07.2017 22:00 17,1 C 21,7 C 74 % 1019,7 hPa 0,0 l/m 4,6 km/h (1 Bft) SW 227 0 min 0,000 mm 0,0 UV-I 0 W/m 12,4 C 17,1 C 6,4 km/h (2 Bft) 97,56 %
03.07.2017 22:02 17,2 C 21,7 C 73 % 1019,7 hPa 0,0 l/m 4,1 km/h (1 Bft) SW 227 0 min 0,025 mm 0,0 UV-I 0 W/m 12,3 C 17,2 C 4,8 km/h (1 Bft) 94,34 %
03.07.2017 22:04 17,2 C 21,7 C 73 % 1019,7 hPa 0,0 l/m 4,0 km/h (1 Bft) SW 227 0 min 0,000 mm 0,0 UV-I 0 W/m 12,3 C 17,2 C 4,8 km/h (1 Bft) 98,00 %
03.07.2017 22:06 17,3 C 21,7 C 72 % 1019,7 hPa 0,0 l/m 3,9 km/h (1 Bft) SW 227 0 min 0,000 mm 0,0 UV-I 0 W/m 12,2 C 17,3 C 6,4 km/h (2 Bft) 94,44 %
03.07.2017 22:08 17,4 C 21,7 C 72 % 1019,7 hPa 0,0 l/m 4,8 km/h (1 Bft) SW 227 0 min 0,000 mm 0,0 UV-I 0 W/m 12,3 C 17,4 C 6,4 km/h (2 Bft) 96,00 %
03.07.2017 22:10 17,4 C 21,7 C 71 % 1019,7 hPa 0,0 l/m 3,4 km/h (1 Bft) SW 227 0 min 0,000 mm 0,0 UV-I 0 W/m 12,1 C 17,4 C 4,8 km/h (1 Bft) 96,00 %
03.07.2017 22:12 17,4 C 21,7 C 71 % 1019,7 hPa 0,0 l/m 3,4 km/h (1 Bft) SW 227 0 min 0,000 mm 0,0 UV-I 0 W/m 12,1 C 17,4 C 4,8 km/h (1 Bft) 96,00 %
03.07.2017 22:14 17,4 C 21,7 C 71 % 1019,7 hPa 0,0 l/m 2,0 km/h (1 Bft) SW 227 0 min 0,000 mm 0,0 UV-I 0 W/m 12,1 C 17,4 C 4,8 km/h (1 Bft) 100,00 %
03.07.2017 22:16 17,4 C 21,7 C 73 % 1019,7 hPa 0,0 l/m 1,8 km/h (1 Bft) SW 227 0 min 0,000 mm 0,0 UV-I 0 W/m 12,5 C 17,4 C 4,8 km/h (1 Bft) 95,74 %
03.07.2017 22:18 17,4 C 21,7 C 73 % 1019,7 hPa 0,0 l/m 3,4 km/h (1 Bft) SW 227 0 min 0,000 mm 0,0 UV-I 0 W/m 12,5 C 17,4 C 6,4 km/h (2 Bft) 98,00 %
03.07.2017 22:20 17,4 C 21,7 C 72 % 1019,7 hPa 0,0 l/m 2,8 km/h (1 Bft) SW 227 0 min 0,000 mm 0,0 UV-I 0 W/m 12,3 C 17,4 C 4,8 km/h (1 Bft) 96,00 %
03.07.2017 22:22 17,4 C 22,2 C 72 % 1019,7 hPa 0,0 l/m 3,1 km/h (1 Bft) S-SW 205 0 min 0,000 mm 0,0 UV-I 0 W/m 12,3 C 17,4 C 6,4 km/h (2 Bft) 97,37 %
03.07.2017 22:24 17,4 C 21,7 C 71 % 1019,7 hPa 0,0 l/m 4,3 km/h (1 Bft) S-SW 200 0 min 0,000 mm 0,0 UV-I 0 W/m 12,1 C 17,4 C 6,4 km/h (2 Bft) 95,74 %
03.07.2017 22:26 17,4 C 21,7 C 71 % 1019,7 hPa 0,0 l/m 4,0 km/h (1 Bft) S-SW 198 0 min 0,000 mm 0,0 UV-I 0 W/m 12,1 C 17,4 C 6,4 km/h (2 Bft) 97,14 %
03.07.2017 22:28 17,4 C 21,7 C 71 % 1019,7 hPa 0,0 l/m 3,7 km/h (1 Bft) S-SW 198 0 min 0,000 mm 0,0 UV-I 0 W/m 12,1 C 17,4 C 6,4 km/h (2 Bft) 96,92 %
03.07.2017 22:30 17,3 C 21,7 C 71 % 1019,7 hPa 0,0 l/m 4,0 km/h (1 Bft) S-SW 198 0 min 0,000 mm 0,0 UV-I 0 W/m 12,0 C 17,3 C 6,4 km/h (2 Bft) 97,56 %
03.07.2017 22:32 17,3 C 21,7 C 71 % 1019,7 hPa 0,0 l/m 3,1 km/h (1 Bft) S-SW 198 0 min 0,000 mm 0,0 UV-I 0 W/m 12,0 C 17,3 C 4,8 km/h (1 Bft) 97,87 %
03.07.2017 22:34 17,2 C 21,7 C 72 % 1019,7 hPa 0,0 l/m 3,1 km/h (1 Bft) S-SW 198 0 min 0,000 mm 0,0 UV-I 0 W/m 12,1 C 17,2 C 6,4 km/h (2 Bft) 96,00 %
03.07.2017 22:36 17,2 C 21,7 C 72 % 1019,7 hPa 0,0 l/m 3,0 km/h (1 Bft) S-SW 196 0 min 0,000 mm 0,0 UV-I 0 W/m 12,1 C 17,2 C 9,7 km/h (2 Bft) 96,00 %
03.07.2017 22:38 17,1 C 21,7 C 72 % 1019,7 hPa 0,0 l/m 3,8 km/h (1 Bft) S-SW 196 0 min 0,000 mm 0,0 UV-I 0 W/m 12,0 C 17,1 C 6,4 km/h (2 Bft) 95,74 %
03.07.2017 22:40 17,1 C 21,7 C 72 % 1019,7 hPa 0,0 l/m 4,3 km/h (1 Bft) S-SW 195 0 min 0,000 mm 0,0 UV-I 0 W/m 12,0 C 17,1 C 6,4 km/h (2 Bft) 95,12 %
03.07.2017 22:42 17,0 C 21,7 C 72 % 1019,7 hPa 0,0 l/m 3,5 km/h (1 Bft) S-SW 195 0 min 0,000 mm 0,0 UV-I 0 W/m 11,9 C 17,0 C 4,8 km/h (1 Bft) 96,43 %
03.07.2017 22:44 16,9 C 21,7 C 73 % 1019,7 hPa 0,0 l/m 3,7 km/h (1 Bft) S-SW 195 0 min 0,000 mm 0,0 UV-I 0 W/m 12,0 C 16,9 C 6,4 km/h (2 Bft) 97,37 %
03.07.2017 22:46 16,8 C 21,7 C 73 % 1019,7 hPa 0,0 l/m 4,7 km/h (1 Bft) S-SW 194 0 min 0,000 mm 0,0 UV-I 0 W/m 11,9 C 16,8 C 6,4 km/h (2 Bft) 95,24 %
03.07.2017 22:48 16,7 C 21,7 C 73 % 1019,7 hPa 0,0 l/m 5,8 km/h (2 Bft) S-SW 209 0 min 0,000 mm 0,0 UV-I 0 W/m 11,8 C 16,7 C 9,7 km/h (2 Bft) 96,23 %
03.07.2017 22:50 16,7 C 21,7 C 74 % 1019,7 hPa 0,0 l/m 5,5 km/h (1 Bft) S 190 0 min 0,000 mm 0,0 UV-I 0 W/m 12,0 C 16,7 C 8,0 km/h (2 Bft) 95,74 %
03.07.2017 22:52 16,6 C 21,7 C 74 % 1019,7 hPa 0,0 l/m 5,8 km/h (2 Bft) S 175 0 min 0,000 mm 0,0 UV-I 0 W/m 11,9 C 16,6 C 9,7 km/h (2 Bft) 93,62 %
03.07.2017 22:54 16,6 C 21,7 C 74 % 1019,7 hPa 0,0 l/m 4,5 km/h (1 Bft) S-SW 196 0 min 0,000 mm 0,0 UV-I 0 W/m 11,9 C 16,6 C 6,4 km/h (2 Bft) 95,45 %
03.07.2017 22:56 16,5 C 21,7 C 74 % 1019,7 hPa 0,0 l/m 4,5 km/h (1 Bft) S 177 0 min 0,000 mm 0,0 UV-I 0 W/m 11,8 C 16,5 C 6,4 km/h (2 Bft) 96,23 %
03.07.2017 22:58 16,4 C 21,7 C 74 % 1019,7 hPa 0,0 l/m 4,9 km/h (1 Bft) S 180 0 min 0,000 mm 0,0 UV-I 0 W/m 11,8 C 16,4 C 8,0 km/h (2 Bft) 98,00 %
03.07.2017 23:00 16,4 C 21,7 C 75 % 1019,7 hPa 0,0 l/m 4,7 km/h (1 Bft) S 186 0 min 0,026 mm 0,0 UV-I 0 W/m 12,0 C 16,4 C 6,4 km/h (2 Bft) 95,45 %
03.07.2017 23:02 16,3 C 21,7 C 75 % 1019,7 hPa 0,0 l/m 5,1 km/h (1 Bft) S-SW 201 0 min 0,000 mm 0,0 UV-I 0 W/m 11,9 C 16,3 C 8,0 km/h (2 Bft) 96,00 %
03.07.2017 23:04 16,3 C 21,7 C 75 % 1019,7 hPa 0,0 l/m 5,6 km/h (1 Bft) S-SW 192 0 min 0,000 mm 0,0 UV-I 0 W/m 11,9 C 16,3 C 8,0 km/h (2 Bft) 97,37 %
03.07.2017 23:06 16,2 C 21,7 C 75 % 1019,7 hPa 0,0 l/m 4,0 km/h (1 Bft) S 182 0 min 0,000 mm 0,0 UV-I 0 W/m 11,8 C 16,2 C 6,4 km/h (2 Bft) 95,45 %
03.07.2017 23:08 16,2 C 21,7 C 76 % 1019,7 hPa 0,0 l/m 4,9 km/h (1 Bft) S-SW 207 0 min 0,000 mm 0,0 UV-I 0 W/m 12,0 C 16,2 C 6,4 km/h (2 Bft) 96,00 %
03.07.2017 23:10 16,2 C 21,7 C 76 % 1019,7 hPa 0,0 l/m 4,0 km/h (1 Bft) S 175 0 min 0,000 mm 0,0 UV-I 0 W/m 12,0 C 16,2 C 6,4 km/h (2 Bft) 94,34 %
03.07.2017 23:12 16,1 C 21,7 C 76 % 1019,7 hPa 0,0 l/m 6,0 km/h (2 Bft) S 182 0 min 0,000 mm 0,0 UV-I 0 W/m 11,9 C 16,1 C 9,7 km/h (2 Bft) 96,00 %
03.07.2017 23:14 16,1 C 21,7 C 76 % 1019,7 hPa 0,0 l/m 4,7 km/h (1 Bft) S 173 0 min 0,000 mm 0,0 UV-I 0 W/m 11,9 C 16,1 C 8,0 km/h (2 Bft) 96,15 %
03.07.2017 23:16 16,0 C 21,7 C 76 % 1019,7 hPa 0,0 l/m 4,4 km/h (1 Bft) S 188 0 min 0,000 mm 0,0 UV-I 0 W/m 11,8 C 16,0 C 8,0 km/h (2 Bft) 96,77 %
03.07.2017 23:18 16,0 C 21,7 C 76 % 1019,7 hPa 0,0 l/m 4,8 km/h (1 Bft) S 175 0 min 0,000 mm 0,0 UV-I 0 W/m 11,8 C 16,0 C 8,0 km/h (2 Bft) 92,00 %
03.07.2017 23:20 15,9 C 21,7 C 76 % 1019,7 hPa 0,0 l/m 4,2 km/h (1 Bft) S 180 0 min 0,000 mm 0,0 UV-I 0 W/m 11,7 C 15,9 C 8,0 km/h (2 Bft) 96,30 %
03.07.2017 23:23 15,8 C 21,7 C 76 % 1019,7 hPa 0,0 l/m 5,3 km/h (1 Bft) S 172 0 min 0,000 mm 0,0 UV-I 0 W/m 11,6 C 15,8 C 12,9 km/h (3 Bft) 98,90 %
03.07.2017 23:24 15,8 C 21,7 C 76 % 1019,7 hPa 0,0 l/m 6,7 km/h (2 Bft) S-SW 193 0 min 0,000 mm 0,0 UV-I 0 W/m 11,6 C 15,6 C 9,7 km/h (2 Bft) 100,00 %
03.07.2017 23:26 15,8 C 21,7 C 76 % 1019,7 hPa 0,0 l/m 4,0 km/h (1 Bft) S-SW 195 0 min 0,000 mm 0,0 UV-I 0 W/m 11,6 C 15,8 C 6,4 km/h (2 Bft) 97,62 %
03.07.2017 23:28 15,8 C 21,7 C 76 % 1019,7 hPa 0,0 l/m 5,8 km/h (2 Bft) S-SW 202 0 min 0,000 mm 0,0 UV-I 0 W/m 11,6 C 15,8 C 8,0 km/h (2 Bft) 96,15 %
03.07.2017 23:30 15,7 C 21,7 C 76 % 1019,7 hPa 0,0 l/m 5,1 km/h (1 Bft) S 188 0 min 0,000 mm 0,0 UV-I 0 W/m 11,5 C 15,7 C 9,7 km/h (2 Bft) 100,00 %
03.07.2017 23:32 15,7 C 21,7 C 76 % 1019,6 hPa 0,0 l/m 3,8 km/h (1 Bft) S 182 0 min 0,000 mm 0,0 UV-I 0 W/m 11,5 C 15,7 C 6,4 km/h (2 Bft) 98,00 %
03.07.2017 23:34 15,7 C 21,7 C 77 % 1019,6 hPa 0,0 l/m 5,0 km/h (1 Bft) S-SW 197 0 min 0,000 mm 0,0 UV-I 0 W/m 11,7 C 15,7 C 9,7 km/h (2 Bft) 98,11 %
03.07.2017 23:36 15,6 C 21,7 C 77 % 1019,6 hPa 0,0 l/m 5,3 km/h (1 Bft) S 169 0 min 0,000 mm 0,0 UV-I 0 W/m 11,6 C 15,6 C 8,0 km/h (2 Bft) 97,73 %
03.07.2017 23:38 15,6 C 21,7 C 77 % 1019,7 hPa 0,0 l/m 5,8 km/h (2 Bft) S 173 0 min 0,000 mm 0,0 UV-I 0 W/m 11,6 C 15,6 C 12,9 km/h (3 Bft) 98,00 %
03.07.2017 23:40 15,5 C 21,7 C 77 % 1019,7 hPa 0,0 l/m 5,9 km/h (2 Bft) S 189 0 min 0,000 mm 0,0 UV-I 0 W/m 11,5 C 15,5 C 9,7 km/h (2 Bft) 100,00 %
03.07.2017 23:42 15,4 C 21,7 C 77 % 1019,7 hPa 0,0 l/m 3,9 km/h (1 Bft) S 183 0 min 0,000 mm 0,0 UV-I 0 W/m 11,4 C 15,4 C 6,4 km/h (2 Bft) 100,00 %
03.07.2017 23:44 15,4 C 21,7 C 78 % 1019,7 hPa 0,0 l/m 4,8 km/h (1 Bft) S-SO 164 0 min 0,000 mm 0,0 UV-I 0 W/m 11,6 C 15,4 C 8,0 km/h (2 Bft) 100,00 %
03.07.2017 23:46 15,4 C 21,7 C 77 % 1019,7 hPa 0,0 l/m 4,4 km/h (1 Bft) S 180 0 min 0,000 mm 0,0 UV-I 0 W/m 11,4 C 15,4 C 8,0 km/h (2 Bft) 98,00 %
03.07.2017 23:48 15,3 C 21,7 C 78 % 1019,7 hPa 0,0 l/m 4,9 km/h (1 Bft) S 186 0 min 0,000 mm 0,0 UV-I 0 W/m 11,5 C 15,3 C 8,0 km/h (2 Bft) 100,00 %
03.07.2017 23:50 15,3 C 21,7 C 78 % 1019,7 hPa 0,0 l/m 4,3 km/h (1 Bft) S 186 0 min 0,000 mm 0,0 UV-I 0 W/m 11,5 C 15,3 C 6,4 km/h (2 Bft) 98,00 %
03.07.2017 23:52 15,3 C 21,7 C 78 % 1019,7 hPa 0,0 l/m 4,2 km/h (1 Bft) S 175 0 min 0,000 mm 0,0 UV-I 0 W/m 11,5 C 15,3 C 6,4 km/h (2 Bft) 100,00 %
03.07.2017 23:54 15,2 C 21,7 C 78 % 1019,7 hPa 0,0 l/m 4,2 km/h (1 Bft) S 185 0 min 0,000 mm 0,0 UV-I 0 W/m 11,4 C 15,2 C 6,4 km/h (2 Bft) 98,11 %
03.07.2017 23:56 15,2 C 21,7 C 79 % 1019,6 hPa 0,0 l/m 5,9 km/h (2 Bft) S-SW 211 0 min 0,000 mm 0,0 UV-I 0 W/m 11,6 C 15,2 C 9,7 km/h (2 Bft) 100,00 %
03.07.2017 23:58 15,1 C 21,7 C 79 % 1019,6 hPa 0,0 l/m 4,0 km/h (1 Bft) S 178 0 min 0,000 mm 0,0 UV-I 0 W/m 11,5 C 15,1 C 6,4 km/h (2 Bft) 98,31 %
_ Min-Zeit 05:50 03:20 17:02 00:00 - 09:30 - - - - - - 17:40 05:12 09:30 07:44
Minimum _ 14,2 C 20,6 C 46 % 1018,3 hPa - 0,8 km/h (0 Bft) - - - - - - 10,7 C 9,9 C 3,2 km/h (1 Bft) 87,80 %
_ Max-Zeit 17:34 20:56 06:32 09:42 05:14 14:10 - - 14:33 14:00 12:36 12:36 09:28 17:36 13:16 00:04
Maximum _ 23,2 C 22,2 C 94 % 1021,5 hPa 0,2 l/m 21,9 km/h
W (4 Bft)
- - 3 min 0,482 mm 7,2 UV-I 1226 W/m 14,9 C 22,7 C 32,2 km/h
W-SW (5 Bft)
100,00 %
Durchschnitt _ 17,9 C 21,2 C 74 % 1020,1 hPa #1,0 l/m 8,7 km/h (2 Bft) W-SW - #6:13 h #3,734 mm 2,6 UV-I 297 W/m 12,9 C 16,8 C 14,4 km/h (3 Bft) 97,01 %